<?xml version="1.0" encoding="UTF-8"?>
<gpx xmlns="http://www.topografix.com/GPX/1/1" xmlns:xsi="http://www.w3.org/2001/XMLSchema-instance" version="1.1" creator="Trace de Trail" xsi:schemaLocation="http://www.topografix.com/GPX/1/1 http://www.topografix.com/GPX/1/1/gpx.xsd">
  <metadata>
    <name>NEW GTL50 - GTLC Lux 2027</name>
    <desc>Parcours créé sur Trace de Trail</desc>
    <link href="https://tracedetrail.fr/fr/trace/356582">
      <text>Cartographie du parcours</text>
    </link>
    <time>2026-08-26T10:25:11+00:00</time>
  </metadata>
  <wpt lat="49.93772" lon="6.20484">
    <ele>207</ele>
    <type>depart</type>
  </wpt>
  <wpt lat="49.93318" lon="6.20612">
    <ele>225</ele>
    <type>arrivee</type>
  </wpt>
  <wpt lat="49.96176" lon="6.16739">
    <ele>278</ele>
    <name>Keppeshausen</name>
    <type>fanzone_bh_ravitoc_toilettes</type>
  </wpt>
  <wpt lat="49.9373" lon="6.08742">
    <ele>383</ele>
    <name>Champ de tir Bleesdall</name>
    <type>fanzone_bh_ravitoc_toilettes</type>
  </wpt>
  <wpt lat="49.91186" lon="6.13695">
    <ele>272</ele>
    <name>Bradenbourg</name>
    <type>fanzone_bh_ravitoc_toilettes</type>
  </wpt>
  <wpt lat="49.91737" lon="6.17831">
    <ele>283</ele>
    <name>Walsdorf</name>
    <type>fanzone_bh_ravitoc_toilettes</type>
  </wpt>
  <trk>
    <name>NEW GTL50 - GTLC Lux 2027 sur TraceDeTrail.fr</name>
    <src>Trace de Trail</src>
    <trkseg>
      <trkpt lat="49.93772" lon="6.20484">
        <ele>207</ele>
        <time>2026-08-26T10:25:11+00:00</time>
      </trkpt>
      <trkpt lat="49.93806" lon="6.20476">
        <ele>209</ele>
        <time>2026-08-26T10:25:14+00:00</time>
      </trkpt>
      <trkpt lat="49.93844" lon="6.20482">
        <ele>210</ele>
        <time>2026-08-26T10:25:17+00:00</time>
      </trkpt>
      <trkpt lat="49.93853" lon="6.20481">
        <ele>211</ele>
        <time>2026-08-26T10:25:20+00:00</time>
      </trkpt>
      <trkpt lat="49.93857" lon="6.20481">
        <ele>213</ele>
        <time>2026-08-26T10:25:23+00:00</time>
      </trkpt>
      <trkpt lat="49.93849" lon="6.20468">
        <ele>213</ele>
        <time>2026-08-26T10:25:26+00:00</time>
      </trkpt>
      <trkpt lat="49.93819" lon="6.20419">
        <ele>206</ele>
        <time>2026-08-26T10:25:29+00:00</time>
      </trkpt>
      <trkpt lat="49.93811" lon="6.20407">
        <ele>219</ele>
        <time>2026-08-26T10:25:32+00:00</time>
      </trkpt>
      <trkpt lat="49.9381" lon="6.20405">
        <ele>232</ele>
        <time>2026-08-26T10:25:35+00:00</time>
      </trkpt>
      <trkpt lat="49.93824" lon="6.20393">
        <ele>232</ele>
        <time>2026-08-26T10:25:38+00:00</time>
      </trkpt>
      <trkpt lat="49.9383" lon="6.20403">
        <ele>235</ele>
        <time>2026-08-26T10:25:41+00:00</time>
      </trkpt>
      <trkpt lat="49.93839" lon="6.20408">
        <ele>243</ele>
        <time>2026-08-26T10:25:44+00:00</time>
      </trkpt>
      <trkpt lat="49.9384" lon="6.20413">
        <ele>243</ele>
        <time>2026-08-26T10:25:47+00:00</time>
      </trkpt>
      <trkpt lat="49.93844" lon="6.20412">
        <ele>243</ele>
        <time>2026-08-26T10:25:50+00:00</time>
      </trkpt>
      <trkpt lat="49.93863" lon="6.2042">
        <ele>218</ele>
        <time>2026-08-26T10:25:53+00:00</time>
      </trkpt>
      <trkpt lat="49.93872" lon="6.20422">
        <ele>219</ele>
        <time>2026-08-26T10:25:56+00:00</time>
      </trkpt>
      <trkpt lat="49.93902" lon="6.20437">
        <ele>221</ele>
        <time>2026-08-26T10:25:59+00:00</time>
      </trkpt>
      <trkpt lat="49.93915" lon="6.2045">
        <ele>222</ele>
        <time>2026-08-26T10:26:02+00:00</time>
      </trkpt>
      <trkpt lat="49.93924" lon="6.20453">
        <ele>223</ele>
        <time>2026-08-26T10:26:05+00:00</time>
      </trkpt>
      <trkpt lat="49.93932" lon="6.20453">
        <ele>221</ele>
        <time>2026-08-26T10:26:08+00:00</time>
      </trkpt>
      <trkpt lat="49.9394" lon="6.20452">
        <ele>221</ele>
        <time>2026-08-26T10:26:11+00:00</time>
      </trkpt>
      <trkpt lat="49.93941" lon="6.20452">
        <ele>221</ele>
        <time>2026-08-26T10:26:14+00:00</time>
      </trkpt>
      <trkpt lat="49.93951" lon="6.20452">
        <ele>221</ele>
        <time>2026-08-26T10:26:17+00:00</time>
      </trkpt>
      <trkpt lat="49.93969" lon="6.20462">
        <ele>221</ele>
        <time>2026-08-26T10:26:20+00:00</time>
      </trkpt>
      <trkpt lat="49.93971" lon="6.20461">
        <ele>221</ele>
        <time>2026-08-26T10:26:23+00:00</time>
      </trkpt>
      <trkpt lat="49.93984" lon="6.20453">
        <ele>221</ele>
        <time>2026-08-26T10:26:26+00:00</time>
      </trkpt>
      <trkpt lat="49.93998" lon="6.20453">
        <ele>224</ele>
        <time>2026-08-26T10:26:29+00:00</time>
      </trkpt>
      <trkpt lat="49.94019" lon="6.20444">
        <ele>235</ele>
        <time>2026-08-26T10:26:32+00:00</time>
      </trkpt>
      <trkpt lat="49.94036" lon="6.20445">
        <ele>235</ele>
        <time>2026-08-26T10:26:35+00:00</time>
      </trkpt>
      <trkpt lat="49.9405" lon="6.20441">
        <ele>235</ele>
        <time>2026-08-26T10:26:38+00:00</time>
      </trkpt>
      <trkpt lat="49.94051" lon="6.20441">
        <ele>235</ele>
        <time>2026-08-26T10:26:41+00:00</time>
      </trkpt>
      <trkpt lat="49.94052" lon="6.20442">
        <ele>235</ele>
        <time>2026-08-26T10:26:44+00:00</time>
      </trkpt>
      <trkpt lat="49.94059" lon="6.20438">
        <ele>235</ele>
        <time>2026-08-26T10:26:47+00:00</time>
      </trkpt>
      <trkpt lat="49.94062" lon="6.20441">
        <ele>235</ele>
        <time>2026-08-26T10:26:50+00:00</time>
      </trkpt>
      <trkpt lat="49.94067" lon="6.20448">
        <ele>235</ele>
        <time>2026-08-26T10:26:53+00:00</time>
      </trkpt>
      <trkpt lat="49.94074" lon="6.20453">
        <ele>242</ele>
        <time>2026-08-26T10:26:56+00:00</time>
      </trkpt>
      <trkpt lat="49.94086" lon="6.20447">
        <ele>242</ele>
        <time>2026-08-26T10:26:59+00:00</time>
      </trkpt>
      <trkpt lat="49.94107" lon="6.20444">
        <ele>245</ele>
        <time>2026-08-26T10:27:02+00:00</time>
      </trkpt>
      <trkpt lat="49.94124" lon="6.20444">
        <ele>253</ele>
        <time>2026-08-26T10:27:05+00:00</time>
      </trkpt>
      <trkpt lat="49.94124" lon="6.20451">
        <ele>253</ele>
        <time>2026-08-26T10:27:08+00:00</time>
      </trkpt>
      <trkpt lat="49.94129" lon="6.20466">
        <ele>253</ele>
        <time>2026-08-26T10:27:11+00:00</time>
      </trkpt>
      <trkpt lat="49.94139" lon="6.20456">
        <ele>259</ele>
        <time>2026-08-26T10:27:14+00:00</time>
      </trkpt>
      <trkpt lat="49.94154" lon="6.20448">
        <ele>260</ele>
        <time>2026-08-26T10:27:17+00:00</time>
      </trkpt>
      <trkpt lat="49.9416" lon="6.20451">
        <ele>261</ele>
        <time>2026-08-26T10:27:20+00:00</time>
      </trkpt>
      <trkpt lat="49.94163" lon="6.20466">
        <ele>262</ele>
        <time>2026-08-26T10:27:23+00:00</time>
      </trkpt>
      <trkpt lat="49.94166" lon="6.20472">
        <ele>262</ele>
        <time>2026-08-26T10:27:26+00:00</time>
      </trkpt>
      <trkpt lat="49.94166" lon="6.20473">
        <ele>263</ele>
        <time>2026-08-26T10:27:29+00:00</time>
      </trkpt>
      <trkpt lat="49.9417" lon="6.20478">
        <ele>263</ele>
        <time>2026-08-26T10:27:32+00:00</time>
      </trkpt>
      <trkpt lat="49.94183" lon="6.20472">
        <ele>263</ele>
        <time>2026-08-26T10:27:35+00:00</time>
      </trkpt>
      <trkpt lat="49.94201" lon="6.20474">
        <ele>270</ele>
        <time>2026-08-26T10:27:38+00:00</time>
      </trkpt>
      <trkpt lat="49.94203" lon="6.20474">
        <ele>270</ele>
        <time>2026-08-26T10:27:41+00:00</time>
      </trkpt>
      <trkpt lat="49.94214" lon="6.20474">
        <ele>273</ele>
        <time>2026-08-26T10:27:44+00:00</time>
      </trkpt>
      <trkpt lat="49.94221" lon="6.20465">
        <ele>273</ele>
        <time>2026-08-26T10:27:47+00:00</time>
      </trkpt>
      <trkpt lat="49.94244" lon="6.20457">
        <ele>274</ele>
        <time>2026-08-26T10:27:50+00:00</time>
      </trkpt>
      <trkpt lat="49.94253" lon="6.20451">
        <ele>275</ele>
        <time>2026-08-26T10:27:53+00:00</time>
      </trkpt>
      <trkpt lat="49.94256" lon="6.20445">
        <ele>275</ele>
        <time>2026-08-26T10:27:56+00:00</time>
      </trkpt>
      <trkpt lat="49.94266" lon="6.20435">
        <ele>278</ele>
        <time>2026-08-26T10:27:59+00:00</time>
      </trkpt>
      <trkpt lat="49.94285" lon="6.20425">
        <ele>279</ele>
        <time>2026-08-26T10:28:02+00:00</time>
      </trkpt>
      <trkpt lat="49.94303" lon="6.20401">
        <ele>278</ele>
        <time>2026-08-26T10:28:05+00:00</time>
      </trkpt>
      <trkpt lat="49.94324" lon="6.2038">
        <ele>276</ele>
        <time>2026-08-26T10:28:08+00:00</time>
      </trkpt>
      <trkpt lat="49.94352" lon="6.20369">
        <ele>275</ele>
        <time>2026-08-26T10:28:11+00:00</time>
      </trkpt>
      <trkpt lat="49.94366" lon="6.2034">
        <ele>275</ele>
        <time>2026-08-26T10:28:14+00:00</time>
      </trkpt>
      <trkpt lat="49.94373" lon="6.20333">
        <ele>275</ele>
        <time>2026-08-26T10:28:17+00:00</time>
      </trkpt>
      <trkpt lat="49.94382" lon="6.20331">
        <ele>273</ele>
        <time>2026-08-26T10:28:20+00:00</time>
      </trkpt>
      <trkpt lat="49.94388" lon="6.20348">
        <ele>273</ele>
        <time>2026-08-26T10:28:23+00:00</time>
      </trkpt>
      <trkpt lat="49.94389" lon="6.20351">
        <ele>272</ele>
        <time>2026-08-26T10:28:26+00:00</time>
      </trkpt>
      <trkpt lat="49.94401" lon="6.20369">
        <ele>272</ele>
        <time>2026-08-26T10:28:29+00:00</time>
      </trkpt>
      <trkpt lat="49.94421" lon="6.20365">
        <ele>270</ele>
        <time>2026-08-26T10:28:32+00:00</time>
      </trkpt>
      <trkpt lat="49.94428" lon="6.20367">
        <ele>271</ele>
        <time>2026-08-26T10:28:35+00:00</time>
      </trkpt>
      <trkpt lat="49.94442" lon="6.20358">
        <ele>258</ele>
        <time>2026-08-26T10:28:38+00:00</time>
      </trkpt>
      <trkpt lat="49.94443" lon="6.20356">
        <ele>258</ele>
        <time>2026-08-26T10:28:41+00:00</time>
      </trkpt>
      <trkpt lat="49.94445" lon="6.20353">
        <ele>258</ele>
        <time>2026-08-26T10:28:44+00:00</time>
      </trkpt>
      <trkpt lat="49.94445" lon="6.20351">
        <ele>258</ele>
        <time>2026-08-26T10:28:47+00:00</time>
      </trkpt>
      <trkpt lat="49.94453" lon="6.20339">
        <ele>285</ele>
        <time>2026-08-26T10:28:50+00:00</time>
      </trkpt>
      <trkpt lat="49.94464" lon="6.20315">
        <ele>287</ele>
        <time>2026-08-26T10:28:53+00:00</time>
      </trkpt>
      <trkpt lat="49.94471" lon="6.2029">
        <ele>288</ele>
        <time>2026-08-26T10:28:56+00:00</time>
      </trkpt>
      <trkpt lat="49.9447" lon="6.20286">
        <ele>289</ele>
        <time>2026-08-26T10:28:59+00:00</time>
      </trkpt>
      <trkpt lat="49.94478" lon="6.2024">
        <ele>290</ele>
        <time>2026-08-26T10:29:02+00:00</time>
      </trkpt>
      <trkpt lat="49.94481" lon="6.20234">
        <ele>290</ele>
        <time>2026-08-26T10:29:05+00:00</time>
      </trkpt>
      <trkpt lat="49.9448" lon="6.20222">
        <ele>289</ele>
        <time>2026-08-26T10:29:08+00:00</time>
      </trkpt>
      <trkpt lat="49.94482" lon="6.20181">
        <ele>288</ele>
        <time>2026-08-26T10:29:11+00:00</time>
      </trkpt>
      <trkpt lat="49.94479" lon="6.20166">
        <ele>315</ele>
        <time>2026-08-26T10:29:14+00:00</time>
      </trkpt>
      <trkpt lat="49.94481" lon="6.20139">
        <ele>315</ele>
        <time>2026-08-26T10:29:17+00:00</time>
      </trkpt>
      <trkpt lat="49.9449" lon="6.20107">
        <ele>315</ele>
        <time>2026-08-26T10:29:20+00:00</time>
      </trkpt>
      <trkpt lat="49.9449" lon="6.20098">
        <ele>315</ele>
        <time>2026-08-26T10:29:23+00:00</time>
      </trkpt>
      <trkpt lat="49.94493" lon="6.20096">
        <ele>315</ele>
        <time>2026-08-26T10:29:26+00:00</time>
      </trkpt>
      <trkpt lat="49.9449" lon="6.2006">
        <ele>331</ele>
        <time>2026-08-26T10:29:29+00:00</time>
      </trkpt>
      <trkpt lat="49.94493" lon="6.20048">
        <ele>331</ele>
        <time>2026-08-26T10:29:32+00:00</time>
      </trkpt>
      <trkpt lat="49.94495" lon="6.20045">
        <ele>331</ele>
        <time>2026-08-26T10:29:35+00:00</time>
      </trkpt>
      <trkpt lat="49.94492" lon="6.20001">
        <ele>332</ele>
        <time>2026-08-26T10:29:38+00:00</time>
      </trkpt>
      <trkpt lat="49.94494" lon="6.19995">
        <ele>332</ele>
        <time>2026-08-26T10:29:41+00:00</time>
      </trkpt>
      <trkpt lat="49.94494" lon="6.19966">
        <ele>332</ele>
        <time>2026-08-26T10:29:44+00:00</time>
      </trkpt>
      <trkpt lat="49.94496" lon="6.19957">
        <ele>332</ele>
        <time>2026-08-26T10:29:47+00:00</time>
      </trkpt>
      <trkpt lat="49.94495" lon="6.19942">
        <ele>332</ele>
        <time>2026-08-26T10:29:50+00:00</time>
      </trkpt>
      <trkpt lat="49.94496" lon="6.199">
        <ele>332</ele>
        <time>2026-08-26T10:29:53+00:00</time>
      </trkpt>
      <trkpt lat="49.94498" lon="6.19895">
        <ele>332</ele>
        <time>2026-08-26T10:29:56+00:00</time>
      </trkpt>
      <trkpt lat="49.94498" lon="6.1987">
        <ele>343</ele>
        <time>2026-08-26T10:29:59+00:00</time>
      </trkpt>
      <trkpt lat="49.94499" lon="6.19864">
        <ele>343</ele>
        <time>2026-08-26T10:30:02+00:00</time>
      </trkpt>
      <trkpt lat="49.94498" lon="6.19857">
        <ele>343</ele>
        <time>2026-08-26T10:30:05+00:00</time>
      </trkpt>
      <trkpt lat="49.945" lon="6.19852">
        <ele>343</ele>
        <time>2026-08-26T10:30:08+00:00</time>
      </trkpt>
      <trkpt lat="49.94505" lon="6.19849">
        <ele>305</ele>
        <time>2026-08-26T10:30:11+00:00</time>
      </trkpt>
      <trkpt lat="49.94506" lon="6.19843">
        <ele>286</ele>
        <time>2026-08-26T10:30:14+00:00</time>
      </trkpt>
      <trkpt lat="49.94511" lon="6.19827">
        <ele>302</ele>
        <time>2026-08-26T10:30:17+00:00</time>
      </trkpt>
      <trkpt lat="49.94512" lon="6.19822">
        <ele>302</ele>
        <time>2026-08-26T10:30:20+00:00</time>
      </trkpt>
      <trkpt lat="49.94517" lon="6.19808">
        <ele>302</ele>
        <time>2026-08-26T10:30:23+00:00</time>
      </trkpt>
      <trkpt lat="49.94521" lon="6.19807">
        <ele>302</ele>
        <time>2026-08-26T10:30:26+00:00</time>
      </trkpt>
      <trkpt lat="49.94523" lon="6.19803">
        <ele>301</ele>
        <time>2026-08-26T10:30:29+00:00</time>
      </trkpt>
      <trkpt lat="49.94529" lon="6.19775">
        <ele>300</ele>
        <time>2026-08-26T10:30:32+00:00</time>
      </trkpt>
      <trkpt lat="49.94553" lon="6.19749">
        <ele>300</ele>
        <time>2026-08-26T10:30:35+00:00</time>
      </trkpt>
      <trkpt lat="49.94561" lon="6.19744">
        <ele>299</ele>
        <time>2026-08-26T10:30:38+00:00</time>
      </trkpt>
      <trkpt lat="49.94567" lon="6.19737">
        <ele>298</ele>
        <time>2026-08-26T10:30:41+00:00</time>
      </trkpt>
      <trkpt lat="49.9457" lon="6.19726">
        <ele>297</ele>
        <time>2026-08-26T10:30:44+00:00</time>
      </trkpt>
      <trkpt lat="49.9458" lon="6.19715">
        <ele>296</ele>
        <time>2026-08-26T10:30:47+00:00</time>
      </trkpt>
      <trkpt lat="49.94586" lon="6.19704">
        <ele>263</ele>
        <time>2026-08-26T10:30:50+00:00</time>
      </trkpt>
      <trkpt lat="49.9459" lon="6.19697">
        <ele>263</ele>
        <time>2026-08-26T10:30:53+00:00</time>
      </trkpt>
      <trkpt lat="49.94592" lon="6.19691">
        <ele>263</ele>
        <time>2026-08-26T10:30:56+00:00</time>
      </trkpt>
      <trkpt lat="49.94592" lon="6.19689">
        <ele>263</ele>
        <time>2026-08-26T10:30:59+00:00</time>
      </trkpt>
      <trkpt lat="49.94589" lon="6.19692">
        <ele>263</ele>
        <time>2026-08-26T10:31:02+00:00</time>
      </trkpt>
      <trkpt lat="49.94588" lon="6.19691">
        <ele>263</ele>
        <time>2026-08-26T10:31:05+00:00</time>
      </trkpt>
      <trkpt lat="49.94591" lon="6.1968">
        <ele>273</ele>
        <time>2026-08-26T10:31:08+00:00</time>
      </trkpt>
      <trkpt lat="49.94591" lon="6.19674">
        <ele>273</ele>
        <time>2026-08-26T10:31:11+00:00</time>
      </trkpt>
      <trkpt lat="49.94591" lon="6.1967">
        <ele>274</ele>
        <time>2026-08-26T10:31:14+00:00</time>
      </trkpt>
      <trkpt lat="49.94588" lon="6.19647">
        <ele>275</ele>
        <time>2026-08-26T10:31:17+00:00</time>
      </trkpt>
      <trkpt lat="49.9458" lon="6.19618">
        <ele>276</ele>
        <time>2026-08-26T10:31:20+00:00</time>
      </trkpt>
      <trkpt lat="49.9457" lon="6.19594">
        <ele>272</ele>
        <time>2026-08-26T10:31:23+00:00</time>
      </trkpt>
      <trkpt lat="49.94547" lon="6.19548">
        <ele>270</ele>
        <time>2026-08-26T10:31:26+00:00</time>
      </trkpt>
      <trkpt lat="49.94525" lon="6.19517">
        <ele>264</ele>
        <time>2026-08-26T10:31:29+00:00</time>
      </trkpt>
      <trkpt lat="49.9449" lon="6.19467">
        <ele>279</ele>
        <time>2026-08-26T10:31:32+00:00</time>
      </trkpt>
      <trkpt lat="49.94453" lon="6.19403">
        <ele>277</ele>
        <time>2026-08-26T10:31:35+00:00</time>
      </trkpt>
      <trkpt lat="49.9447" lon="6.19482">
        <ele>301</ele>
        <time>2026-08-26T10:31:38+00:00</time>
      </trkpt>
      <trkpt lat="49.94478" lon="6.19506">
        <ele>303</ele>
        <time>2026-08-26T10:31:41+00:00</time>
      </trkpt>
      <trkpt lat="49.94483" lon="6.19527">
        <ele>300</ele>
        <time>2026-08-26T10:31:44+00:00</time>
      </trkpt>
      <trkpt lat="49.94507" lon="6.1958">
        <ele>292</ele>
        <time>2026-08-26T10:31:47+00:00</time>
      </trkpt>
      <trkpt lat="49.94509" lon="6.19589">
        <ele>295</ele>
        <time>2026-08-26T10:31:50+00:00</time>
      </trkpt>
      <trkpt lat="49.94512" lon="6.19602">
        <ele>298</ele>
        <time>2026-08-26T10:31:53+00:00</time>
      </trkpt>
      <trkpt lat="49.94521" lon="6.19643">
        <ele>306</ele>
        <time>2026-08-26T10:31:56+00:00</time>
      </trkpt>
      <trkpt lat="49.94523" lon="6.19661">
        <ele>306</ele>
        <time>2026-08-26T10:31:59+00:00</time>
      </trkpt>
      <trkpt lat="49.94522" lon="6.19698">
        <ele>307</ele>
        <time>2026-08-26T10:32:02+00:00</time>
      </trkpt>
      <trkpt lat="49.9452" lon="6.19705">
        <ele>306</ele>
        <time>2026-08-26T10:32:05+00:00</time>
      </trkpt>
      <trkpt lat="49.94509" lon="6.19716">
        <ele>311</ele>
        <time>2026-08-26T10:32:08+00:00</time>
      </trkpt>
      <trkpt lat="49.94506" lon="6.19718">
        <ele>311</ele>
        <time>2026-08-26T10:32:11+00:00</time>
      </trkpt>
      <trkpt lat="49.94505" lon="6.19723">
        <ele>311</ele>
        <time>2026-08-26T10:32:14+00:00</time>
      </trkpt>
      <trkpt lat="49.94495" lon="6.19729">
        <ele>352</ele>
        <time>2026-08-26T10:32:17+00:00</time>
      </trkpt>
      <trkpt lat="49.94485" lon="6.19739">
        <ele>350</ele>
        <time>2026-08-26T10:32:20+00:00</time>
      </trkpt>
      <trkpt lat="49.9448" lon="6.1975">
        <ele>347</ele>
        <time>2026-08-26T10:32:23+00:00</time>
      </trkpt>
      <trkpt lat="49.94478" lon="6.1976">
        <ele>361</ele>
        <time>2026-08-26T10:32:26+00:00</time>
      </trkpt>
      <trkpt lat="49.94475" lon="6.19757">
        <ele>363</ele>
        <time>2026-08-26T10:32:29+00:00</time>
      </trkpt>
      <trkpt lat="49.94474" lon="6.19754">
        <ele>363</ele>
        <time>2026-08-26T10:32:32+00:00</time>
      </trkpt>
      <trkpt lat="49.94476" lon="6.19736">
        <ele>363</ele>
        <time>2026-08-26T10:32:35+00:00</time>
      </trkpt>
      <trkpt lat="49.94473" lon="6.19737">
        <ele>363</ele>
        <time>2026-08-26T10:32:38+00:00</time>
      </trkpt>
      <trkpt lat="49.94466" lon="6.1975">
        <ele>363</ele>
        <time>2026-08-26T10:32:41+00:00</time>
      </trkpt>
      <trkpt lat="49.94465" lon="6.19747">
        <ele>363</ele>
        <time>2026-08-26T10:32:44+00:00</time>
      </trkpt>
      <trkpt lat="49.94467" lon="6.19738">
        <ele>365</ele>
        <time>2026-08-26T10:32:47+00:00</time>
      </trkpt>
      <trkpt lat="49.94465" lon="6.19742">
        <ele>365</ele>
        <time>2026-08-26T10:32:50+00:00</time>
      </trkpt>
      <trkpt lat="49.94464" lon="6.19742">
        <ele>365</ele>
        <time>2026-08-26T10:32:53+00:00</time>
      </trkpt>
      <trkpt lat="49.94463" lon="6.1974">
        <ele>365</ele>
        <time>2026-08-26T10:32:56+00:00</time>
      </trkpt>
      <trkpt lat="49.94465" lon="6.19733">
        <ele>366</ele>
        <time>2026-08-26T10:32:59+00:00</time>
      </trkpt>
      <trkpt lat="49.94464" lon="6.1973">
        <ele>366</ele>
        <time>2026-08-26T10:33:02+00:00</time>
      </trkpt>
      <trkpt lat="49.94468" lon="6.19707">
        <ele>366</ele>
        <time>2026-08-26T10:33:05+00:00</time>
      </trkpt>
      <trkpt lat="49.94466" lon="6.19706">
        <ele>366</ele>
        <time>2026-08-26T10:33:08+00:00</time>
      </trkpt>
      <trkpt lat="49.94457" lon="6.19718">
        <ele>366</ele>
        <time>2026-08-26T10:33:11+00:00</time>
      </trkpt>
      <trkpt lat="49.9446" lon="6.19695">
        <ele>366</ele>
        <time>2026-08-26T10:33:14+00:00</time>
      </trkpt>
      <trkpt lat="49.9445" lon="6.19706">
        <ele>366</ele>
        <time>2026-08-26T10:33:17+00:00</time>
      </trkpt>
      <trkpt lat="49.9444" lon="6.19729">
        <ele>365</ele>
        <time>2026-08-26T10:33:20+00:00</time>
      </trkpt>
      <trkpt lat="49.94439" lon="6.19698">
        <ele>365</ele>
        <time>2026-08-26T10:33:23+00:00</time>
      </trkpt>
      <trkpt lat="49.9444" lon="6.1969">
        <ele>365</ele>
        <time>2026-08-26T10:33:26+00:00</time>
      </trkpt>
      <trkpt lat="49.94437" lon="6.19694">
        <ele>365</ele>
        <time>2026-08-26T10:33:29+00:00</time>
      </trkpt>
      <trkpt lat="49.94427" lon="6.19723">
        <ele>365</ele>
        <time>2026-08-26T10:33:32+00:00</time>
      </trkpt>
      <trkpt lat="49.94425" lon="6.1971">
        <ele>365</ele>
        <time>2026-08-26T10:33:35+00:00</time>
      </trkpt>
      <trkpt lat="49.94426" lon="6.19701">
        <ele>365</ele>
        <time>2026-08-26T10:33:38+00:00</time>
      </trkpt>
      <trkpt lat="49.94425" lon="6.19698">
        <ele>365</ele>
        <time>2026-08-26T10:33:41+00:00</time>
      </trkpt>
      <trkpt lat="49.94424" lon="6.19698">
        <ele>365</ele>
        <time>2026-08-26T10:33:44+00:00</time>
      </trkpt>
      <trkpt lat="49.94424" lon="6.19701">
        <ele>365</ele>
        <time>2026-08-26T10:33:47+00:00</time>
      </trkpt>
      <trkpt lat="49.94415" lon="6.19694">
        <ele>366</ele>
        <time>2026-08-26T10:33:50+00:00</time>
      </trkpt>
      <trkpt lat="49.94416" lon="6.19708">
        <ele>367</ele>
        <time>2026-08-26T10:33:53+00:00</time>
      </trkpt>
      <trkpt lat="49.94413" lon="6.19705">
        <ele>375</ele>
        <time>2026-08-26T10:33:56+00:00</time>
      </trkpt>
      <trkpt lat="49.94413" lon="6.19705">
        <ele>383</ele>
        <time>2026-08-26T10:33:59+00:00</time>
      </trkpt>
      <trkpt lat="49.94411" lon="6.19704">
        <ele>383</ele>
        <time>2026-08-26T10:34:02+00:00</time>
      </trkpt>
      <trkpt lat="49.9441" lon="6.19706">
        <ele>383</ele>
        <time>2026-08-26T10:34:05+00:00</time>
      </trkpt>
      <trkpt lat="49.94397" lon="6.19687">
        <ele>383</ele>
        <time>2026-08-26T10:34:08+00:00</time>
      </trkpt>
      <trkpt lat="49.94394" lon="6.19678">
        <ele>383</ele>
        <time>2026-08-26T10:34:11+00:00</time>
      </trkpt>
      <trkpt lat="49.94381" lon="6.19662">
        <ele>386</ele>
        <time>2026-08-26T10:34:14+00:00</time>
      </trkpt>
      <trkpt lat="49.9436" lon="6.19615">
        <ele>385</ele>
        <time>2026-08-26T10:34:17+00:00</time>
      </trkpt>
      <trkpt lat="49.94345" lon="6.19592">
        <ele>385</ele>
        <time>2026-08-26T10:34:20+00:00</time>
      </trkpt>
      <trkpt lat="49.94329" lon="6.19575">
        <ele>398</ele>
        <time>2026-08-26T10:34:23+00:00</time>
      </trkpt>
      <trkpt lat="49.94311" lon="6.19549">
        <ele>398</ele>
        <time>2026-08-26T10:34:26+00:00</time>
      </trkpt>
      <trkpt lat="49.94298" lon="6.1954">
        <ele>398</ele>
        <time>2026-08-26T10:34:29+00:00</time>
      </trkpt>
      <trkpt lat="49.94291" lon="6.19532">
        <ele>398</ele>
        <time>2026-08-26T10:34:32+00:00</time>
      </trkpt>
      <trkpt lat="49.94273" lon="6.19501">
        <ele>398</ele>
        <time>2026-08-26T10:34:35+00:00</time>
      </trkpt>
      <trkpt lat="49.94256" lon="6.19469">
        <ele>387</ele>
        <time>2026-08-26T10:34:38+00:00</time>
      </trkpt>
      <trkpt lat="49.94227" lon="6.19434">
        <ele>395</ele>
        <time>2026-08-26T10:34:41+00:00</time>
      </trkpt>
      <trkpt lat="49.94174" lon="6.19373">
        <ele>402</ele>
        <time>2026-08-26T10:34:44+00:00</time>
      </trkpt>
      <trkpt lat="49.94167" lon="6.19366">
        <ele>403</ele>
        <time>2026-08-26T10:34:47+00:00</time>
      </trkpt>
      <trkpt lat="49.94139" lon="6.19346">
        <ele>408</ele>
        <time>2026-08-26T10:34:50+00:00</time>
      </trkpt>
      <trkpt lat="49.94086" lon="6.19297">
        <ele>409</ele>
        <time>2026-08-26T10:34:53+00:00</time>
      </trkpt>
      <trkpt lat="49.94065" lon="6.19269">
        <ele>411</ele>
        <time>2026-08-26T10:34:56+00:00</time>
      </trkpt>
      <trkpt lat="49.94064" lon="6.19262">
        <ele>410</ele>
        <time>2026-08-26T10:34:59+00:00</time>
      </trkpt>
      <trkpt lat="49.94065" lon="6.19255">
        <ele>409</ele>
        <time>2026-08-26T10:35:02+00:00</time>
      </trkpt>
      <trkpt lat="49.94077" lon="6.19193">
        <ele>408</ele>
        <time>2026-08-26T10:35:05+00:00</time>
      </trkpt>
      <trkpt lat="49.94086" lon="6.19169">
        <ele>408</ele>
        <time>2026-08-26T10:35:08+00:00</time>
      </trkpt>
      <trkpt lat="49.94096" lon="6.19149">
        <ele>408</ele>
        <time>2026-08-26T10:35:11+00:00</time>
      </trkpt>
      <trkpt lat="49.94098" lon="6.1914">
        <ele>409</ele>
        <time>2026-08-26T10:35:14+00:00</time>
      </trkpt>
      <trkpt lat="49.94098" lon="6.19121">
        <ele>411</ele>
        <time>2026-08-26T10:35:17+00:00</time>
      </trkpt>
      <trkpt lat="49.9409" lon="6.19085">
        <ele>415</ele>
        <time>2026-08-26T10:35:20+00:00</time>
      </trkpt>
      <trkpt lat="49.94078" lon="6.19047">
        <ele>417</ele>
        <time>2026-08-26T10:35:23+00:00</time>
      </trkpt>
      <trkpt lat="49.9406" lon="6.18965">
        <ele>417</ele>
        <time>2026-08-26T10:35:26+00:00</time>
      </trkpt>
      <trkpt lat="49.94044" lon="6.18931">
        <ele>418</ele>
        <time>2026-08-26T10:35:29+00:00</time>
      </trkpt>
      <trkpt lat="49.94037" lon="6.18919">
        <ele>418</ele>
        <time>2026-08-26T10:35:32+00:00</time>
      </trkpt>
      <trkpt lat="49.94036" lon="6.18913">
        <ele>418</ele>
        <time>2026-08-26T10:35:35+00:00</time>
      </trkpt>
      <trkpt lat="49.94038" lon="6.18896">
        <ele>420</ele>
        <time>2026-08-26T10:35:38+00:00</time>
      </trkpt>
      <trkpt lat="49.94038" lon="6.18884">
        <ele>421</ele>
        <time>2026-08-26T10:35:41+00:00</time>
      </trkpt>
      <trkpt lat="49.94024" lon="6.1881">
        <ele>428</ele>
        <time>2026-08-26T10:35:44+00:00</time>
      </trkpt>
      <trkpt lat="49.93996" lon="6.18698">
        <ele>445</ele>
        <time>2026-08-26T10:35:47+00:00</time>
      </trkpt>
      <trkpt lat="49.93988" lon="6.18653">
        <ele>450</ele>
        <time>2026-08-26T10:35:50+00:00</time>
      </trkpt>
      <trkpt lat="49.93983" lon="6.18616">
        <ele>452</ele>
        <time>2026-08-26T10:35:53+00:00</time>
      </trkpt>
      <trkpt lat="49.93982" lon="6.18581">
        <ele>454</ele>
        <time>2026-08-26T10:35:56+00:00</time>
      </trkpt>
      <trkpt lat="49.93982" lon="6.18551">
        <ele>455</ele>
        <time>2026-08-26T10:35:59+00:00</time>
      </trkpt>
      <trkpt lat="49.93986" lon="6.18524">
        <ele>454</ele>
        <time>2026-08-26T10:36:02+00:00</time>
      </trkpt>
      <trkpt lat="49.9402" lon="6.1842">
        <ele>455</ele>
        <time>2026-08-26T10:36:05+00:00</time>
      </trkpt>
      <trkpt lat="49.94033" lon="6.18387">
        <ele>458</ele>
        <time>2026-08-26T10:36:08+00:00</time>
      </trkpt>
      <trkpt lat="49.94043" lon="6.18376">
        <ele>461</ele>
        <time>2026-08-26T10:36:11+00:00</time>
      </trkpt>
      <trkpt lat="49.9405" lon="6.18389">
        <ele>448</ele>
        <time>2026-08-26T10:36:14+00:00</time>
      </trkpt>
      <trkpt lat="49.94051" lon="6.184">
        <ele>446</ele>
        <time>2026-08-26T10:36:17+00:00</time>
      </trkpt>
      <trkpt lat="49.94047" lon="6.18449">
        <ele>441</ele>
        <time>2026-08-26T10:36:20+00:00</time>
      </trkpt>
      <trkpt lat="49.94046" lon="6.18522">
        <ele>435</ele>
        <time>2026-08-26T10:36:23+00:00</time>
      </trkpt>
      <trkpt lat="49.94053" lon="6.18652">
        <ele>420</ele>
        <time>2026-08-26T10:36:26+00:00</time>
      </trkpt>
      <trkpt lat="49.94061" lon="6.1869">
        <ele>412</ele>
        <time>2026-08-26T10:36:29+00:00</time>
      </trkpt>
      <trkpt lat="49.94072" lon="6.18721">
        <ele>408</ele>
        <time>2026-08-26T10:36:32+00:00</time>
      </trkpt>
      <trkpt lat="49.94103" lon="6.18794">
        <ele>393</ele>
        <time>2026-08-26T10:36:35+00:00</time>
      </trkpt>
      <trkpt lat="49.94115" lon="6.18827">
        <ele>388</ele>
        <time>2026-08-26T10:36:38+00:00</time>
      </trkpt>
      <trkpt lat="49.94128" lon="6.18861">
        <ele>382</ele>
        <time>2026-08-26T10:36:41+00:00</time>
      </trkpt>
      <trkpt lat="49.94141" lon="6.18889">
        <ele>375</ele>
        <time>2026-08-26T10:36:44+00:00</time>
      </trkpt>
      <trkpt lat="49.94157" lon="6.18936">
        <ele>367</ele>
        <time>2026-08-26T10:36:47+00:00</time>
      </trkpt>
      <trkpt lat="49.94175" lon="6.18981">
        <ele>358</ele>
        <time>2026-08-26T10:36:50+00:00</time>
      </trkpt>
      <trkpt lat="49.94189" lon="6.19023">
        <ele>354</ele>
        <time>2026-08-26T10:36:53+00:00</time>
      </trkpt>
      <trkpt lat="49.94203" lon="6.19055">
        <ele>349</ele>
        <time>2026-08-26T10:36:56+00:00</time>
      </trkpt>
      <trkpt lat="49.9422" lon="6.19107">
        <ele>341</ele>
        <time>2026-08-26T10:36:59+00:00</time>
      </trkpt>
      <trkpt lat="49.94232" lon="6.19129">
        <ele>336</ele>
        <time>2026-08-26T10:37:02+00:00</time>
      </trkpt>
      <trkpt lat="49.9425" lon="6.19179">
        <ele>326</ele>
        <time>2026-08-26T10:37:05+00:00</time>
      </trkpt>
      <trkpt lat="49.94265" lon="6.19225">
        <ele>324</ele>
        <time>2026-08-26T10:37:08+00:00</time>
      </trkpt>
      <trkpt lat="49.94271" lon="6.19235">
        <ele>321</ele>
        <time>2026-08-26T10:37:11+00:00</time>
      </trkpt>
      <trkpt lat="49.94277" lon="6.19244">
        <ele>319</ele>
        <time>2026-08-26T10:37:14+00:00</time>
      </trkpt>
      <trkpt lat="49.94293" lon="6.1926">
        <ele>319</ele>
        <time>2026-08-26T10:37:17+00:00</time>
      </trkpt>
      <trkpt lat="49.94313" lon="6.19269">
        <ele>317</ele>
        <time>2026-08-26T10:37:20+00:00</time>
      </trkpt>
      <trkpt lat="49.94332" lon="6.19276">
        <ele>315</ele>
        <time>2026-08-26T10:37:23+00:00</time>
      </trkpt>
      <trkpt lat="49.94338" lon="6.19276">
        <ele>315</ele>
        <time>2026-08-26T10:37:26+00:00</time>
      </trkpt>
      <trkpt lat="49.94393" lon="6.19304">
        <ele>314</ele>
        <time>2026-08-26T10:37:29+00:00</time>
      </trkpt>
      <trkpt lat="49.94403" lon="6.19312">
        <ele>306</ele>
        <time>2026-08-26T10:37:32+00:00</time>
      </trkpt>
      <trkpt lat="49.94405" lon="6.1931">
        <ele>304</ele>
        <time>2026-08-26T10:37:35+00:00</time>
      </trkpt>
      <trkpt lat="49.94413" lon="6.19313">
        <ele>304</ele>
        <time>2026-08-26T10:37:38+00:00</time>
      </trkpt>
      <trkpt lat="49.94444" lon="6.19308">
        <ele>300</ele>
        <time>2026-08-26T10:37:41+00:00</time>
      </trkpt>
      <trkpt lat="49.94448" lon="6.19305">
        <ele>300</ele>
        <time>2026-08-26T10:37:44+00:00</time>
      </trkpt>
      <trkpt lat="49.94476" lon="6.19309">
        <ele>296</ele>
        <time>2026-08-26T10:37:47+00:00</time>
      </trkpt>
      <trkpt lat="49.9449" lon="6.19306">
        <ele>297</ele>
        <time>2026-08-26T10:37:50+00:00</time>
      </trkpt>
      <trkpt lat="49.945" lon="6.19302">
        <ele>296</ele>
        <time>2026-08-26T10:37:53+00:00</time>
      </trkpt>
      <trkpt lat="49.94504" lon="6.19301">
        <ele>296</ele>
        <time>2026-08-26T10:37:56+00:00</time>
      </trkpt>
      <trkpt lat="49.94505" lon="6.19297">
        <ele>290</ele>
        <time>2026-08-26T10:37:59+00:00</time>
      </trkpt>
      <trkpt lat="49.94515" lon="6.19197">
        <ele>299</ele>
        <time>2026-08-26T10:38:02+00:00</time>
      </trkpt>
      <trkpt lat="49.94516" lon="6.19192">
        <ele>302</ele>
        <time>2026-08-26T10:38:05+00:00</time>
      </trkpt>
      <trkpt lat="49.94522" lon="6.19232">
        <ele>302</ele>
        <time>2026-08-26T10:38:08+00:00</time>
      </trkpt>
      <trkpt lat="49.94525" lon="6.19236">
        <ele>302</ele>
        <time>2026-08-26T10:38:11+00:00</time>
      </trkpt>
      <trkpt lat="49.94525" lon="6.19225">
        <ele>302</ele>
        <time>2026-08-26T10:38:14+00:00</time>
      </trkpt>
      <trkpt lat="49.94526" lon="6.19222">
        <ele>302</ele>
        <time>2026-08-26T10:38:17+00:00</time>
      </trkpt>
      <trkpt lat="49.94528" lon="6.19223">
        <ele>302</ele>
        <time>2026-08-26T10:38:20+00:00</time>
      </trkpt>
      <trkpt lat="49.94531" lon="6.19239">
        <ele>302</ele>
        <time>2026-08-26T10:38:23+00:00</time>
      </trkpt>
      <trkpt lat="49.94532" lon="6.19232">
        <ele>302</ele>
        <time>2026-08-26T10:38:26+00:00</time>
      </trkpt>
      <trkpt lat="49.94538" lon="6.19248">
        <ele>302</ele>
        <time>2026-08-26T10:38:29+00:00</time>
      </trkpt>
      <trkpt lat="49.9454" lon="6.19232">
        <ele>302</ele>
        <time>2026-08-26T10:38:32+00:00</time>
      </trkpt>
      <trkpt lat="49.94544" lon="6.19229">
        <ele>302</ele>
        <time>2026-08-26T10:38:35+00:00</time>
      </trkpt>
      <trkpt lat="49.94548" lon="6.19233">
        <ele>302</ele>
        <time>2026-08-26T10:38:38+00:00</time>
      </trkpt>
      <trkpt lat="49.94577" lon="6.19298">
        <ele>283</ele>
        <time>2026-08-26T10:38:41+00:00</time>
      </trkpt>
      <trkpt lat="49.9461" lon="6.19359">
        <ele>276</ele>
        <time>2026-08-26T10:38:44+00:00</time>
      </trkpt>
      <trkpt lat="49.94649" lon="6.1943">
        <ele>265</ele>
        <time>2026-08-26T10:38:47+00:00</time>
      </trkpt>
      <trkpt lat="49.94697" lon="6.19509">
        <ele>266</ele>
        <time>2026-08-26T10:38:50+00:00</time>
      </trkpt>
      <trkpt lat="49.94728" lon="6.19554">
        <ele>265</ele>
        <time>2026-08-26T10:38:53+00:00</time>
      </trkpt>
      <trkpt lat="49.94731" lon="6.19557">
        <ele>264</ele>
        <time>2026-08-26T10:38:56+00:00</time>
      </trkpt>
      <trkpt lat="49.94735" lon="6.1956">
        <ele>264</ele>
        <time>2026-08-26T10:38:59+00:00</time>
      </trkpt>
      <trkpt lat="49.94744" lon="6.19564">
        <ele>263</ele>
        <time>2026-08-26T10:39:02+00:00</time>
      </trkpt>
      <trkpt lat="49.94776" lon="6.19564">
        <ele>292</ele>
        <time>2026-08-26T10:39:05+00:00</time>
      </trkpt>
      <trkpt lat="49.94828" lon="6.1956">
        <ele>293</ele>
        <time>2026-08-26T10:39:08+00:00</time>
      </trkpt>
      <trkpt lat="49.94832" lon="6.19558">
        <ele>293</ele>
        <time>2026-08-26T10:39:11+00:00</time>
      </trkpt>
      <trkpt lat="49.94834" lon="6.19553">
        <ele>294</ele>
        <time>2026-08-26T10:39:14+00:00</time>
      </trkpt>
      <trkpt lat="49.94832" lon="6.19548">
        <ele>294</ele>
        <time>2026-08-26T10:39:17+00:00</time>
      </trkpt>
      <trkpt lat="49.94813" lon="6.19543">
        <ele>294</ele>
        <time>2026-08-26T10:39:20+00:00</time>
      </trkpt>
      <trkpt lat="49.94789" lon="6.19532">
        <ele>294</ele>
        <time>2026-08-26T10:39:23+00:00</time>
      </trkpt>
      <trkpt lat="49.94765" lon="6.19514">
        <ele>294</ele>
        <time>2026-08-26T10:39:26+00:00</time>
      </trkpt>
      <trkpt lat="49.9475" lon="6.19486">
        <ele>294</ele>
        <time>2026-08-26T10:39:29+00:00</time>
      </trkpt>
      <trkpt lat="49.94729" lon="6.19441">
        <ele>295</ele>
        <time>2026-08-26T10:39:32+00:00</time>
      </trkpt>
      <trkpt lat="49.94713" lon="6.19391">
        <ele>297</ele>
        <time>2026-08-26T10:39:35+00:00</time>
      </trkpt>
      <trkpt lat="49.94704" lon="6.19365">
        <ele>299</ele>
        <time>2026-08-26T10:39:38+00:00</time>
      </trkpt>
      <trkpt lat="49.94687" lon="6.19298">
        <ele>324</ele>
        <time>2026-08-26T10:39:41+00:00</time>
      </trkpt>
      <trkpt lat="49.94671" lon="6.19215">
        <ele>323</ele>
        <time>2026-08-26T10:39:44+00:00</time>
      </trkpt>
      <trkpt lat="49.94663" lon="6.1916">
        <ele>320</ele>
        <time>2026-08-26T10:39:47+00:00</time>
      </trkpt>
      <trkpt lat="49.94659" lon="6.19102">
        <ele>318</ele>
        <time>2026-08-26T10:39:50+00:00</time>
      </trkpt>
      <trkpt lat="49.94656" lon="6.19042">
        <ele>316</ele>
        <time>2026-08-26T10:39:53+00:00</time>
      </trkpt>
      <trkpt lat="49.94657" lon="6.19006">
        <ele>315</ele>
        <time>2026-08-26T10:39:56+00:00</time>
      </trkpt>
      <trkpt lat="49.94657" lon="6.18978">
        <ele>323</ele>
        <time>2026-08-26T10:39:59+00:00</time>
      </trkpt>
      <trkpt lat="49.94693" lon="6.1905">
        <ele>366</ele>
        <time>2026-08-26T10:40:02+00:00</time>
      </trkpt>
      <trkpt lat="49.9472" lon="6.19092">
        <ele>369</ele>
        <time>2026-08-26T10:40:05+00:00</time>
      </trkpt>
      <trkpt lat="49.94741" lon="6.1911">
        <ele>376</ele>
        <time>2026-08-26T10:40:08+00:00</time>
      </trkpt>
      <trkpt lat="49.94766" lon="6.19141">
        <ele>384</ele>
        <time>2026-08-26T10:40:11+00:00</time>
      </trkpt>
      <trkpt lat="49.94786" lon="6.19174">
        <ele>384</ele>
        <time>2026-08-26T10:40:14+00:00</time>
      </trkpt>
      <trkpt lat="49.948" lon="6.1919">
        <ele>387</ele>
        <time>2026-08-26T10:40:17+00:00</time>
      </trkpt>
      <trkpt lat="49.94809" lon="6.19196">
        <ele>387</ele>
        <time>2026-08-26T10:40:20+00:00</time>
      </trkpt>
      <trkpt lat="49.94813" lon="6.19204">
        <ele>388</ele>
        <time>2026-08-26T10:40:23+00:00</time>
      </trkpt>
      <trkpt lat="49.94834" lon="6.19219">
        <ele>391</ele>
        <time>2026-08-26T10:40:26+00:00</time>
      </trkpt>
      <trkpt lat="49.9484" lon="6.19221">
        <ele>392</ele>
        <time>2026-08-26T10:40:29+00:00</time>
      </trkpt>
      <trkpt lat="49.94845" lon="6.19219">
        <ele>393</ele>
        <time>2026-08-26T10:40:32+00:00</time>
      </trkpt>
      <trkpt lat="49.94854" lon="6.19209">
        <ele>394</ele>
        <time>2026-08-26T10:40:35+00:00</time>
      </trkpt>
      <trkpt lat="49.94856" lon="6.19202">
        <ele>395</ele>
        <time>2026-08-26T10:40:38+00:00</time>
      </trkpt>
      <trkpt lat="49.94859" lon="6.192">
        <ele>395</ele>
        <time>2026-08-26T10:40:41+00:00</time>
      </trkpt>
      <trkpt lat="49.94872" lon="6.19175">
        <ele>397</ele>
        <time>2026-08-26T10:40:44+00:00</time>
      </trkpt>
      <trkpt lat="49.94879" lon="6.19156">
        <ele>399</ele>
        <time>2026-08-26T10:40:47+00:00</time>
      </trkpt>
      <trkpt lat="49.94902" lon="6.19123">
        <ele>402</ele>
        <time>2026-08-26T10:40:50+00:00</time>
      </trkpt>
      <trkpt lat="49.94916" lon="6.19112">
        <ele>404</ele>
        <time>2026-08-26T10:40:53+00:00</time>
      </trkpt>
      <trkpt lat="49.9492" lon="6.19108">
        <ele>404</ele>
        <time>2026-08-26T10:40:56+00:00</time>
      </trkpt>
      <trkpt lat="49.94945" lon="6.19097">
        <ele>411</ele>
        <time>2026-08-26T10:40:59+00:00</time>
      </trkpt>
      <trkpt lat="49.94954" lon="6.19097">
        <ele>412</ele>
        <time>2026-08-26T10:41:02+00:00</time>
      </trkpt>
      <trkpt lat="49.94966" lon="6.19101">
        <ele>414</ele>
        <time>2026-08-26T10:41:05+00:00</time>
      </trkpt>
      <trkpt lat="49.94981" lon="6.19108">
        <ele>415</ele>
        <time>2026-08-26T10:41:08+00:00</time>
      </trkpt>
      <trkpt lat="49.94981" lon="6.19108">
        <ele>416</ele>
        <time>2026-08-26T10:41:11+00:00</time>
      </trkpt>
      <trkpt lat="49.95003" lon="6.19123">
        <ele>417</ele>
        <time>2026-08-26T10:41:14+00:00</time>
      </trkpt>
      <trkpt lat="49.95014" lon="6.19142">
        <ele>416</ele>
        <time>2026-08-26T10:41:17+00:00</time>
      </trkpt>
      <trkpt lat="49.95023" lon="6.19152">
        <ele>415</ele>
        <time>2026-08-26T10:41:20+00:00</time>
      </trkpt>
      <trkpt lat="49.95025" lon="6.1916">
        <ele>407</ele>
        <time>2026-08-26T10:41:23+00:00</time>
      </trkpt>
      <trkpt lat="49.95026" lon="6.19164">
        <ele>399</ele>
        <time>2026-08-26T10:41:26+00:00</time>
      </trkpt>
      <trkpt lat="49.95029" lon="6.19167">
        <ele>397</ele>
        <time>2026-08-26T10:41:29+00:00</time>
      </trkpt>
      <trkpt lat="49.95039" lon="6.19163">
        <ele>398</ele>
        <time>2026-08-26T10:41:32+00:00</time>
      </trkpt>
      <trkpt lat="49.95079" lon="6.19131">
        <ele>391</ele>
        <time>2026-08-26T10:41:35+00:00</time>
      </trkpt>
      <trkpt lat="49.95103" lon="6.19106">
        <ele>385</ele>
        <time>2026-08-26T10:41:38+00:00</time>
      </trkpt>
      <trkpt lat="49.95127" lon="6.19077">
        <ele>383</ele>
        <time>2026-08-26T10:41:41+00:00</time>
      </trkpt>
      <trkpt lat="49.95143" lon="6.19057">
        <ele>380</ele>
        <time>2026-08-26T10:41:44+00:00</time>
      </trkpt>
      <trkpt lat="49.95153" lon="6.19039">
        <ele>375</ele>
        <time>2026-08-26T10:41:47+00:00</time>
      </trkpt>
      <trkpt lat="49.95163" lon="6.19018">
        <ele>369</ele>
        <time>2026-08-26T10:41:50+00:00</time>
      </trkpt>
      <trkpt lat="49.95178" lon="6.18972">
        <ele>360</ele>
        <time>2026-08-26T10:41:53+00:00</time>
      </trkpt>
      <trkpt lat="49.95184" lon="6.18947">
        <ele>360</ele>
        <time>2026-08-26T10:41:56+00:00</time>
      </trkpt>
      <trkpt lat="49.95205" lon="6.18831">
        <ele>354</ele>
        <time>2026-08-26T10:41:59+00:00</time>
      </trkpt>
      <trkpt lat="49.95208" lon="6.1882">
        <ele>354</ele>
        <time>2026-08-26T10:42:02+00:00</time>
      </trkpt>
      <trkpt lat="49.95211" lon="6.18811">
        <ele>353</ele>
        <time>2026-08-26T10:42:05+00:00</time>
      </trkpt>
      <trkpt lat="49.95217" lon="6.1881">
        <ele>352</ele>
        <time>2026-08-26T10:42:08+00:00</time>
      </trkpt>
      <trkpt lat="49.95221" lon="6.18814">
        <ele>352</ele>
        <time>2026-08-26T10:42:11+00:00</time>
      </trkpt>
      <trkpt lat="49.95249" lon="6.18855">
        <ele>351</ele>
        <time>2026-08-26T10:42:14+00:00</time>
      </trkpt>
      <trkpt lat="49.95255" lon="6.18861">
        <ele>351</ele>
        <time>2026-08-26T10:42:17+00:00</time>
      </trkpt>
      <trkpt lat="49.95262" lon="6.18863">
        <ele>329</ele>
        <time>2026-08-26T10:42:20+00:00</time>
      </trkpt>
      <trkpt lat="49.95274" lon="6.18878">
        <ele>329</ele>
        <time>2026-08-26T10:42:23+00:00</time>
      </trkpt>
      <trkpt lat="49.95299" lon="6.18914">
        <ele>329</ele>
        <time>2026-08-26T10:42:26+00:00</time>
      </trkpt>
      <trkpt lat="49.95327" lon="6.18946">
        <ele>329</ele>
        <time>2026-08-26T10:42:29+00:00</time>
      </trkpt>
      <trkpt lat="49.95368" lon="6.19003">
        <ele>324</ele>
        <time>2026-08-26T10:42:32+00:00</time>
      </trkpt>
      <trkpt lat="49.95385" lon="6.19031">
        <ele>322</ele>
        <time>2026-08-26T10:42:35+00:00</time>
      </trkpt>
      <trkpt lat="49.95453" lon="6.19119">
        <ele>317</ele>
        <time>2026-08-26T10:42:38+00:00</time>
      </trkpt>
      <trkpt lat="49.95481" lon="6.19143">
        <ele>315</ele>
        <time>2026-08-26T10:42:41+00:00</time>
      </trkpt>
      <trkpt lat="49.95495" lon="6.19155">
        <ele>314</ele>
        <time>2026-08-26T10:42:44+00:00</time>
      </trkpt>
      <trkpt lat="49.95513" lon="6.19163">
        <ele>312</ele>
        <time>2026-08-26T10:42:47+00:00</time>
      </trkpt>
      <trkpt lat="49.95538" lon="6.19167">
        <ele>306</ele>
        <time>2026-08-26T10:42:50+00:00</time>
      </trkpt>
      <trkpt lat="49.95554" lon="6.19165">
        <ele>304</ele>
        <time>2026-08-26T10:42:53+00:00</time>
      </trkpt>
      <trkpt lat="49.95589" lon="6.19153">
        <ele>301</ele>
        <time>2026-08-26T10:42:56+00:00</time>
      </trkpt>
      <trkpt lat="49.95604" lon="6.19143">
        <ele>300</ele>
        <time>2026-08-26T10:42:59+00:00</time>
      </trkpt>
      <trkpt lat="49.95632" lon="6.19109">
        <ele>297</ele>
        <time>2026-08-26T10:43:02+00:00</time>
      </trkpt>
      <trkpt lat="49.95643" lon="6.19088">
        <ele>295</ele>
        <time>2026-08-26T10:43:05+00:00</time>
      </trkpt>
      <trkpt lat="49.95647" lon="6.19071">
        <ele>295</ele>
        <time>2026-08-26T10:43:08+00:00</time>
      </trkpt>
      <trkpt lat="49.95652" lon="6.19066">
        <ele>296</ele>
        <time>2026-08-26T10:43:11+00:00</time>
      </trkpt>
      <trkpt lat="49.95661" lon="6.19066">
        <ele>282</ele>
        <time>2026-08-26T10:43:14+00:00</time>
      </trkpt>
      <trkpt lat="49.95659" lon="6.19053">
        <ele>282</ele>
        <time>2026-08-26T10:43:17+00:00</time>
      </trkpt>
      <trkpt lat="49.95655" lon="6.19043">
        <ele>282</ele>
        <time>2026-08-26T10:43:20+00:00</time>
      </trkpt>
      <trkpt lat="49.95648" lon="6.19034">
        <ele>282</ele>
        <time>2026-08-26T10:43:23+00:00</time>
      </trkpt>
      <trkpt lat="49.95652" lon="6.19024">
        <ele>282</ele>
        <time>2026-08-26T10:43:26+00:00</time>
      </trkpt>
      <trkpt lat="49.95654" lon="6.1902">
        <ele>282</ele>
        <time>2026-08-26T10:43:29+00:00</time>
      </trkpt>
      <trkpt lat="49.95663" lon="6.19019">
        <ele>278</ele>
        <time>2026-08-26T10:43:32+00:00</time>
      </trkpt>
      <trkpt lat="49.95664" lon="6.19019">
        <ele>274</ele>
        <time>2026-08-26T10:43:35+00:00</time>
      </trkpt>
      <trkpt lat="49.95673" lon="6.19015">
        <ele>272</ele>
        <time>2026-08-26T10:43:38+00:00</time>
      </trkpt>
      <trkpt lat="49.95694" lon="6.19012">
        <ele>269</ele>
        <time>2026-08-26T10:43:41+00:00</time>
      </trkpt>
      <trkpt lat="49.9573" lon="6.18992">
        <ele>245</ele>
        <time>2026-08-26T10:43:44+00:00</time>
      </trkpt>
      <trkpt lat="49.95739" lon="6.18982">
        <ele>256</ele>
        <time>2026-08-26T10:43:47+00:00</time>
      </trkpt>
      <trkpt lat="49.95747" lon="6.1897">
        <ele>255</ele>
        <time>2026-08-26T10:43:50+00:00</time>
      </trkpt>
      <trkpt lat="49.95753" lon="6.18968">
        <ele>257</ele>
        <time>2026-08-26T10:43:53+00:00</time>
      </trkpt>
      <trkpt lat="49.95757" lon="6.18959">
        <ele>261</ele>
        <time>2026-08-26T10:43:56+00:00</time>
      </trkpt>
      <trkpt lat="49.9576" lon="6.18959">
        <ele>273</ele>
        <time>2026-08-26T10:43:59+00:00</time>
      </trkpt>
      <trkpt lat="49.95763" lon="6.18959">
        <ele>273</ele>
        <time>2026-08-26T10:44:02+00:00</time>
      </trkpt>
      <trkpt lat="49.95763" lon="6.18956">
        <ele>273</ele>
        <time>2026-08-26T10:44:05+00:00</time>
      </trkpt>
      <trkpt lat="49.95768" lon="6.18955">
        <ele>273</ele>
        <time>2026-08-26T10:44:08+00:00</time>
      </trkpt>
      <trkpt lat="49.95774" lon="6.18949">
        <ele>273</ele>
        <time>2026-08-26T10:44:11+00:00</time>
      </trkpt>
      <trkpt lat="49.95779" lon="6.18942">
        <ele>273</ele>
        <time>2026-08-26T10:44:14+00:00</time>
      </trkpt>
      <trkpt lat="49.95779" lon="6.18939">
        <ele>273</ele>
        <time>2026-08-26T10:44:17+00:00</time>
      </trkpt>
      <trkpt lat="49.9578" lon="6.18939">
        <ele>273</ele>
        <time>2026-08-26T10:44:20+00:00</time>
      </trkpt>
      <trkpt lat="49.95783" lon="6.18937">
        <ele>273</ele>
        <time>2026-08-26T10:44:23+00:00</time>
      </trkpt>
      <trkpt lat="49.95784" lon="6.18939">
        <ele>273</ele>
        <time>2026-08-26T10:44:26+00:00</time>
      </trkpt>
      <trkpt lat="49.95788" lon="6.18935">
        <ele>273</ele>
        <time>2026-08-26T10:44:29+00:00</time>
      </trkpt>
      <trkpt lat="49.9579" lon="6.18931">
        <ele>269</ele>
        <time>2026-08-26T10:44:32+00:00</time>
      </trkpt>
      <trkpt lat="49.95801" lon="6.18925">
        <ele>269</ele>
        <time>2026-08-26T10:44:35+00:00</time>
      </trkpt>
      <trkpt lat="49.95798" lon="6.18918">
        <ele>268</ele>
        <time>2026-08-26T10:44:38+00:00</time>
      </trkpt>
      <trkpt lat="49.95799" lon="6.1891">
        <ele>267</ele>
        <time>2026-08-26T10:44:41+00:00</time>
      </trkpt>
      <trkpt lat="49.95807" lon="6.18893">
        <ele>263</ele>
        <time>2026-08-26T10:44:44+00:00</time>
      </trkpt>
      <trkpt lat="49.95805" lon="6.18866">
        <ele>276</ele>
        <time>2026-08-26T10:44:47+00:00</time>
      </trkpt>
      <trkpt lat="49.95807" lon="6.18861">
        <ele>277</ele>
        <time>2026-08-26T10:44:50+00:00</time>
      </trkpt>
      <trkpt lat="49.9581" lon="6.18871">
        <ele>278</ele>
        <time>2026-08-26T10:44:53+00:00</time>
      </trkpt>
      <trkpt lat="49.95812" lon="6.18863">
        <ele>278</ele>
        <time>2026-08-26T10:44:56+00:00</time>
      </trkpt>
      <trkpt lat="49.9582" lon="6.18853">
        <ele>279</ele>
        <time>2026-08-26T10:44:59+00:00</time>
      </trkpt>
      <trkpt lat="49.95819" lon="6.18865">
        <ele>281</ele>
        <time>2026-08-26T10:45:02+00:00</time>
      </trkpt>
      <trkpt lat="49.95822" lon="6.18868">
        <ele>283</ele>
        <time>2026-08-26T10:45:05+00:00</time>
      </trkpt>
      <trkpt lat="49.95828" lon="6.18859">
        <ele>284</ele>
        <time>2026-08-26T10:45:08+00:00</time>
      </trkpt>
      <trkpt lat="49.95835" lon="6.18856">
        <ele>285</ele>
        <time>2026-08-26T10:45:11+00:00</time>
      </trkpt>
      <trkpt lat="49.95839" lon="6.18852">
        <ele>284</ele>
        <time>2026-08-26T10:45:14+00:00</time>
      </trkpt>
      <trkpt lat="49.95846" lon="6.18841">
        <ele>283</ele>
        <time>2026-08-26T10:45:17+00:00</time>
      </trkpt>
      <trkpt lat="49.95857" lon="6.18829">
        <ele>282</ele>
        <time>2026-08-26T10:45:20+00:00</time>
      </trkpt>
      <trkpt lat="49.95866" lon="6.18826">
        <ele>282</ele>
        <time>2026-08-26T10:45:23+00:00</time>
      </trkpt>
      <trkpt lat="49.95883" lon="6.18829">
        <ele>282</ele>
        <time>2026-08-26T10:45:26+00:00</time>
      </trkpt>
      <trkpt lat="49.95903" lon="6.18836">
        <ele>293</ele>
        <time>2026-08-26T10:45:29+00:00</time>
      </trkpt>
      <trkpt lat="49.95904" lon="6.18837">
        <ele>304</ele>
        <time>2026-08-26T10:45:32+00:00</time>
      </trkpt>
      <trkpt lat="49.95904" lon="6.18829">
        <ele>267</ele>
        <time>2026-08-26T10:45:35+00:00</time>
      </trkpt>
      <trkpt lat="49.959" lon="6.18822">
        <ele>266</ele>
        <time>2026-08-26T10:45:38+00:00</time>
      </trkpt>
      <trkpt lat="49.95876" lon="6.18795">
        <ele>264</ele>
        <time>2026-08-26T10:45:41+00:00</time>
      </trkpt>
      <trkpt lat="49.95867" lon="6.18782">
        <ele>263</ele>
        <time>2026-08-26T10:45:44+00:00</time>
      </trkpt>
      <trkpt lat="49.9586" lon="6.18767">
        <ele>262</ele>
        <time>2026-08-26T10:45:47+00:00</time>
      </trkpt>
      <trkpt lat="49.95867" lon="6.18768">
        <ele>261</ele>
        <time>2026-08-26T10:45:50+00:00</time>
      </trkpt>
      <trkpt lat="49.95861" lon="6.18756">
        <ele>260</ele>
        <time>2026-08-26T10:45:53+00:00</time>
      </trkpt>
      <trkpt lat="49.95849" lon="6.18743">
        <ele>259</ele>
        <time>2026-08-26T10:45:56+00:00</time>
      </trkpt>
      <trkpt lat="49.95852" lon="6.18742">
        <ele>260</ele>
        <time>2026-08-26T10:45:59+00:00</time>
      </trkpt>
      <trkpt lat="49.95855" lon="6.18745">
        <ele>260</ele>
        <time>2026-08-26T10:46:02+00:00</time>
      </trkpt>
      <trkpt lat="49.95867" lon="6.18741">
        <ele>260</ele>
        <time>2026-08-26T10:46:05+00:00</time>
      </trkpt>
      <trkpt lat="49.9588" lon="6.18726">
        <ele>261</ele>
        <time>2026-08-26T10:46:08+00:00</time>
      </trkpt>
      <trkpt lat="49.9589" lon="6.18707">
        <ele>261</ele>
        <time>2026-08-26T10:46:11+00:00</time>
      </trkpt>
      <trkpt lat="49.95891" lon="6.187">
        <ele>261</ele>
        <time>2026-08-26T10:46:14+00:00</time>
      </trkpt>
      <trkpt lat="49.95913" lon="6.18658">
        <ele>261</ele>
        <time>2026-08-26T10:46:17+00:00</time>
      </trkpt>
      <trkpt lat="49.95928" lon="6.18635">
        <ele>262</ele>
        <time>2026-08-26T10:46:20+00:00</time>
      </trkpt>
      <trkpt lat="49.96019" lon="6.18525">
        <ele>255</ele>
        <time>2026-08-26T10:46:23+00:00</time>
      </trkpt>
      <trkpt lat="49.96037" lon="6.18504">
        <ele>248</ele>
        <time>2026-08-26T10:46:26+00:00</time>
      </trkpt>
      <trkpt lat="49.961" lon="6.18446">
        <ele>243</ele>
        <time>2026-08-26T10:46:29+00:00</time>
      </trkpt>
      <trkpt lat="49.96103" lon="6.18441">
        <ele>244</ele>
        <time>2026-08-26T10:46:32+00:00</time>
      </trkpt>
      <trkpt lat="49.96103" lon="6.18438">
        <ele>240</ele>
        <time>2026-08-26T10:46:35+00:00</time>
      </trkpt>
      <trkpt lat="49.96085" lon="6.18451">
        <ele>237</ele>
        <time>2026-08-26T10:46:38+00:00</time>
      </trkpt>
      <trkpt lat="49.9602" lon="6.18471">
        <ele>236</ele>
        <time>2026-08-26T10:46:41+00:00</time>
      </trkpt>
      <trkpt lat="49.96005" lon="6.18473">
        <ele>236</ele>
        <time>2026-08-26T10:46:44+00:00</time>
      </trkpt>
      <trkpt lat="49.95977" lon="6.1847">
        <ele>236</ele>
        <time>2026-08-26T10:46:47+00:00</time>
      </trkpt>
      <trkpt lat="49.95966" lon="6.18473">
        <ele>235</ele>
        <time>2026-08-26T10:46:50+00:00</time>
      </trkpt>
      <trkpt lat="49.95894" lon="6.1854">
        <ele>234</ele>
        <time>2026-08-26T10:46:53+00:00</time>
      </trkpt>
      <trkpt lat="49.95806" lon="6.18622">
        <ele>233</ele>
        <time>2026-08-26T10:46:56+00:00</time>
      </trkpt>
      <trkpt lat="49.95768" lon="6.18646">
        <ele>234</ele>
        <time>2026-08-26T10:46:59+00:00</time>
      </trkpt>
      <trkpt lat="49.95759" lon="6.18656">
        <ele>234</ele>
        <time>2026-08-26T10:47:02+00:00</time>
      </trkpt>
      <trkpt lat="49.95752" lon="6.18668">
        <ele>234</ele>
        <time>2026-08-26T10:47:05+00:00</time>
      </trkpt>
      <trkpt lat="49.95747" lon="6.18689">
        <ele>234</ele>
        <time>2026-08-26T10:47:08+00:00</time>
      </trkpt>
      <trkpt lat="49.95742" lon="6.18697">
        <ele>234</ele>
        <time>2026-08-26T10:47:11+00:00</time>
      </trkpt>
      <trkpt lat="49.95739" lon="6.18706">
        <ele>234</ele>
        <time>2026-08-26T10:47:14+00:00</time>
      </trkpt>
      <trkpt lat="49.95737" lon="6.18719">
        <ele>234</ele>
        <time>2026-08-26T10:47:17+00:00</time>
      </trkpt>
      <trkpt lat="49.95733" lon="6.18728">
        <ele>234</ele>
        <time>2026-08-26T10:47:20+00:00</time>
      </trkpt>
      <trkpt lat="49.95733" lon="6.1875">
        <ele>234</ele>
        <time>2026-08-26T10:47:23+00:00</time>
      </trkpt>
      <trkpt lat="49.95729" lon="6.1877">
        <ele>234</ele>
        <time>2026-08-26T10:47:26+00:00</time>
      </trkpt>
      <trkpt lat="49.9572" lon="6.18797">
        <ele>234</ele>
        <time>2026-08-26T10:47:29+00:00</time>
      </trkpt>
      <trkpt lat="49.95718" lon="6.18814">
        <ele>234</ele>
        <time>2026-08-26T10:47:32+00:00</time>
      </trkpt>
      <trkpt lat="49.95718" lon="6.1884">
        <ele>234</ele>
        <time>2026-08-26T10:47:35+00:00</time>
      </trkpt>
      <trkpt lat="49.9572" lon="6.18855">
        <ele>234</ele>
        <time>2026-08-26T10:47:38+00:00</time>
      </trkpt>
      <trkpt lat="49.95719" lon="6.18867">
        <ele>234</ele>
        <time>2026-08-26T10:47:41+00:00</time>
      </trkpt>
      <trkpt lat="49.95716" lon="6.18872">
        <ele>234</ele>
        <time>2026-08-26T10:47:44+00:00</time>
      </trkpt>
      <trkpt lat="49.95716" lon="6.18882">
        <ele>234</ele>
        <time>2026-08-26T10:47:47+00:00</time>
      </trkpt>
      <trkpt lat="49.95711" lon="6.18893">
        <ele>235</ele>
        <time>2026-08-26T10:47:50+00:00</time>
      </trkpt>
      <trkpt lat="49.957" lon="6.18902">
        <ele>236</ele>
        <time>2026-08-26T10:47:53+00:00</time>
      </trkpt>
      <trkpt lat="49.95679" lon="6.18911">
        <ele>236</ele>
        <time>2026-08-26T10:47:56+00:00</time>
      </trkpt>
      <trkpt lat="49.95661" lon="6.18914">
        <ele>236</ele>
        <time>2026-08-26T10:47:59+00:00</time>
      </trkpt>
      <trkpt lat="49.95639" lon="6.1891">
        <ele>236</ele>
        <time>2026-08-26T10:48:02+00:00</time>
      </trkpt>
      <trkpt lat="49.95622" lon="6.18903">
        <ele>236</ele>
        <time>2026-08-26T10:48:05+00:00</time>
      </trkpt>
      <trkpt lat="49.95601" lon="6.18888">
        <ele>237</ele>
        <time>2026-08-26T10:48:08+00:00</time>
      </trkpt>
      <trkpt lat="49.95582" lon="6.18867">
        <ele>237</ele>
        <time>2026-08-26T10:48:11+00:00</time>
      </trkpt>
      <trkpt lat="49.95549" lon="6.18822">
        <ele>237</ele>
        <time>2026-08-26T10:48:14+00:00</time>
      </trkpt>
      <trkpt lat="49.95487" lon="6.18729">
        <ele>242</ele>
        <time>2026-08-26T10:48:17+00:00</time>
      </trkpt>
      <trkpt lat="49.95392" lon="6.18597">
        <ele>254</ele>
        <time>2026-08-26T10:48:20+00:00</time>
      </trkpt>
      <trkpt lat="49.9535" lon="6.18507">
        <ele>259</ele>
        <time>2026-08-26T10:48:23+00:00</time>
      </trkpt>
      <trkpt lat="49.95327" lon="6.18443">
        <ele>258</ele>
        <time>2026-08-26T10:48:26+00:00</time>
      </trkpt>
      <trkpt lat="49.95275" lon="6.18266">
        <ele>261</ele>
        <time>2026-08-26T10:48:29+00:00</time>
      </trkpt>
      <trkpt lat="49.95236" lon="6.18138">
        <ele>264</ele>
        <time>2026-08-26T10:48:32+00:00</time>
      </trkpt>
      <trkpt lat="49.95207" lon="6.18052">
        <ele>266</ele>
        <time>2026-08-26T10:48:35+00:00</time>
      </trkpt>
      <trkpt lat="49.95203" lon="6.18028">
        <ele>272</ele>
        <time>2026-08-26T10:48:38+00:00</time>
      </trkpt>
      <trkpt lat="49.95202" lon="6.18001">
        <ele>273</ele>
        <time>2026-08-26T10:48:41+00:00</time>
      </trkpt>
      <trkpt lat="49.95203" lon="6.17976">
        <ele>275</ele>
        <time>2026-08-26T10:48:44+00:00</time>
      </trkpt>
      <trkpt lat="49.95207" lon="6.17951">
        <ele>275</ele>
        <time>2026-08-26T10:48:47+00:00</time>
      </trkpt>
      <trkpt lat="49.95244" lon="6.17865">
        <ele>296</ele>
        <time>2026-08-26T10:48:50+00:00</time>
      </trkpt>
      <trkpt lat="49.95263" lon="6.17824">
        <ele>266</ele>
        <time>2026-08-26T10:48:53+00:00</time>
      </trkpt>
      <trkpt lat="49.9529" lon="6.17769">
        <ele>265</ele>
        <time>2026-08-26T10:48:56+00:00</time>
      </trkpt>
      <trkpt lat="49.95331" lon="6.17718">
        <ele>265</ele>
        <time>2026-08-26T10:48:59+00:00</time>
      </trkpt>
      <trkpt lat="49.9534" lon="6.17713">
        <ele>242</ele>
        <time>2026-08-26T10:49:02+00:00</time>
      </trkpt>
      <trkpt lat="49.95345" lon="6.1771">
        <ele>242</ele>
        <time>2026-08-26T10:49:05+00:00</time>
      </trkpt>
      <trkpt lat="49.95344" lon="6.17707">
        <ele>242</ele>
        <time>2026-08-26T10:49:08+00:00</time>
      </trkpt>
      <trkpt lat="49.95345" lon="6.1771">
        <ele>242</ele>
        <time>2026-08-26T10:49:11+00:00</time>
      </trkpt>
      <trkpt lat="49.95365" lon="6.17701">
        <ele>242</ele>
        <time>2026-08-26T10:49:14+00:00</time>
      </trkpt>
      <trkpt lat="49.95364" lon="6.17693">
        <ele>242</ele>
        <time>2026-08-26T10:49:17+00:00</time>
      </trkpt>
      <trkpt lat="49.95399" lon="6.17684">
        <ele>242</ele>
        <time>2026-08-26T10:49:20+00:00</time>
      </trkpt>
      <trkpt lat="49.95408" lon="6.17682">
        <ele>242</ele>
        <time>2026-08-26T10:49:23+00:00</time>
      </trkpt>
      <trkpt lat="49.95424" lon="6.17678">
        <ele>230</ele>
        <time>2026-08-26T10:49:26+00:00</time>
      </trkpt>
      <trkpt lat="49.95457" lon="6.17671">
        <ele>230</ele>
        <time>2026-08-26T10:49:29+00:00</time>
      </trkpt>
      <trkpt lat="49.95509" lon="6.1766">
        <ele>239</ele>
        <time>2026-08-26T10:49:32+00:00</time>
      </trkpt>
      <trkpt lat="49.9551" lon="6.17667">
        <ele>231</ele>
        <time>2026-08-26T10:49:35+00:00</time>
      </trkpt>
      <trkpt lat="49.95517" lon="6.17666">
        <ele>239</ele>
        <time>2026-08-26T10:49:38+00:00</time>
      </trkpt>
      <trkpt lat="49.95635" lon="6.17643">
        <ele>240</ele>
        <time>2026-08-26T10:49:41+00:00</time>
      </trkpt>
      <trkpt lat="49.958" lon="6.17627">
        <ele>241</ele>
        <time>2026-08-26T10:49:44+00:00</time>
      </trkpt>
      <trkpt lat="49.95825" lon="6.17624">
        <ele>241</ele>
        <time>2026-08-26T10:49:47+00:00</time>
      </trkpt>
      <trkpt lat="49.95838" lon="6.17622">
        <ele>241</ele>
        <time>2026-08-26T10:49:50+00:00</time>
      </trkpt>
      <trkpt lat="49.95895" lon="6.17605">
        <ele>241</ele>
        <time>2026-08-26T10:49:53+00:00</time>
      </trkpt>
      <trkpt lat="49.95966" lon="6.17579">
        <ele>247</ele>
        <time>2026-08-26T10:49:56+00:00</time>
      </trkpt>
      <trkpt lat="49.96007" lon="6.1757">
        <ele>256</ele>
        <time>2026-08-26T10:49:59+00:00</time>
      </trkpt>
      <trkpt lat="49.96042" lon="6.17567">
        <ele>259</ele>
        <time>2026-08-26T10:50:02+00:00</time>
      </trkpt>
      <trkpt lat="49.96108" lon="6.1757">
        <ele>267</ele>
        <time>2026-08-26T10:50:05+00:00</time>
      </trkpt>
      <trkpt lat="49.96136" lon="6.17571">
        <ele>263</ele>
        <time>2026-08-26T10:50:08+00:00</time>
      </trkpt>
      <trkpt lat="49.96147" lon="6.17567">
        <ele>263</ele>
        <time>2026-08-26T10:50:11+00:00</time>
      </trkpt>
      <trkpt lat="49.9615" lon="6.17565">
        <ele>264</ele>
        <time>2026-08-26T10:50:14+00:00</time>
      </trkpt>
      <trkpt lat="49.96164" lon="6.17553">
        <ele>264</ele>
        <time>2026-08-26T10:50:17+00:00</time>
      </trkpt>
      <trkpt lat="49.96176" lon="6.17527">
        <ele>261</ele>
        <time>2026-08-26T10:50:20+00:00</time>
      </trkpt>
      <trkpt lat="49.96183" lon="6.17495">
        <ele>260</ele>
        <time>2026-08-26T10:50:23+00:00</time>
      </trkpt>
      <trkpt lat="49.96197" lon="6.17418">
        <ele>263</ele>
        <time>2026-08-26T10:50:26+00:00</time>
      </trkpt>
      <trkpt lat="49.96203" lon="6.17366">
        <ele>263</ele>
        <time>2026-08-26T10:50:29+00:00</time>
      </trkpt>
      <trkpt lat="49.96206" lon="6.17275">
        <ele>274</ele>
        <time>2026-08-26T10:50:32+00:00</time>
      </trkpt>
      <trkpt lat="49.96214" lon="6.17227">
        <ele>276</ele>
        <time>2026-08-26T10:50:35+00:00</time>
      </trkpt>
      <trkpt lat="49.96247" lon="6.17101">
        <ele>276</ele>
        <time>2026-08-26T10:50:38+00:00</time>
      </trkpt>
      <trkpt lat="49.96254" lon="6.1708">
        <ele>275</ele>
        <time>2026-08-26T10:50:41+00:00</time>
      </trkpt>
      <trkpt lat="49.96265" lon="6.17054">
        <ele>272</ele>
        <time>2026-08-26T10:50:44+00:00</time>
      </trkpt>
      <trkpt lat="49.96267" lon="6.1705">
        <ele>270</ele>
        <time>2026-08-26T10:50:47+00:00</time>
      </trkpt>
      <trkpt lat="49.96299" lon="6.17002">
        <ele>266</ele>
        <time>2026-08-26T10:50:50+00:00</time>
      </trkpt>
      <trkpt lat="49.96299" lon="6.16994">
        <ele>261</ele>
        <time>2026-08-26T10:50:53+00:00</time>
      </trkpt>
      <trkpt lat="49.9631" lon="6.16979">
        <ele>261</ele>
        <time>2026-08-26T10:50:56+00:00</time>
      </trkpt>
      <trkpt lat="49.96324" lon="6.16959">
        <ele>261</ele>
        <time>2026-08-26T10:50:59+00:00</time>
      </trkpt>
      <trkpt lat="49.96322" lon="6.16956">
        <ele>261</ele>
        <time>2026-08-26T10:51:02+00:00</time>
      </trkpt>
      <trkpt lat="49.96304" lon="6.16928">
        <ele>261</ele>
        <time>2026-08-26T10:51:05+00:00</time>
      </trkpt>
      <trkpt lat="49.96302" lon="6.16925">
        <ele>265</ele>
        <time>2026-08-26T10:51:08+00:00</time>
      </trkpt>
      <trkpt lat="49.96268" lon="6.16874">
        <ele>269</ele>
        <time>2026-08-26T10:51:11+00:00</time>
      </trkpt>
      <trkpt lat="49.96231" lon="6.16814">
        <ele>273</ele>
        <time>2026-08-26T10:51:14+00:00</time>
      </trkpt>
      <trkpt lat="49.96165" lon="6.16723">
        <ele>278</ele>
        <time>2026-08-26T10:51:17+00:00</time>
      </trkpt>
      <trkpt lat="49.96153" lon="6.16711">
        <ele>278</ele>
        <time>2026-08-26T10:51:20+00:00</time>
      </trkpt>
      <trkpt lat="49.96131" lon="6.16703">
        <ele>280</ele>
        <time>2026-08-26T10:51:23+00:00</time>
      </trkpt>
      <trkpt lat="49.96131" lon="6.16716">
        <ele>277</ele>
        <time>2026-08-26T10:51:26+00:00</time>
      </trkpt>
      <trkpt lat="49.96143" lon="6.1673">
        <ele>277</ele>
        <time>2026-08-26T10:51:29+00:00</time>
      </trkpt>
      <trkpt lat="49.96164" lon="6.16769">
        <ele>281</ele>
        <time>2026-08-26T10:51:32+00:00</time>
      </trkpt>
      <trkpt lat="49.96171" lon="6.16786">
        <ele>284</ele>
        <time>2026-08-26T10:51:35+00:00</time>
      </trkpt>
      <trkpt lat="49.96192" lon="6.16858">
        <ele>293</ele>
        <time>2026-08-26T10:51:38+00:00</time>
      </trkpt>
      <trkpt lat="49.96217" lon="6.16951">
        <ele>307</ele>
        <time>2026-08-26T10:51:41+00:00</time>
      </trkpt>
      <trkpt lat="49.96217" lon="6.16966">
        <ele>308</ele>
        <time>2026-08-26T10:51:44+00:00</time>
      </trkpt>
      <trkpt lat="49.96209" lon="6.16983">
        <ele>308</ele>
        <time>2026-08-26T10:51:47+00:00</time>
      </trkpt>
      <trkpt lat="49.96203" lon="6.17009">
        <ele>310</ele>
        <time>2026-08-26T10:51:50+00:00</time>
      </trkpt>
      <trkpt lat="49.96199" lon="6.17015">
        <ele>311</ele>
        <time>2026-08-26T10:51:53+00:00</time>
      </trkpt>
      <trkpt lat="49.96187" lon="6.17025">
        <ele>311</ele>
        <time>2026-08-26T10:51:56+00:00</time>
      </trkpt>
      <trkpt lat="49.96159" lon="6.17054">
        <ele>313</ele>
        <time>2026-08-26T10:51:59+00:00</time>
      </trkpt>
      <trkpt lat="49.96153" lon="6.17064">
        <ele>313</ele>
        <time>2026-08-26T10:52:02+00:00</time>
      </trkpt>
      <trkpt lat="49.96154" lon="6.17074">
        <ele>312</ele>
        <time>2026-08-26T10:52:05+00:00</time>
      </trkpt>
      <trkpt lat="49.96159" lon="6.17079">
        <ele>311</ele>
        <time>2026-08-26T10:52:08+00:00</time>
      </trkpt>
      <trkpt lat="49.96161" lon="6.17085">
        <ele>310</ele>
        <time>2026-08-26T10:52:11+00:00</time>
      </trkpt>
      <trkpt lat="49.96161" lon="6.17089">
        <ele>310</ele>
        <time>2026-08-26T10:52:14+00:00</time>
      </trkpt>
      <trkpt lat="49.96154" lon="6.17095">
        <ele>310</ele>
        <time>2026-08-26T10:52:17+00:00</time>
      </trkpt>
      <trkpt lat="49.96147" lon="6.17098">
        <ele>311</ele>
        <time>2026-08-26T10:52:20+00:00</time>
      </trkpt>
      <trkpt lat="49.96143" lon="6.17099">
        <ele>313</ele>
        <time>2026-08-26T10:52:23+00:00</time>
      </trkpt>
      <trkpt lat="49.9614" lon="6.17111">
        <ele>313</ele>
        <time>2026-08-26T10:52:26+00:00</time>
      </trkpt>
      <trkpt lat="49.96134" lon="6.17117">
        <ele>313</ele>
        <time>2026-08-26T10:52:29+00:00</time>
      </trkpt>
      <trkpt lat="49.96128" lon="6.17118">
        <ele>313</ele>
        <time>2026-08-26T10:52:32+00:00</time>
      </trkpt>
      <trkpt lat="49.96123" lon="6.17114">
        <ele>313</ele>
        <time>2026-08-26T10:52:35+00:00</time>
      </trkpt>
      <trkpt lat="49.9611" lon="6.17093">
        <ele>313</ele>
        <time>2026-08-26T10:52:38+00:00</time>
      </trkpt>
      <trkpt lat="49.96113" lon="6.17049">
        <ele>329</ele>
        <time>2026-08-26T10:52:41+00:00</time>
      </trkpt>
      <trkpt lat="49.96116" lon="6.17029">
        <ele>328</ele>
        <time>2026-08-26T10:52:44+00:00</time>
      </trkpt>
      <trkpt lat="49.96121" lon="6.17008">
        <ele>328</ele>
        <time>2026-08-26T10:52:47+00:00</time>
      </trkpt>
      <trkpt lat="49.9613" lon="6.16982">
        <ele>328</ele>
        <time>2026-08-26T10:52:50+00:00</time>
      </trkpt>
      <trkpt lat="49.96147" lon="6.16948">
        <ele>329</ele>
        <time>2026-08-26T10:52:53+00:00</time>
      </trkpt>
      <trkpt lat="49.96147" lon="6.16943">
        <ele>329</ele>
        <time>2026-08-26T10:52:56+00:00</time>
      </trkpt>
      <trkpt lat="49.96146" lon="6.16942">
        <ele>329</ele>
        <time>2026-08-26T10:52:59+00:00</time>
      </trkpt>
      <trkpt lat="49.96144" lon="6.16939">
        <ele>329</ele>
        <time>2026-08-26T10:53:02+00:00</time>
      </trkpt>
      <trkpt lat="49.9614" lon="6.16939">
        <ele>329</ele>
        <time>2026-08-26T10:53:05+00:00</time>
      </trkpt>
      <trkpt lat="49.96124" lon="6.16968">
        <ele>330</ele>
        <time>2026-08-26T10:53:08+00:00</time>
      </trkpt>
      <trkpt lat="49.96113" lon="6.1698">
        <ele>330</ele>
        <time>2026-08-26T10:53:11+00:00</time>
      </trkpt>
      <trkpt lat="49.96101" lon="6.16986">
        <ele>331</ele>
        <time>2026-08-26T10:53:14+00:00</time>
      </trkpt>
      <trkpt lat="49.96077" lon="6.16984">
        <ele>331</ele>
        <time>2026-08-26T10:53:17+00:00</time>
      </trkpt>
      <trkpt lat="49.96055" lon="6.16972">
        <ele>331</ele>
        <time>2026-08-26T10:53:20+00:00</time>
      </trkpt>
      <trkpt lat="49.95985" lon="6.16906">
        <ele>342</ele>
        <time>2026-08-26T10:53:23+00:00</time>
      </trkpt>
      <trkpt lat="49.95957" lon="6.16882">
        <ele>350</ele>
        <time>2026-08-26T10:53:26+00:00</time>
      </trkpt>
      <trkpt lat="49.95944" lon="6.16877">
        <ele>351</ele>
        <time>2026-08-26T10:53:29+00:00</time>
      </trkpt>
      <trkpt lat="49.95897" lon="6.16874">
        <ele>352</ele>
        <time>2026-08-26T10:53:32+00:00</time>
      </trkpt>
      <trkpt lat="49.95879" lon="6.16869">
        <ele>352</ele>
        <time>2026-08-26T10:53:35+00:00</time>
      </trkpt>
      <trkpt lat="49.9585" lon="6.16866">
        <ele>355</ele>
        <time>2026-08-26T10:53:38+00:00</time>
      </trkpt>
      <trkpt lat="49.95829" lon="6.16877">
        <ele>357</ele>
        <time>2026-08-26T10:53:41+00:00</time>
      </trkpt>
      <trkpt lat="49.95815" lon="6.16888">
        <ele>358</ele>
        <time>2026-08-26T10:53:44+00:00</time>
      </trkpt>
      <trkpt lat="49.95814" lon="6.16889">
        <ele>358</ele>
        <time>2026-08-26T10:53:47+00:00</time>
      </trkpt>
      <trkpt lat="49.95808" lon="6.16887">
        <ele>360</ele>
        <time>2026-08-26T10:53:50+00:00</time>
      </trkpt>
      <trkpt lat="49.95808" lon="6.16882">
        <ele>361</ele>
        <time>2026-08-26T10:53:53+00:00</time>
      </trkpt>
      <trkpt lat="49.95809" lon="6.16877">
        <ele>361</ele>
        <time>2026-08-26T10:53:56+00:00</time>
      </trkpt>
      <trkpt lat="49.95835" lon="6.16855">
        <ele>361</ele>
        <time>2026-08-26T10:53:59+00:00</time>
      </trkpt>
      <trkpt lat="49.95866" lon="6.16837">
        <ele>362</ele>
        <time>2026-08-26T10:54:02+00:00</time>
      </trkpt>
      <trkpt lat="49.95872" lon="6.16829">
        <ele>362</ele>
        <time>2026-08-26T10:54:05+00:00</time>
      </trkpt>
      <trkpt lat="49.95874" lon="6.1682">
        <ele>364</ele>
        <time>2026-08-26T10:54:08+00:00</time>
      </trkpt>
      <trkpt lat="49.95851" lon="6.16811">
        <ele>364</ele>
        <time>2026-08-26T10:54:11+00:00</time>
      </trkpt>
      <trkpt lat="49.95841" lon="6.16803">
        <ele>364</ele>
        <time>2026-08-26T10:54:14+00:00</time>
      </trkpt>
      <trkpt lat="49.95826" lon="6.16791">
        <ele>370</ele>
        <time>2026-08-26T10:54:17+00:00</time>
      </trkpt>
      <trkpt lat="49.95818" lon="6.16779">
        <ele>370</ele>
        <time>2026-08-26T10:54:20+00:00</time>
      </trkpt>
      <trkpt lat="49.95806" lon="6.16765">
        <ele>375</ele>
        <time>2026-08-26T10:54:23+00:00</time>
      </trkpt>
      <trkpt lat="49.95788" lon="6.16742">
        <ele>389</ele>
        <time>2026-08-26T10:54:26+00:00</time>
      </trkpt>
      <trkpt lat="49.95718" lon="6.16652">
        <ele>404</ele>
        <time>2026-08-26T10:54:29+00:00</time>
      </trkpt>
      <trkpt lat="49.95704" lon="6.16632">
        <ele>404</ele>
        <time>2026-08-26T10:54:32+00:00</time>
      </trkpt>
      <trkpt lat="49.95698" lon="6.16619">
        <ele>404</ele>
        <time>2026-08-26T10:54:35+00:00</time>
      </trkpt>
      <trkpt lat="49.95679" lon="6.16566">
        <ele>403</ele>
        <time>2026-08-26T10:54:38+00:00</time>
      </trkpt>
      <trkpt lat="49.95666" lon="6.16541">
        <ele>404</ele>
        <time>2026-08-26T10:54:41+00:00</time>
      </trkpt>
      <trkpt lat="49.95643" lon="6.16508">
        <ele>404</ele>
        <time>2026-08-26T10:54:44+00:00</time>
      </trkpt>
      <trkpt lat="49.95562" lon="6.1643">
        <ele>405</ele>
        <time>2026-08-26T10:54:47+00:00</time>
      </trkpt>
      <trkpt lat="49.95506" lon="6.16394">
        <ele>408</ele>
        <time>2026-08-26T10:54:50+00:00</time>
      </trkpt>
      <trkpt lat="49.95496" lon="6.16391">
        <ele>412</ele>
        <time>2026-08-26T10:54:53+00:00</time>
      </trkpt>
      <trkpt lat="49.95478" lon="6.16375">
        <ele>412</ele>
        <time>2026-08-26T10:54:56+00:00</time>
      </trkpt>
      <trkpt lat="49.95435" lon="6.16319">
        <ele>419</ele>
        <time>2026-08-26T10:54:59+00:00</time>
      </trkpt>
      <trkpt lat="49.95402" lon="6.16281">
        <ele>425</ele>
        <time>2026-08-26T10:55:02+00:00</time>
      </trkpt>
      <trkpt lat="49.95393" lon="6.16269">
        <ele>426</ele>
        <time>2026-08-26T10:55:05+00:00</time>
      </trkpt>
      <trkpt lat="49.95392" lon="6.16263">
        <ele>431</ele>
        <time>2026-08-26T10:55:08+00:00</time>
      </trkpt>
      <trkpt lat="49.95391" lon="6.16245">
        <ele>443</ele>
        <time>2026-08-26T10:55:11+00:00</time>
      </trkpt>
      <trkpt lat="49.95388" lon="6.1623">
        <ele>443</ele>
        <time>2026-08-26T10:55:14+00:00</time>
      </trkpt>
      <trkpt lat="49.95382" lon="6.16211">
        <ele>443</ele>
        <time>2026-08-26T10:55:17+00:00</time>
      </trkpt>
      <trkpt lat="49.95373" lon="6.16191">
        <ele>444</ele>
        <time>2026-08-26T10:55:20+00:00</time>
      </trkpt>
      <trkpt lat="49.95328" lon="6.16117">
        <ele>448</ele>
        <time>2026-08-26T10:55:23+00:00</time>
      </trkpt>
      <trkpt lat="49.95311" lon="6.16082">
        <ele>450</ele>
        <time>2026-08-26T10:55:26+00:00</time>
      </trkpt>
      <trkpt lat="49.95297" lon="6.16031">
        <ele>456</ele>
        <time>2026-08-26T10:55:29+00:00</time>
      </trkpt>
      <trkpt lat="49.95284" lon="6.15951">
        <ele>459</ele>
        <time>2026-08-26T10:55:32+00:00</time>
      </trkpt>
      <trkpt lat="49.95258" lon="6.15837">
        <ele>459</ele>
        <time>2026-08-26T10:55:35+00:00</time>
      </trkpt>
      <trkpt lat="49.9525" lon="6.15788">
        <ele>458</ele>
        <time>2026-08-26T10:55:38+00:00</time>
      </trkpt>
      <trkpt lat="49.95254" lon="6.15767">
        <ele>458</ele>
        <time>2026-08-26T10:55:41+00:00</time>
      </trkpt>
      <trkpt lat="49.95261" lon="6.15755">
        <ele>458</ele>
        <time>2026-08-26T10:55:44+00:00</time>
      </trkpt>
      <trkpt lat="49.95281" lon="6.15739">
        <ele>458</ele>
        <time>2026-08-26T10:55:47+00:00</time>
      </trkpt>
      <trkpt lat="49.95285" lon="6.1573">
        <ele>461</ele>
        <time>2026-08-26T10:55:50+00:00</time>
      </trkpt>
      <trkpt lat="49.95285" lon="6.1573">
        <ele>461</ele>
        <time>2026-08-26T10:55:53+00:00</time>
      </trkpt>
      <trkpt lat="49.9527" lon="6.15717">
        <ele>462</ele>
        <time>2026-08-26T10:55:56+00:00</time>
      </trkpt>
      <trkpt lat="49.95258" lon="6.15702">
        <ele>472</ele>
        <time>2026-08-26T10:55:59+00:00</time>
      </trkpt>
      <trkpt lat="49.95206" lon="6.15622">
        <ele>473</ele>
        <time>2026-08-26T10:56:02+00:00</time>
      </trkpt>
      <trkpt lat="49.95194" lon="6.15608">
        <ele>474</ele>
        <time>2026-08-26T10:56:05+00:00</time>
      </trkpt>
      <trkpt lat="49.95172" lon="6.15588">
        <ele>475</ele>
        <time>2026-08-26T10:56:08+00:00</time>
      </trkpt>
      <trkpt lat="49.95162" lon="6.15583">
        <ele>476</ele>
        <time>2026-08-26T10:56:11+00:00</time>
      </trkpt>
      <trkpt lat="49.95155" lon="6.15583">
        <ele>476</ele>
        <time>2026-08-26T10:56:14+00:00</time>
      </trkpt>
      <trkpt lat="49.95149" lon="6.15588">
        <ele>477</ele>
        <time>2026-08-26T10:56:17+00:00</time>
      </trkpt>
      <trkpt lat="49.95145" lon="6.15596">
        <ele>477</ele>
        <time>2026-08-26T10:56:20+00:00</time>
      </trkpt>
      <trkpt lat="49.95143" lon="6.15609">
        <ele>477</ele>
        <time>2026-08-26T10:56:23+00:00</time>
      </trkpt>
      <trkpt lat="49.95143" lon="6.15628">
        <ele>477</ele>
        <time>2026-08-26T10:56:26+00:00</time>
      </trkpt>
      <trkpt lat="49.95158" lon="6.15759">
        <ele>478</ele>
        <time>2026-08-26T10:56:29+00:00</time>
      </trkpt>
      <trkpt lat="49.95158" lon="6.15783">
        <ele>479</ele>
        <time>2026-08-26T10:56:32+00:00</time>
      </trkpt>
      <trkpt lat="49.95156" lon="6.15806">
        <ele>485</ele>
        <time>2026-08-26T10:56:35+00:00</time>
      </trkpt>
      <trkpt lat="49.95143" lon="6.15861">
        <ele>485</ele>
        <time>2026-08-26T10:56:38+00:00</time>
      </trkpt>
      <trkpt lat="49.95138" lon="6.15879">
        <ele>486</ele>
        <time>2026-08-26T10:56:41+00:00</time>
      </trkpt>
      <trkpt lat="49.95135" lon="6.15886">
        <ele>486</ele>
        <time>2026-08-26T10:56:44+00:00</time>
      </trkpt>
      <trkpt lat="49.95124" lon="6.15909">
        <ele>486</ele>
        <time>2026-08-26T10:56:47+00:00</time>
      </trkpt>
      <trkpt lat="49.95113" lon="6.15921">
        <ele>486</ele>
        <time>2026-08-26T10:56:50+00:00</time>
      </trkpt>
      <trkpt lat="49.95101" lon="6.1593">
        <ele>487</ele>
        <time>2026-08-26T10:56:53+00:00</time>
      </trkpt>
      <trkpt lat="49.95083" lon="6.15937">
        <ele>487</ele>
        <time>2026-08-26T10:56:56+00:00</time>
      </trkpt>
      <trkpt lat="49.95075" lon="6.15938">
        <ele>487</ele>
        <time>2026-08-26T10:56:59+00:00</time>
      </trkpt>
      <trkpt lat="49.95068" lon="6.15936">
        <ele>487</ele>
        <time>2026-08-26T10:57:02+00:00</time>
      </trkpt>
      <trkpt lat="49.9506" lon="6.15932">
        <ele>488</ele>
        <time>2026-08-26T10:57:05+00:00</time>
      </trkpt>
      <trkpt lat="49.95053" lon="6.15923">
        <ele>488</ele>
        <time>2026-08-26T10:57:08+00:00</time>
      </trkpt>
      <trkpt lat="49.95047" lon="6.15911">
        <ele>488</ele>
        <time>2026-08-26T10:57:11+00:00</time>
      </trkpt>
      <trkpt lat="49.95041" lon="6.15894">
        <ele>488</ele>
        <time>2026-08-26T10:57:14+00:00</time>
      </trkpt>
      <trkpt lat="49.95013" lon="6.15791">
        <ele>489</ele>
        <time>2026-08-26T10:57:17+00:00</time>
      </trkpt>
      <trkpt lat="49.95" lon="6.15747">
        <ele>491</ele>
        <time>2026-08-26T10:57:20+00:00</time>
      </trkpt>
      <trkpt lat="49.94964" lon="6.15653">
        <ele>493</ele>
        <time>2026-08-26T10:57:23+00:00</time>
      </trkpt>
      <trkpt lat="49.94935" lon="6.15557">
        <ele>495</ele>
        <time>2026-08-26T10:57:26+00:00</time>
      </trkpt>
      <trkpt lat="49.94888" lon="6.15386">
        <ele>501</ele>
        <time>2026-08-26T10:57:29+00:00</time>
      </trkpt>
      <trkpt lat="49.94844" lon="6.15204">
        <ele>507</ele>
        <time>2026-08-26T10:57:32+00:00</time>
      </trkpt>
      <trkpt lat="49.94809" lon="6.15072">
        <ele>509</ele>
        <time>2026-08-26T10:57:35+00:00</time>
      </trkpt>
      <trkpt lat="49.94784" lon="6.14994">
        <ele>510</ele>
        <time>2026-08-26T10:57:38+00:00</time>
      </trkpt>
      <trkpt lat="49.94769" lon="6.14955">
        <ele>511</ele>
        <time>2026-08-26T10:57:41+00:00</time>
      </trkpt>
      <trkpt lat="49.94745" lon="6.14904">
        <ele>511</ele>
        <time>2026-08-26T10:57:44+00:00</time>
      </trkpt>
      <trkpt lat="49.9472" lon="6.14869">
        <ele>511</ele>
        <time>2026-08-26T10:57:47+00:00</time>
      </trkpt>
      <trkpt lat="49.94696" lon="6.14844">
        <ele>511</ele>
        <time>2026-08-26T10:57:50+00:00</time>
      </trkpt>
      <trkpt lat="49.94688" lon="6.14836">
        <ele>512</ele>
        <time>2026-08-26T10:57:53+00:00</time>
      </trkpt>
      <trkpt lat="49.94693" lon="6.14832">
        <ele>510</ele>
        <time>2026-08-26T10:57:56+00:00</time>
      </trkpt>
      <trkpt lat="49.94698" lon="6.1481">
        <ele>510</ele>
        <time>2026-08-26T10:57:59+00:00</time>
      </trkpt>
      <trkpt lat="49.94702" lon="6.14782">
        <ele>510</ele>
        <time>2026-08-26T10:58:02+00:00</time>
      </trkpt>
      <trkpt lat="49.94703" lon="6.14763">
        <ele>511</ele>
        <time>2026-08-26T10:58:05+00:00</time>
      </trkpt>
      <trkpt lat="49.94701" lon="6.14738">
        <ele>510</ele>
        <time>2026-08-26T10:58:08+00:00</time>
      </trkpt>
      <trkpt lat="49.94694" lon="6.14726">
        <ele>507</ele>
        <time>2026-08-26T10:58:11+00:00</time>
      </trkpt>
      <trkpt lat="49.94694" lon="6.14717">
        <ele>507</ele>
        <time>2026-08-26T10:58:14+00:00</time>
      </trkpt>
      <trkpt lat="49.9469" lon="6.1466">
        <ele>503</ele>
        <time>2026-08-26T10:58:17+00:00</time>
      </trkpt>
      <trkpt lat="49.94677" lon="6.14606">
        <ele>503</ele>
        <time>2026-08-26T10:58:20+00:00</time>
      </trkpt>
      <trkpt lat="49.94659" lon="6.14544">
        <ele>503</ele>
        <time>2026-08-26T10:58:23+00:00</time>
      </trkpt>
      <trkpt lat="49.94631" lon="6.14519">
        <ele>503</ele>
        <time>2026-08-26T10:58:26+00:00</time>
      </trkpt>
      <trkpt lat="49.94612" lon="6.14507">
        <ele>503</ele>
        <time>2026-08-26T10:58:29+00:00</time>
      </trkpt>
      <trkpt lat="49.94591" lon="6.14492">
        <ele>501</ele>
        <time>2026-08-26T10:58:32+00:00</time>
      </trkpt>
      <trkpt lat="49.9457" lon="6.14473">
        <ele>501</ele>
        <time>2026-08-26T10:58:35+00:00</time>
      </trkpt>
      <trkpt lat="49.94557" lon="6.14468">
        <ele>501</ele>
        <time>2026-08-26T10:58:38+00:00</time>
      </trkpt>
      <trkpt lat="49.94559" lon="6.14425">
        <ele>499</ele>
        <time>2026-08-26T10:58:41+00:00</time>
      </trkpt>
      <trkpt lat="49.94559" lon="6.1435">
        <ele>497</ele>
        <time>2026-08-26T10:58:44+00:00</time>
      </trkpt>
      <trkpt lat="49.9457" lon="6.14291">
        <ele>497</ele>
        <time>2026-08-26T10:58:47+00:00</time>
      </trkpt>
      <trkpt lat="49.94574" lon="6.1427">
        <ele>496</ele>
        <time>2026-08-26T10:58:50+00:00</time>
      </trkpt>
      <trkpt lat="49.94582" lon="6.14192">
        <ele>494</ele>
        <time>2026-08-26T10:58:53+00:00</time>
      </trkpt>
      <trkpt lat="49.94586" lon="6.14173">
        <ele>494</ele>
        <time>2026-08-26T10:58:56+00:00</time>
      </trkpt>
      <trkpt lat="49.94597" lon="6.14139">
        <ele>494</ele>
        <time>2026-08-26T10:58:59+00:00</time>
      </trkpt>
      <trkpt lat="49.9462" lon="6.1408">
        <ele>490</ele>
        <time>2026-08-26T10:59:02+00:00</time>
      </trkpt>
      <trkpt lat="49.94663" lon="6.1397">
        <ele>483</ele>
        <time>2026-08-26T10:59:05+00:00</time>
      </trkpt>
      <trkpt lat="49.94672" lon="6.13952">
        <ele>482</ele>
        <time>2026-08-26T10:59:08+00:00</time>
      </trkpt>
      <trkpt lat="49.94681" lon="6.13936">
        <ele>482</ele>
        <time>2026-08-26T10:59:11+00:00</time>
      </trkpt>
      <trkpt lat="49.94696" lon="6.13917">
        <ele>482</ele>
        <time>2026-08-26T10:59:14+00:00</time>
      </trkpt>
      <trkpt lat="49.94725" lon="6.13884">
        <ele>480</ele>
        <time>2026-08-26T10:59:17+00:00</time>
      </trkpt>
      <trkpt lat="49.94725" lon="6.13884">
        <ele>479</ele>
        <time>2026-08-26T10:59:20+00:00</time>
      </trkpt>
      <trkpt lat="49.94731" lon="6.13878">
        <ele>478</ele>
        <time>2026-08-26T10:59:23+00:00</time>
      </trkpt>
      <trkpt lat="49.9474" lon="6.13792">
        <ele>472</ele>
        <time>2026-08-26T10:59:26+00:00</time>
      </trkpt>
      <trkpt lat="49.94746" lon="6.13752">
        <ele>470</ele>
        <time>2026-08-26T10:59:29+00:00</time>
      </trkpt>
      <trkpt lat="49.94754" lon="6.13718">
        <ele>467</ele>
        <time>2026-08-26T10:59:32+00:00</time>
      </trkpt>
      <trkpt lat="49.94765" lon="6.13676">
        <ele>466</ele>
        <time>2026-08-26T10:59:35+00:00</time>
      </trkpt>
      <trkpt lat="49.94802" lon="6.13557">
        <ele>462</ele>
        <time>2026-08-26T10:59:38+00:00</time>
      </trkpt>
      <trkpt lat="49.94806" lon="6.13538">
        <ele>462</ele>
        <time>2026-08-26T10:59:41+00:00</time>
      </trkpt>
      <trkpt lat="49.94807" lon="6.13525">
        <ele>459</ele>
        <time>2026-08-26T10:59:44+00:00</time>
      </trkpt>
      <trkpt lat="49.94806" lon="6.13512">
        <ele>463</ele>
        <time>2026-08-26T10:59:47+00:00</time>
      </trkpt>
      <trkpt lat="49.94779" lon="6.13433">
        <ele>463</ele>
        <time>2026-08-26T10:59:50+00:00</time>
      </trkpt>
      <trkpt lat="49.94764" lon="6.13377">
        <ele>463</ele>
        <time>2026-08-26T10:59:53+00:00</time>
      </trkpt>
      <trkpt lat="49.94754" lon="6.13319">
        <ele>463</ele>
        <time>2026-08-26T10:59:56+00:00</time>
      </trkpt>
      <trkpt lat="49.94744" lon="6.1324">
        <ele>463</ele>
        <time>2026-08-26T10:59:59+00:00</time>
      </trkpt>
      <trkpt lat="49.94741" lon="6.13193">
        <ele>464</ele>
        <time>2026-08-26T11:00:02+00:00</time>
      </trkpt>
      <trkpt lat="49.94743" lon="6.1316">
        <ele>464</ele>
        <time>2026-08-26T11:00:05+00:00</time>
      </trkpt>
      <trkpt lat="49.94748" lon="6.13127">
        <ele>465</ele>
        <time>2026-08-26T11:00:08+00:00</time>
      </trkpt>
      <trkpt lat="49.94756" lon="6.13092">
        <ele>473</ele>
        <time>2026-08-26T11:00:11+00:00</time>
      </trkpt>
      <trkpt lat="49.94773" lon="6.13042">
        <ele>472</ele>
        <time>2026-08-26T11:00:14+00:00</time>
      </trkpt>
      <trkpt lat="49.94782" lon="6.13022">
        <ele>472</ele>
        <time>2026-08-26T11:00:17+00:00</time>
      </trkpt>
      <trkpt lat="49.94812" lon="6.1297">
        <ele>473</ele>
        <time>2026-08-26T11:00:20+00:00</time>
      </trkpt>
      <trkpt lat="49.94831" lon="6.12919">
        <ele>474</ele>
        <time>2026-08-26T11:00:23+00:00</time>
      </trkpt>
      <trkpt lat="49.94833" lon="6.12912">
        <ele>475</ele>
        <time>2026-08-26T11:00:26+00:00</time>
      </trkpt>
      <trkpt lat="49.94824" lon="6.12897">
        <ele>477</ele>
        <time>2026-08-26T11:00:29+00:00</time>
      </trkpt>
      <trkpt lat="49.94797" lon="6.12845">
        <ele>477</ele>
        <time>2026-08-26T11:00:32+00:00</time>
      </trkpt>
      <trkpt lat="49.94781" lon="6.12817">
        <ele>477</ele>
        <time>2026-08-26T11:00:35+00:00</time>
      </trkpt>
      <trkpt lat="49.94771" lon="6.12805">
        <ele>478</ele>
        <time>2026-08-26T11:00:38+00:00</time>
      </trkpt>
      <trkpt lat="49.94766" lon="6.12792">
        <ele>478</ele>
        <time>2026-08-26T11:00:41+00:00</time>
      </trkpt>
      <trkpt lat="49.94743" lon="6.12732">
        <ele>478</ele>
        <time>2026-08-26T11:00:44+00:00</time>
      </trkpt>
      <trkpt lat="49.94734" lon="6.12716">
        <ele>479</ele>
        <time>2026-08-26T11:00:47+00:00</time>
      </trkpt>
      <trkpt lat="49.94755" lon="6.12677">
        <ele>476</ele>
        <time>2026-08-26T11:00:50+00:00</time>
      </trkpt>
      <trkpt lat="49.94758" lon="6.12654">
        <ele>476</ele>
        <time>2026-08-26T11:00:53+00:00</time>
      </trkpt>
      <trkpt lat="49.94757" lon="6.12621">
        <ele>477</ele>
        <time>2026-08-26T11:00:56+00:00</time>
      </trkpt>
      <trkpt lat="49.94751" lon="6.12557">
        <ele>478</ele>
        <time>2026-08-26T11:00:59+00:00</time>
      </trkpt>
      <trkpt lat="49.9473" lon="6.12448">
        <ele>479</ele>
        <time>2026-08-26T11:01:02+00:00</time>
      </trkpt>
      <trkpt lat="49.94704" lon="6.12215">
        <ele>463</ele>
        <time>2026-08-26T11:01:05+00:00</time>
      </trkpt>
      <trkpt lat="49.94712" lon="6.12087">
        <ele>454</ele>
        <time>2026-08-26T11:01:08+00:00</time>
      </trkpt>
      <trkpt lat="49.94712" lon="6.12003">
        <ele>451</ele>
        <time>2026-08-26T11:01:11+00:00</time>
      </trkpt>
      <trkpt lat="49.94711" lon="6.11961">
        <ele>446</ele>
        <time>2026-08-26T11:01:14+00:00</time>
      </trkpt>
      <trkpt lat="49.94708" lon="6.11944">
        <ele>443</ele>
        <time>2026-08-26T11:01:17+00:00</time>
      </trkpt>
      <trkpt lat="49.94697" lon="6.1188">
        <ele>441</ele>
        <time>2026-08-26T11:01:20+00:00</time>
      </trkpt>
      <trkpt lat="49.94673" lon="6.11787">
        <ele>430</ele>
        <time>2026-08-26T11:01:23+00:00</time>
      </trkpt>
      <trkpt lat="49.94639" lon="6.11692">
        <ele>411</ele>
        <time>2026-08-26T11:01:26+00:00</time>
      </trkpt>
      <trkpt lat="49.94611" lon="6.11601">
        <ele>401</ele>
        <time>2026-08-26T11:01:29+00:00</time>
      </trkpt>
      <trkpt lat="49.94604" lon="6.11581">
        <ele>400</ele>
        <time>2026-08-26T11:01:32+00:00</time>
      </trkpt>
      <trkpt lat="49.94595" lon="6.11567">
        <ele>400</ele>
        <time>2026-08-26T11:01:35+00:00</time>
      </trkpt>
      <trkpt lat="49.94584" lon="6.11554">
        <ele>401</ele>
        <time>2026-08-26T11:01:38+00:00</time>
      </trkpt>
      <trkpt lat="49.94553" lon="6.11539">
        <ele>401</ele>
        <time>2026-08-26T11:01:41+00:00</time>
      </trkpt>
      <trkpt lat="49.94549" lon="6.11533">
        <ele>393</ele>
        <time>2026-08-26T11:01:44+00:00</time>
      </trkpt>
      <trkpt lat="49.94547" lon="6.11529">
        <ele>392</ele>
        <time>2026-08-26T11:01:47+00:00</time>
      </trkpt>
      <trkpt lat="49.94537" lon="6.11524">
        <ele>392</ele>
        <time>2026-08-26T11:01:50+00:00</time>
      </trkpt>
      <trkpt lat="49.94519" lon="6.11521">
        <ele>392</ele>
        <time>2026-08-26T11:01:53+00:00</time>
      </trkpt>
      <trkpt lat="49.94486" lon="6.11526">
        <ele>392</ele>
        <time>2026-08-26T11:01:56+00:00</time>
      </trkpt>
      <trkpt lat="49.94473" lon="6.1153">
        <ele>392</ele>
        <time>2026-08-26T11:01:59+00:00</time>
      </trkpt>
      <trkpt lat="49.94471" lon="6.11531">
        <ele>392</ele>
        <time>2026-08-26T11:02:02+00:00</time>
      </trkpt>
      <trkpt lat="49.94453" lon="6.11535">
        <ele>392</ele>
        <time>2026-08-26T11:02:05+00:00</time>
      </trkpt>
      <trkpt lat="49.94449" lon="6.11533">
        <ele>392</ele>
        <time>2026-08-26T11:02:08+00:00</time>
      </trkpt>
      <trkpt lat="49.94445" lon="6.1153">
        <ele>392</ele>
        <time>2026-08-26T11:02:11+00:00</time>
      </trkpt>
      <trkpt lat="49.94439" lon="6.11517">
        <ele>392</ele>
        <time>2026-08-26T11:02:14+00:00</time>
      </trkpt>
      <trkpt lat="49.94432" lon="6.11522">
        <ele>392</ele>
        <time>2026-08-26T11:02:17+00:00</time>
      </trkpt>
      <trkpt lat="49.94427" lon="6.11518">
        <ele>402</ele>
        <time>2026-08-26T11:02:20+00:00</time>
      </trkpt>
      <trkpt lat="49.94419" lon="6.11518">
        <ele>402</ele>
        <time>2026-08-26T11:02:23+00:00</time>
      </trkpt>
      <trkpt lat="49.94408" lon="6.11514">
        <ele>402</ele>
        <time>2026-08-26T11:02:26+00:00</time>
      </trkpt>
      <trkpt lat="49.94407" lon="6.11511">
        <ele>402</ele>
        <time>2026-08-26T11:02:29+00:00</time>
      </trkpt>
      <trkpt lat="49.94411" lon="6.11503">
        <ele>401</ele>
        <time>2026-08-26T11:02:32+00:00</time>
      </trkpt>
      <trkpt lat="49.94404" lon="6.11491">
        <ele>401</ele>
        <time>2026-08-26T11:02:35+00:00</time>
      </trkpt>
      <trkpt lat="49.94403" lon="6.1148">
        <ele>402</ele>
        <time>2026-08-26T11:02:38+00:00</time>
      </trkpt>
      <trkpt lat="49.94397" lon="6.11467">
        <ele>402</ele>
        <time>2026-08-26T11:02:41+00:00</time>
      </trkpt>
      <trkpt lat="49.94389" lon="6.11461">
        <ele>402</ele>
        <time>2026-08-26T11:02:44+00:00</time>
      </trkpt>
      <trkpt lat="49.94375" lon="6.11446">
        <ele>404</ele>
        <time>2026-08-26T11:02:47+00:00</time>
      </trkpt>
      <trkpt lat="49.94369" lon="6.11435">
        <ele>404</ele>
        <time>2026-08-26T11:02:50+00:00</time>
      </trkpt>
      <trkpt lat="49.94351" lon="6.11408">
        <ele>406</ele>
        <time>2026-08-26T11:02:53+00:00</time>
      </trkpt>
      <trkpt lat="49.94342" lon="6.11402">
        <ele>407</ele>
        <time>2026-08-26T11:02:56+00:00</time>
      </trkpt>
      <trkpt lat="49.94339" lon="6.11397">
        <ele>407</ele>
        <time>2026-08-26T11:02:59+00:00</time>
      </trkpt>
      <trkpt lat="49.94328" lon="6.11387">
        <ele>408</ele>
        <time>2026-08-26T11:03:02+00:00</time>
      </trkpt>
      <trkpt lat="49.94325" lon="6.11381">
        <ele>409</ele>
        <time>2026-08-26T11:03:05+00:00</time>
      </trkpt>
      <trkpt lat="49.94311" lon="6.11372">
        <ele>410</ele>
        <time>2026-08-26T11:03:08+00:00</time>
      </trkpt>
      <trkpt lat="49.94301" lon="6.1135">
        <ele>413</ele>
        <time>2026-08-26T11:03:11+00:00</time>
      </trkpt>
      <trkpt lat="49.94298" lon="6.11339">
        <ele>413</ele>
        <time>2026-08-26T11:03:14+00:00</time>
      </trkpt>
      <trkpt lat="49.94288" lon="6.11318">
        <ele>414</ele>
        <time>2026-08-26T11:03:17+00:00</time>
      </trkpt>
      <trkpt lat="49.94281" lon="6.1129">
        <ele>417</ele>
        <time>2026-08-26T11:03:20+00:00</time>
      </trkpt>
      <trkpt lat="49.94276" lon="6.11283">
        <ele>418</ele>
        <time>2026-08-26T11:03:23+00:00</time>
      </trkpt>
      <trkpt lat="49.94275" lon="6.11278">
        <ele>418</ele>
        <time>2026-08-26T11:03:26+00:00</time>
      </trkpt>
      <trkpt lat="49.94272" lon="6.11277">
        <ele>419</ele>
        <time>2026-08-26T11:03:29+00:00</time>
      </trkpt>
      <trkpt lat="49.94268" lon="6.11267">
        <ele>420</ele>
        <time>2026-08-26T11:03:32+00:00</time>
      </trkpt>
      <trkpt lat="49.94262" lon="6.11245">
        <ele>421</ele>
        <time>2026-08-26T11:03:35+00:00</time>
      </trkpt>
      <trkpt lat="49.94254" lon="6.11223">
        <ele>425</ele>
        <time>2026-08-26T11:03:38+00:00</time>
      </trkpt>
      <trkpt lat="49.94249" lon="6.11216">
        <ele>435</ele>
        <time>2026-08-26T11:03:41+00:00</time>
      </trkpt>
      <trkpt lat="49.94236" lon="6.11154">
        <ele>459</ele>
        <time>2026-08-26T11:03:44+00:00</time>
      </trkpt>
      <trkpt lat="49.94233" lon="6.11103">
        <ele>463</ele>
        <time>2026-08-26T11:03:47+00:00</time>
      </trkpt>
      <trkpt lat="49.94233" lon="6.11079">
        <ele>464</ele>
        <time>2026-08-26T11:03:50+00:00</time>
      </trkpt>
      <trkpt lat="49.94235" lon="6.11058">
        <ele>465</ele>
        <time>2026-08-26T11:03:53+00:00</time>
      </trkpt>
      <trkpt lat="49.94243" lon="6.11033">
        <ele>465</ele>
        <time>2026-08-26T11:03:56+00:00</time>
      </trkpt>
      <trkpt lat="49.94262" lon="6.10989">
        <ele>468</ele>
        <time>2026-08-26T11:03:59+00:00</time>
      </trkpt>
      <trkpt lat="49.94276" lon="6.10951">
        <ele>470</ele>
        <time>2026-08-26T11:04:02+00:00</time>
      </trkpt>
      <trkpt lat="49.94277" lon="6.10937">
        <ele>471</ele>
        <time>2026-08-26T11:04:05+00:00</time>
      </trkpt>
      <trkpt lat="49.94274" lon="6.10925">
        <ele>471</ele>
        <time>2026-08-26T11:04:08+00:00</time>
      </trkpt>
      <trkpt lat="49.94267" lon="6.10914">
        <ele>471</ele>
        <time>2026-08-26T11:04:11+00:00</time>
      </trkpt>
      <trkpt lat="49.94241" lon="6.10886">
        <ele>473</ele>
        <time>2026-08-26T11:04:14+00:00</time>
      </trkpt>
      <trkpt lat="49.9423" lon="6.10869">
        <ele>473</ele>
        <time>2026-08-26T11:04:17+00:00</time>
      </trkpt>
      <trkpt lat="49.94222" lon="6.10852">
        <ele>473</ele>
        <time>2026-08-26T11:04:20+00:00</time>
      </trkpt>
      <trkpt lat="49.94211" lon="6.10818">
        <ele>475</ele>
        <time>2026-08-26T11:04:23+00:00</time>
      </trkpt>
      <trkpt lat="49.94202" lon="6.10764">
        <ele>474</ele>
        <time>2026-08-26T11:04:26+00:00</time>
      </trkpt>
      <trkpt lat="49.94203" lon="6.10756">
        <ele>474</ele>
        <time>2026-08-26T11:04:29+00:00</time>
      </trkpt>
      <trkpt lat="49.94208" lon="6.10739">
        <ele>475</ele>
        <time>2026-08-26T11:04:32+00:00</time>
      </trkpt>
      <trkpt lat="49.94209" lon="6.10717">
        <ele>475</ele>
        <time>2026-08-26T11:04:35+00:00</time>
      </trkpt>
      <trkpt lat="49.94206" lon="6.10696">
        <ele>475</ele>
        <time>2026-08-26T11:04:38+00:00</time>
      </trkpt>
      <trkpt lat="49.94191" lon="6.10625">
        <ele>476</ele>
        <time>2026-08-26T11:04:41+00:00</time>
      </trkpt>
      <trkpt lat="49.9419" lon="6.10622">
        <ele>477</ele>
        <time>2026-08-26T11:04:44+00:00</time>
      </trkpt>
      <trkpt lat="49.94146" lon="6.10464">
        <ele>483</ele>
        <time>2026-08-26T11:04:47+00:00</time>
      </trkpt>
      <trkpt lat="49.94135" lon="6.10439">
        <ele>483</ele>
        <time>2026-08-26T11:04:50+00:00</time>
      </trkpt>
      <trkpt lat="49.9413" lon="6.10433">
        <ele>483</ele>
        <time>2026-08-26T11:04:53+00:00</time>
      </trkpt>
      <trkpt lat="49.94129" lon="6.10422">
        <ele>484</ele>
        <time>2026-08-26T11:04:56+00:00</time>
      </trkpt>
      <trkpt lat="49.9412" lon="6.10392">
        <ele>484</ele>
        <time>2026-08-26T11:04:59+00:00</time>
      </trkpt>
      <trkpt lat="49.94114" lon="6.10357">
        <ele>485</ele>
        <time>2026-08-26T11:05:02+00:00</time>
      </trkpt>
      <trkpt lat="49.94105" lon="6.10269">
        <ele>485</ele>
        <time>2026-08-26T11:05:05+00:00</time>
      </trkpt>
      <trkpt lat="49.941" lon="6.10163">
        <ele>486</ele>
        <time>2026-08-26T11:05:08+00:00</time>
      </trkpt>
      <trkpt lat="49.94101" lon="6.1006">
        <ele>484</ele>
        <time>2026-08-26T11:05:11+00:00</time>
      </trkpt>
      <trkpt lat="49.94065" lon="6.10047">
        <ele>483</ele>
        <time>2026-08-26T11:05:14+00:00</time>
      </trkpt>
      <trkpt lat="49.9405" lon="6.10036">
        <ele>483</ele>
        <time>2026-08-26T11:05:17+00:00</time>
      </trkpt>
      <trkpt lat="49.94027" lon="6.10013">
        <ele>483</ele>
        <time>2026-08-26T11:05:20+00:00</time>
      </trkpt>
      <trkpt lat="49.94021" lon="6.1">
        <ele>483</ele>
        <time>2026-08-26T11:05:23+00:00</time>
      </trkpt>
      <trkpt lat="49.93907" lon="6.09889">
        <ele>483</ele>
        <time>2026-08-26T11:05:26+00:00</time>
      </trkpt>
      <trkpt lat="49.93889" lon="6.0988">
        <ele>483</ele>
        <time>2026-08-26T11:05:29+00:00</time>
      </trkpt>
      <trkpt lat="49.93842" lon="6.09878">
        <ele>483</ele>
        <time>2026-08-26T11:05:32+00:00</time>
      </trkpt>
      <trkpt lat="49.9384" lon="6.09877">
        <ele>483</ele>
        <time>2026-08-26T11:05:35+00:00</time>
      </trkpt>
      <trkpt lat="49.93838" lon="6.09872">
        <ele>483</ele>
        <time>2026-08-26T11:05:38+00:00</time>
      </trkpt>
      <trkpt lat="49.93835" lon="6.09872">
        <ele>483</ele>
        <time>2026-08-26T11:05:41+00:00</time>
      </trkpt>
      <trkpt lat="49.93835" lon="6.09839">
        <ele>482</ele>
        <time>2026-08-26T11:05:44+00:00</time>
      </trkpt>
      <trkpt lat="49.93832" lon="6.09796">
        <ele>482</ele>
        <time>2026-08-26T11:05:47+00:00</time>
      </trkpt>
      <trkpt lat="49.93834" lon="6.09754">
        <ele>482</ele>
        <time>2026-08-26T11:05:50+00:00</time>
      </trkpt>
      <trkpt lat="49.93839" lon="6.09751">
        <ele>477</ele>
        <time>2026-08-26T11:05:53+00:00</time>
      </trkpt>
      <trkpt lat="49.93863" lon="6.09724">
        <ele>471</ele>
        <time>2026-08-26T11:05:56+00:00</time>
      </trkpt>
      <trkpt lat="49.93874" lon="6.09716">
        <ele>471</ele>
        <time>2026-08-26T11:05:59+00:00</time>
      </trkpt>
      <trkpt lat="49.93887" lon="6.09714">
        <ele>470</ele>
        <time>2026-08-26T11:06:02+00:00</time>
      </trkpt>
      <trkpt lat="49.93897" lon="6.09708">
        <ele>470</ele>
        <time>2026-08-26T11:06:05+00:00</time>
      </trkpt>
      <trkpt lat="49.93906" lon="6.09702">
        <ele>469</ele>
        <time>2026-08-26T11:06:08+00:00</time>
      </trkpt>
      <trkpt lat="49.93932" lon="6.09683">
        <ele>468</ele>
        <time>2026-08-26T11:06:11+00:00</time>
      </trkpt>
      <trkpt lat="49.9394" lon="6.09673">
        <ele>468</ele>
        <time>2026-08-26T11:06:14+00:00</time>
      </trkpt>
      <trkpt lat="49.93961" lon="6.0964">
        <ele>467</ele>
        <time>2026-08-26T11:06:17+00:00</time>
      </trkpt>
      <trkpt lat="49.93965" lon="6.09627">
        <ele>466</ele>
        <time>2026-08-26T11:06:20+00:00</time>
      </trkpt>
      <trkpt lat="49.93965" lon="6.09621">
        <ele>466</ele>
        <time>2026-08-26T11:06:23+00:00</time>
      </trkpt>
      <trkpt lat="49.93961" lon="6.0961">
        <ele>466</ele>
        <time>2026-08-26T11:06:26+00:00</time>
      </trkpt>
      <trkpt lat="49.93926" lon="6.09563">
        <ele>466</ele>
        <time>2026-08-26T11:06:29+00:00</time>
      </trkpt>
      <trkpt lat="49.93921" lon="6.09552">
        <ele>466</ele>
        <time>2026-08-26T11:06:32+00:00</time>
      </trkpt>
      <trkpt lat="49.93918" lon="6.0954">
        <ele>466</ele>
        <time>2026-08-26T11:06:35+00:00</time>
      </trkpt>
      <trkpt lat="49.93913" lon="6.09515">
        <ele>466</ele>
        <time>2026-08-26T11:06:38+00:00</time>
      </trkpt>
      <trkpt lat="49.93912" lon="6.09479">
        <ele>465</ele>
        <time>2026-08-26T11:06:41+00:00</time>
      </trkpt>
      <trkpt lat="49.93915" lon="6.09457">
        <ele>465</ele>
        <time>2026-08-26T11:06:44+00:00</time>
      </trkpt>
      <trkpt lat="49.93922" lon="6.09426">
        <ele>452</ele>
        <time>2026-08-26T11:06:47+00:00</time>
      </trkpt>
      <trkpt lat="49.93923" lon="6.09418">
        <ele>452</ele>
        <time>2026-08-26T11:06:50+00:00</time>
      </trkpt>
      <trkpt lat="49.93928" lon="6.09373">
        <ele>440</ele>
        <time>2026-08-26T11:06:53+00:00</time>
      </trkpt>
      <trkpt lat="49.93929" lon="6.09336">
        <ele>439</ele>
        <time>2026-08-26T11:06:56+00:00</time>
      </trkpt>
      <trkpt lat="49.93928" lon="6.09304">
        <ele>437</ele>
        <time>2026-08-26T11:06:59+00:00</time>
      </trkpt>
      <trkpt lat="49.93924" lon="6.09273">
        <ele>436</ele>
        <time>2026-08-26T11:07:02+00:00</time>
      </trkpt>
      <trkpt lat="49.93891" lon="6.09117">
        <ele>427</ele>
        <time>2026-08-26T11:07:05+00:00</time>
      </trkpt>
      <trkpt lat="49.93871" lon="6.09049">
        <ele>408</ele>
        <time>2026-08-26T11:07:08+00:00</time>
      </trkpt>
      <trkpt lat="49.93851" lon="6.08969">
        <ele>406</ele>
        <time>2026-08-26T11:07:11+00:00</time>
      </trkpt>
      <trkpt lat="49.93842" lon="6.08933">
        <ele>403</ele>
        <time>2026-08-26T11:07:14+00:00</time>
      </trkpt>
      <trkpt lat="49.93828" lon="6.08891">
        <ele>381</ele>
        <time>2026-08-26T11:07:17+00:00</time>
      </trkpt>
      <trkpt lat="49.93802" lon="6.08871">
        <ele>380</ele>
        <time>2026-08-26T11:07:20+00:00</time>
      </trkpt>
      <trkpt lat="49.93722" lon="6.08836">
        <ele>380</ele>
        <time>2026-08-26T11:07:23+00:00</time>
      </trkpt>
      <trkpt lat="49.93717" lon="6.08829">
        <ele>374</ele>
        <time>2026-08-26T11:07:26+00:00</time>
      </trkpt>
      <trkpt lat="49.93717" lon="6.08819">
        <ele>374</ele>
        <time>2026-08-26T11:07:29+00:00</time>
      </trkpt>
      <trkpt lat="49.93728" lon="6.08762">
        <ele>374</ele>
        <time>2026-08-26T11:07:32+00:00</time>
      </trkpt>
      <trkpt lat="49.9373" lon="6.08742">
        <ele>383</ele>
        <time>2026-08-26T11:07:35+00:00</time>
      </trkpt>
      <trkpt lat="49.93727" lon="6.08729">
        <ele>385</ele>
        <time>2026-08-26T11:07:38+00:00</time>
      </trkpt>
      <trkpt lat="49.93722" lon="6.0872">
        <ele>386</ele>
        <time>2026-08-26T11:07:41+00:00</time>
      </trkpt>
      <trkpt lat="49.93715" lon="6.08713">
        <ele>392</ele>
        <time>2026-08-26T11:07:44+00:00</time>
      </trkpt>
      <trkpt lat="49.93596" lon="6.08637">
        <ele>406</ele>
        <time>2026-08-26T11:07:47+00:00</time>
      </trkpt>
      <trkpt lat="49.93532" lon="6.0861">
        <ele>410</ele>
        <time>2026-08-26T11:07:50+00:00</time>
      </trkpt>
      <trkpt lat="49.93522" lon="6.08608">
        <ele>410</ele>
        <time>2026-08-26T11:07:53+00:00</time>
      </trkpt>
      <trkpt lat="49.93443" lon="6.08617">
        <ele>424</ele>
        <time>2026-08-26T11:07:56+00:00</time>
      </trkpt>
      <trkpt lat="49.93357" lon="6.08643">
        <ele>426</ele>
        <time>2026-08-26T11:07:59+00:00</time>
      </trkpt>
      <trkpt lat="49.93338" lon="6.08645">
        <ele>426</ele>
        <time>2026-08-26T11:08:02+00:00</time>
      </trkpt>
      <trkpt lat="49.93331" lon="6.08643">
        <ele>427</ele>
        <time>2026-08-26T11:08:05+00:00</time>
      </trkpt>
      <trkpt lat="49.93328" lon="6.08637">
        <ele>427</ele>
        <time>2026-08-26T11:08:08+00:00</time>
      </trkpt>
      <trkpt lat="49.93327" lon="6.08629">
        <ele>428</ele>
        <time>2026-08-26T11:08:11+00:00</time>
      </trkpt>
      <trkpt lat="49.93332" lon="6.08623">
        <ele>428</ele>
        <time>2026-08-26T11:08:14+00:00</time>
      </trkpt>
      <trkpt lat="49.93367" lon="6.08621">
        <ele>427</ele>
        <time>2026-08-26T11:08:17+00:00</time>
      </trkpt>
      <trkpt lat="49.93382" lon="6.08613">
        <ele>427</ele>
        <time>2026-08-26T11:08:20+00:00</time>
      </trkpt>
      <trkpt lat="49.93439" lon="6.08575">
        <ele>425</ele>
        <time>2026-08-26T11:08:23+00:00</time>
      </trkpt>
      <trkpt lat="49.93517" lon="6.08533">
        <ele>427</ele>
        <time>2026-08-26T11:08:26+00:00</time>
      </trkpt>
      <trkpt lat="49.93567" lon="6.08519">
        <ele>427</ele>
        <time>2026-08-26T11:08:29+00:00</time>
      </trkpt>
      <trkpt lat="49.93576" lon="6.08514">
        <ele>427</ele>
        <time>2026-08-26T11:08:32+00:00</time>
      </trkpt>
      <trkpt lat="49.93607" lon="6.08497">
        <ele>427</ele>
        <time>2026-08-26T11:08:35+00:00</time>
      </trkpt>
      <trkpt lat="49.93614" lon="6.0849">
        <ele>427</ele>
        <time>2026-08-26T11:08:38+00:00</time>
      </trkpt>
      <trkpt lat="49.9362" lon="6.08477">
        <ele>427</ele>
        <time>2026-08-26T11:08:41+00:00</time>
      </trkpt>
      <trkpt lat="49.93734" lon="6.08482">
        <ele>425</ele>
        <time>2026-08-26T11:08:44+00:00</time>
      </trkpt>
      <trkpt lat="49.9375" lon="6.0849">
        <ele>425</ele>
        <time>2026-08-26T11:08:47+00:00</time>
      </trkpt>
      <trkpt lat="49.93781" lon="6.08518">
        <ele>424</ele>
        <time>2026-08-26T11:08:50+00:00</time>
      </trkpt>
      <trkpt lat="49.93797" lon="6.08527">
        <ele>424</ele>
        <time>2026-08-26T11:08:53+00:00</time>
      </trkpt>
      <trkpt lat="49.93807" lon="6.08528">
        <ele>424</ele>
        <time>2026-08-26T11:08:56+00:00</time>
      </trkpt>
      <trkpt lat="49.93819" lon="6.08523">
        <ele>424</ele>
        <time>2026-08-26T11:08:59+00:00</time>
      </trkpt>
      <trkpt lat="49.93826" lon="6.08513">
        <ele>428</ele>
        <time>2026-08-26T11:09:02+00:00</time>
      </trkpt>
      <trkpt lat="49.93833" lon="6.08498">
        <ele>429</ele>
        <time>2026-08-26T11:09:05+00:00</time>
      </trkpt>
      <trkpt lat="49.93837" lon="6.0848">
        <ele>428</ele>
        <time>2026-08-26T11:09:08+00:00</time>
      </trkpt>
      <trkpt lat="49.9384" lon="6.08449">
        <ele>431</ele>
        <time>2026-08-26T11:09:11+00:00</time>
      </trkpt>
      <trkpt lat="49.9384" lon="6.08435">
        <ele>431</ele>
        <time>2026-08-26T11:09:14+00:00</time>
      </trkpt>
      <trkpt lat="49.9384" lon="6.08432">
        <ele>431</ele>
        <time>2026-08-26T11:09:17+00:00</time>
      </trkpt>
      <trkpt lat="49.93829" lon="6.08443">
        <ele>425</ele>
        <time>2026-08-26T11:09:20+00:00</time>
      </trkpt>
      <trkpt lat="49.93821" lon="6.08445">
        <ele>425</ele>
        <time>2026-08-26T11:09:23+00:00</time>
      </trkpt>
      <trkpt lat="49.93811" lon="6.08443">
        <ele>425</ele>
        <time>2026-08-26T11:09:26+00:00</time>
      </trkpt>
      <trkpt lat="49.93804" lon="6.08437">
        <ele>425</ele>
        <time>2026-08-26T11:09:29+00:00</time>
      </trkpt>
      <trkpt lat="49.93798" lon="6.08426">
        <ele>424</ele>
        <time>2026-08-26T11:09:32+00:00</time>
      </trkpt>
      <trkpt lat="49.93794" lon="6.0841">
        <ele>419</ele>
        <time>2026-08-26T11:09:35+00:00</time>
      </trkpt>
      <trkpt lat="49.93771" lon="6.08398">
        <ele>414</ele>
        <time>2026-08-26T11:09:38+00:00</time>
      </trkpt>
      <trkpt lat="49.93711" lon="6.0834">
        <ele>414</ele>
        <time>2026-08-26T11:09:41+00:00</time>
      </trkpt>
      <trkpt lat="49.93693" lon="6.08326">
        <ele>414</ele>
        <time>2026-08-26T11:09:44+00:00</time>
      </trkpt>
      <trkpt lat="49.93675" lon="6.08317">
        <ele>415</ele>
        <time>2026-08-26T11:09:47+00:00</time>
      </trkpt>
      <trkpt lat="49.9359" lon="6.08291">
        <ele>419</ele>
        <time>2026-08-26T11:09:50+00:00</time>
      </trkpt>
      <trkpt lat="49.93519" lon="6.08309">
        <ele>429</ele>
        <time>2026-08-26T11:09:53+00:00</time>
      </trkpt>
      <trkpt lat="49.93449" lon="6.08315">
        <ele>439</ele>
        <time>2026-08-26T11:09:56+00:00</time>
      </trkpt>
      <trkpt lat="49.93384" lon="6.08336">
        <ele>440</ele>
        <time>2026-08-26T11:09:59+00:00</time>
      </trkpt>
      <trkpt lat="49.93326" lon="6.08364">
        <ele>437</ele>
        <time>2026-08-26T11:10:02+00:00</time>
      </trkpt>
      <trkpt lat="49.93288" lon="6.08373">
        <ele>437</ele>
        <time>2026-08-26T11:10:05+00:00</time>
      </trkpt>
      <trkpt lat="49.93255" lon="6.08379">
        <ele>437</ele>
        <time>2026-08-26T11:10:08+00:00</time>
      </trkpt>
      <trkpt lat="49.93204" lon="6.08438">
        <ele>446</ele>
        <time>2026-08-26T11:10:11+00:00</time>
      </trkpt>
      <trkpt lat="49.93108" lon="6.08526">
        <ele>461</ele>
        <time>2026-08-26T11:10:14+00:00</time>
      </trkpt>
      <trkpt lat="49.93003" lon="6.08582">
        <ele>468</ele>
        <time>2026-08-26T11:10:17+00:00</time>
      </trkpt>
      <trkpt lat="49.92879" lon="6.08631">
        <ele>473</ele>
        <time>2026-08-26T11:10:20+00:00</time>
      </trkpt>
      <trkpt lat="49.92826" lon="6.08654">
        <ele>472</ele>
        <time>2026-08-26T11:10:23+00:00</time>
      </trkpt>
      <trkpt lat="49.92745" lon="6.08712">
        <ele>469</ele>
        <time>2026-08-26T11:10:26+00:00</time>
      </trkpt>
      <trkpt lat="49.92696" lon="6.08762">
        <ele>466</ele>
        <time>2026-08-26T11:10:29+00:00</time>
      </trkpt>
      <trkpt lat="49.92668" lon="6.08865">
        <ele>461</ele>
        <time>2026-08-26T11:10:32+00:00</time>
      </trkpt>
      <trkpt lat="49.92621" lon="6.0886">
        <ele>457</ele>
        <time>2026-08-26T11:10:35+00:00</time>
      </trkpt>
      <trkpt lat="49.92585" lon="6.08858">
        <ele>457</ele>
        <time>2026-08-26T11:10:38+00:00</time>
      </trkpt>
      <trkpt lat="49.92546" lon="6.0889">
        <ele>463</ele>
        <time>2026-08-26T11:10:41+00:00</time>
      </trkpt>
      <trkpt lat="49.92506" lon="6.09007">
        <ele>449</ele>
        <time>2026-08-26T11:10:44+00:00</time>
      </trkpt>
      <trkpt lat="49.92407" lon="6.09125">
        <ele>440</ele>
        <time>2026-08-26T11:10:47+00:00</time>
      </trkpt>
      <trkpt lat="49.92337" lon="6.09274">
        <ele>432</ele>
        <time>2026-08-26T11:10:50+00:00</time>
      </trkpt>
      <trkpt lat="49.92294" lon="6.09306">
        <ele>422</ele>
        <time>2026-08-26T11:10:53+00:00</time>
      </trkpt>
      <trkpt lat="49.92228" lon="6.09422">
        <ele>419</ele>
        <time>2026-08-26T11:10:56+00:00</time>
      </trkpt>
      <trkpt lat="49.92135" lon="6.09493">
        <ele>421</ele>
        <time>2026-08-26T11:10:59+00:00</time>
      </trkpt>
      <trkpt lat="49.92045" lon="6.09438">
        <ele>434</ele>
        <time>2026-08-26T11:11:02+00:00</time>
      </trkpt>
      <trkpt lat="49.91963" lon="6.09348">
        <ele>443</ele>
        <time>2026-08-26T11:11:05+00:00</time>
      </trkpt>
      <trkpt lat="49.9189" lon="6.09263">
        <ele>442</ele>
        <time>2026-08-26T11:11:08+00:00</time>
      </trkpt>
      <trkpt lat="49.91814" lon="6.09178">
        <ele>445</ele>
        <time>2026-08-26T11:11:11+00:00</time>
      </trkpt>
      <trkpt lat="49.91733" lon="6.09132">
        <ele>440</ele>
        <time>2026-08-26T11:11:14+00:00</time>
      </trkpt>
      <trkpt lat="49.91669" lon="6.09115">
        <ele>440</ele>
        <time>2026-08-26T11:11:17+00:00</time>
      </trkpt>
      <trkpt lat="49.91583" lon="6.09163">
        <ele>376</ele>
        <time>2026-08-26T11:11:20+00:00</time>
      </trkpt>
      <trkpt lat="49.91576" lon="6.09175">
        <ele>397</ele>
        <time>2026-08-26T11:11:23+00:00</time>
      </trkpt>
      <trkpt lat="49.91574" lon="6.09182">
        <ele>401</ele>
        <time>2026-08-26T11:11:26+00:00</time>
      </trkpt>
      <trkpt lat="49.91569" lon="6.09203">
        <ele>406</ele>
        <time>2026-08-26T11:11:29+00:00</time>
      </trkpt>
      <trkpt lat="49.91544" lon="6.09358">
        <ele>429</ele>
        <time>2026-08-26T11:11:32+00:00</time>
      </trkpt>
      <trkpt lat="49.91538" lon="6.09383">
        <ele>430</ele>
        <time>2026-08-26T11:11:35+00:00</time>
      </trkpt>
      <trkpt lat="49.91529" lon="6.09405">
        <ele>434</ele>
        <time>2026-08-26T11:11:38+00:00</time>
      </trkpt>
      <trkpt lat="49.91511" lon="6.09441">
        <ele>434</ele>
        <time>2026-08-26T11:11:41+00:00</time>
      </trkpt>
      <trkpt lat="49.91494" lon="6.09483">
        <ele>436</ele>
        <time>2026-08-26T11:11:44+00:00</time>
      </trkpt>
      <trkpt lat="49.91446" lon="6.09634">
        <ele>443</ele>
        <time>2026-08-26T11:11:47+00:00</time>
      </trkpt>
      <trkpt lat="49.91443" lon="6.09647">
        <ele>449</ele>
        <time>2026-08-26T11:11:50+00:00</time>
      </trkpt>
      <trkpt lat="49.91433" lon="6.09653">
        <ele>453</ele>
        <time>2026-08-26T11:11:53+00:00</time>
      </trkpt>
      <trkpt lat="49.91388" lon="6.09719">
        <ele>455</ele>
        <time>2026-08-26T11:11:56+00:00</time>
      </trkpt>
      <trkpt lat="49.91344" lon="6.09733">
        <ele>462</ele>
        <time>2026-08-26T11:11:59+00:00</time>
      </trkpt>
      <trkpt lat="49.91341" lon="6.09723">
        <ele>459</ele>
        <time>2026-08-26T11:12:02+00:00</time>
      </trkpt>
      <trkpt lat="49.9135" lon="6.09703">
        <ele>459</ele>
        <time>2026-08-26T11:12:05+00:00</time>
      </trkpt>
      <trkpt lat="49.9135" lon="6.09683">
        <ele>459</ele>
        <time>2026-08-26T11:12:08+00:00</time>
      </trkpt>
      <trkpt lat="49.91317" lon="6.09586">
        <ele>458</ele>
        <time>2026-08-26T11:12:11+00:00</time>
      </trkpt>
      <trkpt lat="49.91304" lon="6.09547">
        <ele>457</ele>
        <time>2026-08-26T11:12:14+00:00</time>
      </trkpt>
      <trkpt lat="49.91296" lon="6.09506">
        <ele>457</ele>
        <time>2026-08-26T11:12:17+00:00</time>
      </trkpt>
      <trkpt lat="49.91281" lon="6.09451">
        <ele>456</ele>
        <time>2026-08-26T11:12:20+00:00</time>
      </trkpt>
      <trkpt lat="49.91275" lon="6.09436">
        <ele>455</ele>
        <time>2026-08-26T11:12:23+00:00</time>
      </trkpt>
      <trkpt lat="49.91262" lon="6.09421">
        <ele>454</ele>
        <time>2026-08-26T11:12:26+00:00</time>
      </trkpt>
      <trkpt lat="49.91251" lon="6.09413">
        <ele>451</ele>
        <time>2026-08-26T11:12:29+00:00</time>
      </trkpt>
      <trkpt lat="49.91241" lon="6.09409">
        <ele>450</ele>
        <time>2026-08-26T11:12:32+00:00</time>
      </trkpt>
      <trkpt lat="49.91229" lon="6.09408">
        <ele>450</ele>
        <time>2026-08-26T11:12:35+00:00</time>
      </trkpt>
      <trkpt lat="49.91216" lon="6.09413">
        <ele>449</ele>
        <time>2026-08-26T11:12:38+00:00</time>
      </trkpt>
      <trkpt lat="49.91205" lon="6.09413">
        <ele>449</ele>
        <time>2026-08-26T11:12:41+00:00</time>
      </trkpt>
      <trkpt lat="49.91172" lon="6.09407">
        <ele>447</ele>
        <time>2026-08-26T11:12:44+00:00</time>
      </trkpt>
      <trkpt lat="49.91164" lon="6.09402">
        <ele>447</ele>
        <time>2026-08-26T11:12:47+00:00</time>
      </trkpt>
      <trkpt lat="49.91145" lon="6.09403">
        <ele>447</ele>
        <time>2026-08-26T11:12:50+00:00</time>
      </trkpt>
      <trkpt lat="49.91139" lon="6.09395">
        <ele>447</ele>
        <time>2026-08-26T11:12:53+00:00</time>
      </trkpt>
      <trkpt lat="49.91129" lon="6.09378">
        <ele>447</ele>
        <time>2026-08-26T11:12:56+00:00</time>
      </trkpt>
      <trkpt lat="49.91126" lon="6.09365">
        <ele>448</ele>
        <time>2026-08-26T11:12:59+00:00</time>
      </trkpt>
      <trkpt lat="49.91114" lon="6.09361">
        <ele>449</ele>
        <time>2026-08-26T11:13:02+00:00</time>
      </trkpt>
      <trkpt lat="49.91097" lon="6.09361">
        <ele>450</ele>
        <time>2026-08-26T11:13:05+00:00</time>
      </trkpt>
      <trkpt lat="49.91082" lon="6.09359">
        <ele>450</ele>
        <time>2026-08-26T11:13:08+00:00</time>
      </trkpt>
      <trkpt lat="49.91074" lon="6.09355">
        <ele>451</ele>
        <time>2026-08-26T11:13:11+00:00</time>
      </trkpt>
      <trkpt lat="49.91067" lon="6.09348">
        <ele>451</ele>
        <time>2026-08-26T11:13:14+00:00</time>
      </trkpt>
      <trkpt lat="49.91051" lon="6.0934">
        <ele>451</ele>
        <time>2026-08-26T11:13:17+00:00</time>
      </trkpt>
      <trkpt lat="49.91046" lon="6.09333">
        <ele>450</ele>
        <time>2026-08-26T11:13:20+00:00</time>
      </trkpt>
      <trkpt lat="49.91042" lon="6.09319">
        <ele>439</ele>
        <time>2026-08-26T11:13:23+00:00</time>
      </trkpt>
      <trkpt lat="49.91037" lon="6.09308">
        <ele>430</ele>
        <time>2026-08-26T11:13:26+00:00</time>
      </trkpt>
      <trkpt lat="49.91026" lon="6.09295">
        <ele>430</ele>
        <time>2026-08-26T11:13:29+00:00</time>
      </trkpt>
      <trkpt lat="49.91017" lon="6.09291">
        <ele>431</ele>
        <time>2026-08-26T11:13:32+00:00</time>
      </trkpt>
      <trkpt lat="49.91001" lon="6.09275">
        <ele>431</ele>
        <time>2026-08-26T11:13:35+00:00</time>
      </trkpt>
      <trkpt lat="49.90999" lon="6.09271">
        <ele>431</ele>
        <time>2026-08-26T11:13:38+00:00</time>
      </trkpt>
      <trkpt lat="49.90997" lon="6.09255">
        <ele>432</ele>
        <time>2026-08-26T11:13:41+00:00</time>
      </trkpt>
      <trkpt lat="49.90992" lon="6.09248">
        <ele>431</ele>
        <time>2026-08-26T11:13:44+00:00</time>
      </trkpt>
      <trkpt lat="49.90986" lon="6.0923">
        <ele>431</ele>
        <time>2026-08-26T11:13:47+00:00</time>
      </trkpt>
      <trkpt lat="49.90985" lon="6.09219">
        <ele>430</ele>
        <time>2026-08-26T11:13:50+00:00</time>
      </trkpt>
      <trkpt lat="49.90982" lon="6.09213">
        <ele>430</ele>
        <time>2026-08-26T11:13:53+00:00</time>
      </trkpt>
      <trkpt lat="49.90965" lon="6.0921">
        <ele>429</ele>
        <time>2026-08-26T11:13:56+00:00</time>
      </trkpt>
      <trkpt lat="49.90943" lon="6.09224">
        <ele>428</ele>
        <time>2026-08-26T11:13:59+00:00</time>
      </trkpt>
      <trkpt lat="49.9094" lon="6.09225">
        <ele>428</ele>
        <time>2026-08-26T11:14:02+00:00</time>
      </trkpt>
      <trkpt lat="49.90935" lon="6.09222">
        <ele>428</ele>
        <time>2026-08-26T11:14:05+00:00</time>
      </trkpt>
      <trkpt lat="49.90931" lon="6.09224">
        <ele>427</ele>
        <time>2026-08-26T11:14:08+00:00</time>
      </trkpt>
      <trkpt lat="49.90929" lon="6.09222">
        <ele>421</ele>
        <time>2026-08-26T11:14:11+00:00</time>
      </trkpt>
      <trkpt lat="49.90917" lon="6.0919">
        <ele>403</ele>
        <time>2026-08-26T11:14:14+00:00</time>
      </trkpt>
      <trkpt lat="49.90905" lon="6.09176">
        <ele>404</ele>
        <time>2026-08-26T11:14:17+00:00</time>
      </trkpt>
      <trkpt lat="49.90877" lon="6.09151">
        <ele>403</ele>
        <time>2026-08-26T11:14:20+00:00</time>
      </trkpt>
      <trkpt lat="49.90842" lon="6.0912">
        <ele>402</ele>
        <time>2026-08-26T11:14:23+00:00</time>
      </trkpt>
      <trkpt lat="49.90829" lon="6.09099">
        <ele>400</ele>
        <time>2026-08-26T11:14:26+00:00</time>
      </trkpt>
      <trkpt lat="49.9082" lon="6.09095">
        <ele>388</ele>
        <time>2026-08-26T11:14:29+00:00</time>
      </trkpt>
      <trkpt lat="49.90793" lon="6.09085">
        <ele>383</ele>
        <time>2026-08-26T11:14:32+00:00</time>
      </trkpt>
      <trkpt lat="49.90746" lon="6.09062">
        <ele>381</ele>
        <time>2026-08-26T11:14:35+00:00</time>
      </trkpt>
      <trkpt lat="49.90739" lon="6.09055">
        <ele>377</ele>
        <time>2026-08-26T11:14:38+00:00</time>
      </trkpt>
      <trkpt lat="49.90727" lon="6.09042">
        <ele>377</ele>
        <time>2026-08-26T11:14:41+00:00</time>
      </trkpt>
      <trkpt lat="49.90695" lon="6.09011">
        <ele>371</ele>
        <time>2026-08-26T11:14:44+00:00</time>
      </trkpt>
      <trkpt lat="49.90693" lon="6.0901">
        <ele>372</ele>
        <time>2026-08-26T11:14:47+00:00</time>
      </trkpt>
      <trkpt lat="49.9068" lon="6.09003">
        <ele>372</ele>
        <time>2026-08-26T11:14:50+00:00</time>
      </trkpt>
      <trkpt lat="49.90658" lon="6.08996">
        <ele>370</ele>
        <time>2026-08-26T11:14:53+00:00</time>
      </trkpt>
      <trkpt lat="49.90637" lon="6.08985">
        <ele>361</ele>
        <time>2026-08-26T11:14:56+00:00</time>
      </trkpt>
      <trkpt lat="49.90622" lon="6.08978">
        <ele>350</ele>
        <time>2026-08-26T11:14:59+00:00</time>
      </trkpt>
      <trkpt lat="49.90617" lon="6.08972">
        <ele>350</ele>
        <time>2026-08-26T11:15:02+00:00</time>
      </trkpt>
      <trkpt lat="49.90605" lon="6.08947">
        <ele>351</ele>
        <time>2026-08-26T11:15:05+00:00</time>
      </trkpt>
      <trkpt lat="49.90597" lon="6.08935">
        <ele>351</ele>
        <time>2026-08-26T11:15:08+00:00</time>
      </trkpt>
      <trkpt lat="49.90567" lon="6.08904">
        <ele>345</ele>
        <time>2026-08-26T11:15:11+00:00</time>
      </trkpt>
      <trkpt lat="49.90536" lon="6.08878">
        <ele>344</ele>
        <time>2026-08-26T11:15:14+00:00</time>
      </trkpt>
      <trkpt lat="49.9052" lon="6.08866">
        <ele>343</ele>
        <time>2026-08-26T11:15:17+00:00</time>
      </trkpt>
      <trkpt lat="49.90504" lon="6.08859">
        <ele>342</ele>
        <time>2026-08-26T11:15:20+00:00</time>
      </trkpt>
      <trkpt lat="49.90486" lon="6.08846">
        <ele>336</ele>
        <time>2026-08-26T11:15:23+00:00</time>
      </trkpt>
      <trkpt lat="49.9047" lon="6.08831">
        <ele>331</ele>
        <time>2026-08-26T11:15:26+00:00</time>
      </trkpt>
      <trkpt lat="49.90457" lon="6.08826">
        <ele>311</ele>
        <time>2026-08-26T11:15:29+00:00</time>
      </trkpt>
      <trkpt lat="49.90444" lon="6.08823">
        <ele>307</ele>
        <time>2026-08-26T11:15:32+00:00</time>
      </trkpt>
      <trkpt lat="49.90432" lon="6.08821">
        <ele>303</ele>
        <time>2026-08-26T11:15:35+00:00</time>
      </trkpt>
      <trkpt lat="49.90394" lon="6.08804">
        <ele>300</ele>
        <time>2026-08-26T11:15:38+00:00</time>
      </trkpt>
      <trkpt lat="49.90383" lon="6.08796">
        <ele>300</ele>
        <time>2026-08-26T11:15:41+00:00</time>
      </trkpt>
      <trkpt lat="49.9033" lon="6.08766">
        <ele>297</ele>
        <time>2026-08-26T11:15:44+00:00</time>
      </trkpt>
      <trkpt lat="49.90237" lon="6.08752">
        <ele>287</ele>
        <time>2026-08-26T11:15:47+00:00</time>
      </trkpt>
      <trkpt lat="49.90207" lon="6.08751">
        <ele>285</ele>
        <time>2026-08-26T11:15:50+00:00</time>
      </trkpt>
      <trkpt lat="49.9019" lon="6.08747">
        <ele>272</ele>
        <time>2026-08-26T11:15:53+00:00</time>
      </trkpt>
      <trkpt lat="49.90166" lon="6.08741">
        <ele>253</ele>
        <time>2026-08-26T11:15:56+00:00</time>
      </trkpt>
      <trkpt lat="49.90151" lon="6.08746">
        <ele>253</ele>
        <time>2026-08-26T11:15:59+00:00</time>
      </trkpt>
      <trkpt lat="49.90142" lon="6.08752">
        <ele>253</ele>
        <time>2026-08-26T11:16:02+00:00</time>
      </trkpt>
      <trkpt lat="49.90105" lon="6.08796">
        <ele>253</ele>
        <time>2026-08-26T11:16:05+00:00</time>
      </trkpt>
      <trkpt lat="49.90094" lon="6.08819">
        <ele>253</ele>
        <time>2026-08-26T11:16:08+00:00</time>
      </trkpt>
      <trkpt lat="49.9009" lon="6.08833">
        <ele>252</ele>
        <time>2026-08-26T11:16:11+00:00</time>
      </trkpt>
      <trkpt lat="49.90088" lon="6.08837">
        <ele>252</ele>
        <time>2026-08-26T11:16:14+00:00</time>
      </trkpt>
      <trkpt lat="49.90084" lon="6.08837">
        <ele>251</ele>
        <time>2026-08-26T11:16:17+00:00</time>
      </trkpt>
      <trkpt lat="49.90082" lon="6.08833">
        <ele>251</ele>
        <time>2026-08-26T11:16:20+00:00</time>
      </trkpt>
      <trkpt lat="49.90082" lon="6.08819">
        <ele>253</ele>
        <time>2026-08-26T11:16:23+00:00</time>
      </trkpt>
      <trkpt lat="49.90096" lon="6.08758">
        <ele>254</ele>
        <time>2026-08-26T11:16:26+00:00</time>
      </trkpt>
      <trkpt lat="49.90107" lon="6.0872">
        <ele>249</ele>
        <time>2026-08-26T11:16:29+00:00</time>
      </trkpt>
      <trkpt lat="49.90094" lon="6.08738">
        <ele>238</ele>
        <time>2026-08-26T11:16:32+00:00</time>
      </trkpt>
      <trkpt lat="49.90067" lon="6.08756">
        <ele>236</ele>
        <time>2026-08-26T11:16:35+00:00</time>
      </trkpt>
      <trkpt lat="49.90052" lon="6.08772">
        <ele>231</ele>
        <time>2026-08-26T11:16:38+00:00</time>
      </trkpt>
      <trkpt lat="49.90025" lon="6.08819">
        <ele>232</ele>
        <time>2026-08-26T11:16:41+00:00</time>
      </trkpt>
      <trkpt lat="49.90014" lon="6.08846">
        <ele>233</ele>
        <time>2026-08-26T11:16:44+00:00</time>
      </trkpt>
      <trkpt lat="49.90006" lon="6.08856">
        <ele>238</ele>
        <time>2026-08-26T11:16:47+00:00</time>
      </trkpt>
      <trkpt lat="49.90001" lon="6.08863">
        <ele>233</ele>
        <time>2026-08-26T11:16:50+00:00</time>
      </trkpt>
      <trkpt lat="49.89999" lon="6.08866">
        <ele>228</ele>
        <time>2026-08-26T11:16:53+00:00</time>
      </trkpt>
      <trkpt lat="49.89997" lon="6.08875">
        <ele>229</ele>
        <time>2026-08-26T11:16:56+00:00</time>
      </trkpt>
      <trkpt lat="49.89998" lon="6.08885">
        <ele>231</ele>
        <time>2026-08-26T11:16:59+00:00</time>
      </trkpt>
      <trkpt lat="49.90006" lon="6.08912">
        <ele>238</ele>
        <time>2026-08-26T11:17:02+00:00</time>
      </trkpt>
      <trkpt lat="49.89982" lon="6.0891">
        <ele>225</ele>
        <time>2026-08-26T11:17:05+00:00</time>
      </trkpt>
      <trkpt lat="49.8996" lon="6.08901">
        <ele>225</ele>
        <time>2026-08-26T11:17:08+00:00</time>
      </trkpt>
      <trkpt lat="49.89937" lon="6.08895">
        <ele>222</ele>
        <time>2026-08-26T11:17:11+00:00</time>
      </trkpt>
      <trkpt lat="49.89932" lon="6.08894">
        <ele>222</ele>
        <time>2026-08-26T11:17:14+00:00</time>
      </trkpt>
      <trkpt lat="49.89929" lon="6.08912">
        <ele>222</ele>
        <time>2026-08-26T11:17:17+00:00</time>
      </trkpt>
      <trkpt lat="49.89921" lon="6.0893">
        <ele>226</ele>
        <time>2026-08-26T11:17:20+00:00</time>
      </trkpt>
      <trkpt lat="49.89897" lon="6.08959">
        <ele>217</ele>
        <time>2026-08-26T11:17:23+00:00</time>
      </trkpt>
      <trkpt lat="49.89867" lon="6.08998">
        <ele>217</ele>
        <time>2026-08-26T11:17:26+00:00</time>
      </trkpt>
      <trkpt lat="49.89831" lon="6.09041">
        <ele>217</ele>
        <time>2026-08-26T11:17:29+00:00</time>
      </trkpt>
      <trkpt lat="49.89822" lon="6.09054">
        <ele>217</ele>
        <time>2026-08-26T11:17:32+00:00</time>
      </trkpt>
      <trkpt lat="49.89781" lon="6.09101">
        <ele>220</ele>
        <time>2026-08-26T11:17:35+00:00</time>
      </trkpt>
      <trkpt lat="49.89783" lon="6.09105">
        <ele>220</ele>
        <time>2026-08-26T11:17:38+00:00</time>
      </trkpt>
      <trkpt lat="49.89784" lon="6.09108">
        <ele>220</ele>
        <time>2026-08-26T11:17:41+00:00</time>
      </trkpt>
      <trkpt lat="49.89776" lon="6.09128">
        <ele>220</ele>
        <time>2026-08-26T11:17:44+00:00</time>
      </trkpt>
      <trkpt lat="49.89782" lon="6.09149">
        <ele>220</ele>
        <time>2026-08-26T11:17:47+00:00</time>
      </trkpt>
      <trkpt lat="49.89787" lon="6.09158">
        <ele>220</ele>
        <time>2026-08-26T11:17:50+00:00</time>
      </trkpt>
      <trkpt lat="49.89787" lon="6.09169">
        <ele>225</ele>
        <time>2026-08-26T11:17:53+00:00</time>
      </trkpt>
      <trkpt lat="49.89795" lon="6.09187">
        <ele>225</ele>
        <time>2026-08-26T11:17:56+00:00</time>
      </trkpt>
      <trkpt lat="49.898" lon="6.09193">
        <ele>225</ele>
        <time>2026-08-26T11:17:59+00:00</time>
      </trkpt>
      <trkpt lat="49.89817" lon="6.09197">
        <ele>225</ele>
        <time>2026-08-26T11:18:02+00:00</time>
      </trkpt>
      <trkpt lat="49.89826" lon="6.09208">
        <ele>225</ele>
        <time>2026-08-26T11:18:05+00:00</time>
      </trkpt>
      <trkpt lat="49.89832" lon="6.09224">
        <ele>225</ele>
        <time>2026-08-26T11:18:08+00:00</time>
      </trkpt>
      <trkpt lat="49.89832" lon="6.0923">
        <ele>225</ele>
        <time>2026-08-26T11:18:11+00:00</time>
      </trkpt>
      <trkpt lat="49.8983" lon="6.09234">
        <ele>225</ele>
        <time>2026-08-26T11:18:14+00:00</time>
      </trkpt>
      <trkpt lat="49.89822" lon="6.09243">
        <ele>225</ele>
        <time>2026-08-26T11:18:17+00:00</time>
      </trkpt>
      <trkpt lat="49.89816" lon="6.09245">
        <ele>225</ele>
        <time>2026-08-26T11:18:20+00:00</time>
      </trkpt>
      <trkpt lat="49.8981" lon="6.09244">
        <ele>225</ele>
        <time>2026-08-26T11:18:23+00:00</time>
      </trkpt>
      <trkpt lat="49.89801" lon="6.09239">
        <ele>225</ele>
        <time>2026-08-26T11:18:26+00:00</time>
      </trkpt>
      <trkpt lat="49.89798" lon="6.09249">
        <ele>225</ele>
        <time>2026-08-26T11:18:29+00:00</time>
      </trkpt>
      <trkpt lat="49.89803" lon="6.09259">
        <ele>245</ele>
        <time>2026-08-26T11:18:32+00:00</time>
      </trkpt>
      <trkpt lat="49.89812" lon="6.09295">
        <ele>244</ele>
        <time>2026-08-26T11:18:35+00:00</time>
      </trkpt>
      <trkpt lat="49.89819" lon="6.09338">
        <ele>245</ele>
        <time>2026-08-26T11:18:38+00:00</time>
      </trkpt>
      <trkpt lat="49.89824" lon="6.0939">
        <ele>246</ele>
        <time>2026-08-26T11:18:41+00:00</time>
      </trkpt>
      <trkpt lat="49.8983" lon="6.09423">
        <ele>269</ele>
        <time>2026-08-26T11:18:44+00:00</time>
      </trkpt>
      <trkpt lat="49.89833" lon="6.09434">
        <ele>269</ele>
        <time>2026-08-26T11:18:47+00:00</time>
      </trkpt>
      <trkpt lat="49.89853" lon="6.09482">
        <ele>267</ele>
        <time>2026-08-26T11:18:50+00:00</time>
      </trkpt>
      <trkpt lat="49.89857" lon="6.09502">
        <ele>267</ele>
        <time>2026-08-26T11:18:53+00:00</time>
      </trkpt>
      <trkpt lat="49.89857" lon="6.09504">
        <ele>267</ele>
        <time>2026-08-26T11:18:56+00:00</time>
      </trkpt>
      <trkpt lat="49.89858" lon="6.09514">
        <ele>268</ele>
        <time>2026-08-26T11:18:59+00:00</time>
      </trkpt>
      <trkpt lat="49.89856" lon="6.09524">
        <ele>269</ele>
        <time>2026-08-26T11:19:02+00:00</time>
      </trkpt>
      <trkpt lat="49.8985" lon="6.09533">
        <ele>274</ele>
        <time>2026-08-26T11:19:05+00:00</time>
      </trkpt>
      <trkpt lat="49.89846" lon="6.0954">
        <ele>274</ele>
        <time>2026-08-26T11:19:08+00:00</time>
      </trkpt>
      <trkpt lat="49.89823" lon="6.09587">
        <ele>276</ele>
        <time>2026-08-26T11:19:11+00:00</time>
      </trkpt>
      <trkpt lat="49.89809" lon="6.0965">
        <ele>276</ele>
        <time>2026-08-26T11:19:14+00:00</time>
      </trkpt>
      <trkpt lat="49.89807" lon="6.0967">
        <ele>277</ele>
        <time>2026-08-26T11:19:17+00:00</time>
      </trkpt>
      <trkpt lat="49.89806" lon="6.09713">
        <ele>279</ele>
        <time>2026-08-26T11:19:20+00:00</time>
      </trkpt>
      <trkpt lat="49.89804" lon="6.09746">
        <ele>297</ele>
        <time>2026-08-26T11:19:23+00:00</time>
      </trkpt>
      <trkpt lat="49.89799" lon="6.09806">
        <ele>300</ele>
        <time>2026-08-26T11:19:26+00:00</time>
      </trkpt>
      <trkpt lat="49.8979" lon="6.09859">
        <ele>305</ele>
        <time>2026-08-26T11:19:29+00:00</time>
      </trkpt>
      <trkpt lat="49.89765" lon="6.09935">
        <ele>307</ele>
        <time>2026-08-26T11:19:32+00:00</time>
      </trkpt>
      <trkpt lat="49.89754" lon="6.09953">
        <ele>310</ele>
        <time>2026-08-26T11:19:35+00:00</time>
      </trkpt>
      <trkpt lat="49.89743" lon="6.09964">
        <ele>309</ele>
        <time>2026-08-26T11:19:38+00:00</time>
      </trkpt>
      <trkpt lat="49.89734" lon="6.09977">
        <ele>309</ele>
        <time>2026-08-26T11:19:41+00:00</time>
      </trkpt>
      <trkpt lat="49.89731" lon="6.09992">
        <ele>310</ele>
        <time>2026-08-26T11:19:44+00:00</time>
      </trkpt>
      <trkpt lat="49.89732" lon="6.10001">
        <ele>311</ele>
        <time>2026-08-26T11:19:47+00:00</time>
      </trkpt>
      <trkpt lat="49.89739" lon="6.10008">
        <ele>312</ele>
        <time>2026-08-26T11:19:50+00:00</time>
      </trkpt>
      <trkpt lat="49.89751" lon="6.10011">
        <ele>313</ele>
        <time>2026-08-26T11:19:53+00:00</time>
      </trkpt>
      <trkpt lat="49.89762" lon="6.1002">
        <ele>314</ele>
        <time>2026-08-26T11:19:56+00:00</time>
      </trkpt>
      <trkpt lat="49.89777" lon="6.10045">
        <ele>333</ele>
        <time>2026-08-26T11:19:59+00:00</time>
      </trkpt>
      <trkpt lat="49.89777" lon="6.10051">
        <ele>337</ele>
        <time>2026-08-26T11:20:02+00:00</time>
      </trkpt>
      <trkpt lat="49.89785" lon="6.10078">
        <ele>339</ele>
        <time>2026-08-26T11:20:05+00:00</time>
      </trkpt>
      <trkpt lat="49.89798" lon="6.10106">
        <ele>339</ele>
        <time>2026-08-26T11:20:08+00:00</time>
      </trkpt>
      <trkpt lat="49.89832" lon="6.1016">
        <ele>340</ele>
        <time>2026-08-26T11:20:11+00:00</time>
      </trkpt>
      <trkpt lat="49.89846" lon="6.10173">
        <ele>340</ele>
        <time>2026-08-26T11:20:14+00:00</time>
      </trkpt>
      <trkpt lat="49.89879" lon="6.10193">
        <ele>340</ele>
        <time>2026-08-26T11:20:17+00:00</time>
      </trkpt>
      <trkpt lat="49.89891" lon="6.10204">
        <ele>338</ele>
        <time>2026-08-26T11:20:20+00:00</time>
      </trkpt>
      <trkpt lat="49.89905" lon="6.10224">
        <ele>336</ele>
        <time>2026-08-26T11:20:23+00:00</time>
      </trkpt>
      <trkpt lat="49.89917" lon="6.10249">
        <ele>335</ele>
        <time>2026-08-26T11:20:26+00:00</time>
      </trkpt>
      <trkpt lat="49.89919" lon="6.10254">
        <ele>334</ele>
        <time>2026-08-26T11:20:29+00:00</time>
      </trkpt>
      <trkpt lat="49.89938" lon="6.10311">
        <ele>332</ele>
        <time>2026-08-26T11:20:32+00:00</time>
      </trkpt>
      <trkpt lat="49.89959" lon="6.10369">
        <ele>329</ele>
        <time>2026-08-26T11:20:35+00:00</time>
      </trkpt>
      <trkpt lat="49.89963" lon="6.10385">
        <ele>314</ele>
        <time>2026-08-26T11:20:38+00:00</time>
      </trkpt>
      <trkpt lat="49.89998" lon="6.10568">
        <ele>303</ele>
        <time>2026-08-26T11:20:41+00:00</time>
      </trkpt>
      <trkpt lat="49.89996" lon="6.10616">
        <ele>302</ele>
        <time>2026-08-26T11:20:44+00:00</time>
      </trkpt>
      <trkpt lat="49.89985" lon="6.10669">
        <ele>303</ele>
        <time>2026-08-26T11:20:47+00:00</time>
      </trkpt>
      <trkpt lat="49.89975" lon="6.10702">
        <ele>303</ele>
        <time>2026-08-26T11:20:50+00:00</time>
      </trkpt>
      <trkpt lat="49.89958" lon="6.10721">
        <ele>304</ele>
        <time>2026-08-26T11:20:53+00:00</time>
      </trkpt>
      <trkpt lat="49.89949" lon="6.10733">
        <ele>304</ele>
        <time>2026-08-26T11:20:56+00:00</time>
      </trkpt>
      <trkpt lat="49.89947" lon="6.10745">
        <ele>318</ele>
        <time>2026-08-26T11:20:59+00:00</time>
      </trkpt>
      <trkpt lat="49.89946" lon="6.10769">
        <ele>321</ele>
        <time>2026-08-26T11:21:02+00:00</time>
      </trkpt>
      <trkpt lat="49.89948" lon="6.10802">
        <ele>321</ele>
        <time>2026-08-26T11:21:05+00:00</time>
      </trkpt>
      <trkpt lat="49.89954" lon="6.10839">
        <ele>322</ele>
        <time>2026-08-26T11:21:08+00:00</time>
      </trkpt>
      <trkpt lat="49.8996" lon="6.10863">
        <ele>323</ele>
        <time>2026-08-26T11:21:11+00:00</time>
      </trkpt>
      <trkpt lat="49.89967" lon="6.10879">
        <ele>324</ele>
        <time>2026-08-26T11:21:14+00:00</time>
      </trkpt>
      <trkpt lat="49.89984" lon="6.10898">
        <ele>325</ele>
        <time>2026-08-26T11:21:17+00:00</time>
      </trkpt>
      <trkpt lat="49.89988" lon="6.10899">
        <ele>325</ele>
        <time>2026-08-26T11:21:20+00:00</time>
      </trkpt>
      <trkpt lat="49.90011" lon="6.1089">
        <ele>325</ele>
        <time>2026-08-26T11:21:23+00:00</time>
      </trkpt>
      <trkpt lat="49.90036" lon="6.10884">
        <ele>325</ele>
        <time>2026-08-26T11:21:26+00:00</time>
      </trkpt>
      <trkpt lat="49.90041" lon="6.10886">
        <ele>325</ele>
        <time>2026-08-26T11:21:29+00:00</time>
      </trkpt>
      <trkpt lat="49.90044" lon="6.1089">
        <ele>326</ele>
        <time>2026-08-26T11:21:32+00:00</time>
      </trkpt>
      <trkpt lat="49.90044" lon="6.10897">
        <ele>326</ele>
        <time>2026-08-26T11:21:35+00:00</time>
      </trkpt>
      <trkpt lat="49.90043" lon="6.10903">
        <ele>326</ele>
        <time>2026-08-26T11:21:38+00:00</time>
      </trkpt>
      <trkpt lat="49.90041" lon="6.10911">
        <ele>326</ele>
        <time>2026-08-26T11:21:41+00:00</time>
      </trkpt>
      <trkpt lat="49.90031" lon="6.10947">
        <ele>326</ele>
        <time>2026-08-26T11:21:44+00:00</time>
      </trkpt>
      <trkpt lat="49.90029" lon="6.10967">
        <ele>326</ele>
        <time>2026-08-26T11:21:47+00:00</time>
      </trkpt>
      <trkpt lat="49.90031" lon="6.10987">
        <ele>326</ele>
        <time>2026-08-26T11:21:50+00:00</time>
      </trkpt>
      <trkpt lat="49.90036" lon="6.11007">
        <ele>327</ele>
        <time>2026-08-26T11:21:53+00:00</time>
      </trkpt>
      <trkpt lat="49.90047" lon="6.11036">
        <ele>335</ele>
        <time>2026-08-26T11:21:56+00:00</time>
      </trkpt>
      <trkpt lat="49.89987" lon="6.11028">
        <ele>325</ele>
        <time>2026-08-26T11:21:59+00:00</time>
      </trkpt>
      <trkpt lat="49.89955" lon="6.11021">
        <ele>322</ele>
        <time>2026-08-26T11:22:02+00:00</time>
      </trkpt>
      <trkpt lat="49.89945" lon="6.11013">
        <ele>322</ele>
        <time>2026-08-26T11:22:05+00:00</time>
      </trkpt>
      <trkpt lat="49.8994" lon="6.11013">
        <ele>322</ele>
        <time>2026-08-26T11:22:08+00:00</time>
      </trkpt>
      <trkpt lat="49.89921" lon="6.11006">
        <ele>322</ele>
        <time>2026-08-26T11:22:11+00:00</time>
      </trkpt>
      <trkpt lat="49.89919" lon="6.11005">
        <ele>322</ele>
        <time>2026-08-26T11:22:14+00:00</time>
      </trkpt>
      <trkpt lat="49.89918" lon="6.11006">
        <ele>322</ele>
        <time>2026-08-26T11:22:17+00:00</time>
      </trkpt>
      <trkpt lat="49.8992" lon="6.11013">
        <ele>323</ele>
        <time>2026-08-26T11:22:20+00:00</time>
      </trkpt>
      <trkpt lat="49.89927" lon="6.1102">
        <ele>327</ele>
        <time>2026-08-26T11:22:23+00:00</time>
      </trkpt>
      <trkpt lat="49.89948" lon="6.11055">
        <ele>331</ele>
        <time>2026-08-26T11:22:26+00:00</time>
      </trkpt>
      <trkpt lat="49.89956" lon="6.11065">
        <ele>332</ele>
        <time>2026-08-26T11:22:29+00:00</time>
      </trkpt>
      <trkpt lat="49.89967" lon="6.11089">
        <ele>335</ele>
        <time>2026-08-26T11:22:32+00:00</time>
      </trkpt>
      <trkpt lat="49.89972" lon="6.11106">
        <ele>338</ele>
        <time>2026-08-26T11:22:35+00:00</time>
      </trkpt>
      <trkpt lat="49.89985" lon="6.11132">
        <ele>340</ele>
        <time>2026-08-26T11:22:38+00:00</time>
      </trkpt>
      <trkpt lat="49.89989" lon="6.11146">
        <ele>341</ele>
        <time>2026-08-26T11:22:41+00:00</time>
      </trkpt>
      <trkpt lat="49.90011" lon="6.11201">
        <ele>347</ele>
        <time>2026-08-26T11:22:44+00:00</time>
      </trkpt>
      <trkpt lat="49.9003" lon="6.11263">
        <ele>350</ele>
        <time>2026-08-26T11:22:47+00:00</time>
      </trkpt>
      <trkpt lat="49.90043" lon="6.11284">
        <ele>350</ele>
        <time>2026-08-26T11:22:50+00:00</time>
      </trkpt>
      <trkpt lat="49.90046" lon="6.11293">
        <ele>369</ele>
        <time>2026-08-26T11:22:53+00:00</time>
      </trkpt>
      <trkpt lat="49.90046" lon="6.11302">
        <ele>372</ele>
        <time>2026-08-26T11:22:56+00:00</time>
      </trkpt>
      <trkpt lat="49.90042" lon="6.11311">
        <ele>373</ele>
        <time>2026-08-26T11:22:59+00:00</time>
      </trkpt>
      <trkpt lat="49.90042" lon="6.11327">
        <ele>373</ele>
        <time>2026-08-26T11:23:02+00:00</time>
      </trkpt>
      <trkpt lat="49.90049" lon="6.11349">
        <ele>374</ele>
        <time>2026-08-26T11:23:05+00:00</time>
      </trkpt>
      <trkpt lat="49.90063" lon="6.11365">
        <ele>375</ele>
        <time>2026-08-26T11:23:08+00:00</time>
      </trkpt>
      <trkpt lat="49.90086" lon="6.11373">
        <ele>376</ele>
        <time>2026-08-26T11:23:11+00:00</time>
      </trkpt>
      <trkpt lat="49.90095" lon="6.11383">
        <ele>387</ele>
        <time>2026-08-26T11:23:14+00:00</time>
      </trkpt>
      <trkpt lat="49.90121" lon="6.11394">
        <ele>387</ele>
        <time>2026-08-26T11:23:17+00:00</time>
      </trkpt>
      <trkpt lat="49.90145" lon="6.11404">
        <ele>390</ele>
        <time>2026-08-26T11:23:20+00:00</time>
      </trkpt>
      <trkpt lat="49.90182" lon="6.11445">
        <ele>395</ele>
        <time>2026-08-26T11:23:23+00:00</time>
      </trkpt>
      <trkpt lat="49.90203" lon="6.11471">
        <ele>399</ele>
        <time>2026-08-26T11:23:26+00:00</time>
      </trkpt>
      <trkpt lat="49.90273" lon="6.11558">
        <ele>403</ele>
        <time>2026-08-26T11:23:29+00:00</time>
      </trkpt>
      <trkpt lat="49.90281" lon="6.11562">
        <ele>403</ele>
        <time>2026-08-26T11:23:32+00:00</time>
      </trkpt>
      <trkpt lat="49.9029" lon="6.11562">
        <ele>403</ele>
        <time>2026-08-26T11:23:35+00:00</time>
      </trkpt>
      <trkpt lat="49.90341" lon="6.11546">
        <ele>417</ele>
        <time>2026-08-26T11:23:38+00:00</time>
      </trkpt>
      <trkpt lat="49.90358" lon="6.11753">
        <ele>415</ele>
        <time>2026-08-26T11:23:41+00:00</time>
      </trkpt>
      <trkpt lat="49.90362" lon="6.11799">
        <ele>414</ele>
        <time>2026-08-26T11:23:44+00:00</time>
      </trkpt>
      <trkpt lat="49.90373" lon="6.11915">
        <ele>414</ele>
        <time>2026-08-26T11:23:47+00:00</time>
      </trkpt>
      <trkpt lat="49.90373" lon="6.11951">
        <ele>414</ele>
        <time>2026-08-26T11:23:50+00:00</time>
      </trkpt>
      <trkpt lat="49.90337" lon="6.12038">
        <ele>406</ele>
        <time>2026-08-26T11:23:53+00:00</time>
      </trkpt>
      <trkpt lat="49.90325" lon="6.12075">
        <ele>405</ele>
        <time>2026-08-26T11:23:56+00:00</time>
      </trkpt>
      <trkpt lat="49.90316" lon="6.12111">
        <ele>405</ele>
        <time>2026-08-26T11:23:59+00:00</time>
      </trkpt>
      <trkpt lat="49.90308" lon="6.12165">
        <ele>401</ele>
        <time>2026-08-26T11:24:02+00:00</time>
      </trkpt>
      <trkpt lat="49.90293" lon="6.1218">
        <ele>401</ele>
        <time>2026-08-26T11:24:05+00:00</time>
      </trkpt>
      <trkpt lat="49.90263" lon="6.12198">
        <ele>401</ele>
        <time>2026-08-26T11:24:08+00:00</time>
      </trkpt>
      <trkpt lat="49.90243" lon="6.12221">
        <ele>401</ele>
        <time>2026-08-26T11:24:11+00:00</time>
      </trkpt>
      <trkpt lat="49.90228" lon="6.12241">
        <ele>401</ele>
        <time>2026-08-26T11:24:14+00:00</time>
      </trkpt>
      <trkpt lat="49.90188" lon="6.12288">
        <ele>404</ele>
        <time>2026-08-26T11:24:17+00:00</time>
      </trkpt>
      <trkpt lat="49.90187" lon="6.1229">
        <ele>407</ele>
        <time>2026-08-26T11:24:20+00:00</time>
      </trkpt>
      <trkpt lat="49.90156" lon="6.12342">
        <ele>408</ele>
        <time>2026-08-26T11:24:23+00:00</time>
      </trkpt>
      <trkpt lat="49.90137" lon="6.12385">
        <ele>412</ele>
        <time>2026-08-26T11:24:26+00:00</time>
      </trkpt>
      <trkpt lat="49.90077" lon="6.12514">
        <ele>413</ele>
        <time>2026-08-26T11:24:29+00:00</time>
      </trkpt>
      <trkpt lat="49.90054" lon="6.12557">
        <ele>413</ele>
        <time>2026-08-26T11:24:32+00:00</time>
      </trkpt>
      <trkpt lat="49.90032" lon="6.12606">
        <ele>413</ele>
        <time>2026-08-26T11:24:35+00:00</time>
      </trkpt>
      <trkpt lat="49.90024" lon="6.12642">
        <ele>414</ele>
        <time>2026-08-26T11:24:38+00:00</time>
      </trkpt>
      <trkpt lat="49.90021" lon="6.12678">
        <ele>406</ele>
        <time>2026-08-26T11:24:41+00:00</time>
      </trkpt>
      <trkpt lat="49.90012" lon="6.12709">
        <ele>404</ele>
        <time>2026-08-26T11:24:44+00:00</time>
      </trkpt>
      <trkpt lat="49.90004" lon="6.12752">
        <ele>403</ele>
        <time>2026-08-26T11:24:47+00:00</time>
      </trkpt>
      <trkpt lat="49.90002" lon="6.1277">
        <ele>403</ele>
        <time>2026-08-26T11:24:50+00:00</time>
      </trkpt>
      <trkpt lat="49.89999" lon="6.12808">
        <ele>403</ele>
        <time>2026-08-26T11:24:53+00:00</time>
      </trkpt>
      <trkpt lat="49.89996" lon="6.12876">
        <ele>401</ele>
        <time>2026-08-26T11:24:56+00:00</time>
      </trkpt>
      <trkpt lat="49.89999" lon="6.12908">
        <ele>401</ele>
        <time>2026-08-26T11:24:59+00:00</time>
      </trkpt>
      <trkpt lat="49.90007" lon="6.1295">
        <ele>401</ele>
        <time>2026-08-26T11:25:02+00:00</time>
      </trkpt>
      <trkpt lat="49.90009" lon="6.12976">
        <ele>400</ele>
        <time>2026-08-26T11:25:05+00:00</time>
      </trkpt>
      <trkpt lat="49.90007" lon="6.13032">
        <ele>400</ele>
        <time>2026-08-26T11:25:08+00:00</time>
      </trkpt>
      <trkpt lat="49.9001" lon="6.13049">
        <ele>398</ele>
        <time>2026-08-26T11:25:11+00:00</time>
      </trkpt>
      <trkpt lat="49.90023" lon="6.13043">
        <ele>398</ele>
        <time>2026-08-26T11:25:14+00:00</time>
      </trkpt>
      <trkpt lat="49.90036" lon="6.13043">
        <ele>398</ele>
        <time>2026-08-26T11:25:17+00:00</time>
      </trkpt>
      <trkpt lat="49.90044" lon="6.13049">
        <ele>398</ele>
        <time>2026-08-26T11:25:20+00:00</time>
      </trkpt>
      <trkpt lat="49.90051" lon="6.13059">
        <ele>398</ele>
        <time>2026-08-26T11:25:23+00:00</time>
      </trkpt>
      <trkpt lat="49.90056" lon="6.13072">
        <ele>398</ele>
        <time>2026-08-26T11:25:26+00:00</time>
      </trkpt>
      <trkpt lat="49.90056" lon="6.1308">
        <ele>398</ele>
        <time>2026-08-26T11:25:29+00:00</time>
      </trkpt>
      <trkpt lat="49.90063" lon="6.13096">
        <ele>390</ele>
        <time>2026-08-26T11:25:32+00:00</time>
      </trkpt>
      <trkpt lat="49.90075" lon="6.13123">
        <ele>394</ele>
        <time>2026-08-26T11:25:35+00:00</time>
      </trkpt>
      <trkpt lat="49.9009" lon="6.13139">
        <ele>396</ele>
        <time>2026-08-26T11:25:38+00:00</time>
      </trkpt>
      <trkpt lat="49.90102" lon="6.13149">
        <ele>397</ele>
        <time>2026-08-26T11:25:41+00:00</time>
      </trkpt>
      <trkpt lat="49.90191" lon="6.13186">
        <ele>398</ele>
        <time>2026-08-26T11:25:44+00:00</time>
      </trkpt>
      <trkpt lat="49.90203" lon="6.13188">
        <ele>398</ele>
        <time>2026-08-26T11:25:47+00:00</time>
      </trkpt>
      <trkpt lat="49.90224" lon="6.13182">
        <ele>401</ele>
        <time>2026-08-26T11:25:50+00:00</time>
      </trkpt>
      <trkpt lat="49.90242" lon="6.13167">
        <ele>403</ele>
        <time>2026-08-26T11:25:53+00:00</time>
      </trkpt>
      <trkpt lat="49.90252" lon="6.13153">
        <ele>403</ele>
        <time>2026-08-26T11:25:56+00:00</time>
      </trkpt>
      <trkpt lat="49.90261" lon="6.13133">
        <ele>403</ele>
        <time>2026-08-26T11:25:59+00:00</time>
      </trkpt>
      <trkpt lat="49.90267" lon="6.13124">
        <ele>404</ele>
        <time>2026-08-26T11:26:02+00:00</time>
      </trkpt>
      <trkpt lat="49.90274" lon="6.13121">
        <ele>402</ele>
        <time>2026-08-26T11:26:05+00:00</time>
      </trkpt>
      <trkpt lat="49.90284" lon="6.1313">
        <ele>401</ele>
        <time>2026-08-26T11:26:08+00:00</time>
      </trkpt>
      <trkpt lat="49.90336" lon="6.1322">
        <ele>399</ele>
        <time>2026-08-26T11:26:11+00:00</time>
      </trkpt>
      <trkpt lat="49.90363" lon="6.13266">
        <ele>396</ele>
        <time>2026-08-26T11:26:14+00:00</time>
      </trkpt>
      <trkpt lat="49.90405" lon="6.1333">
        <ele>391</ele>
        <time>2026-08-26T11:26:17+00:00</time>
      </trkpt>
      <trkpt lat="49.90419" lon="6.13347">
        <ele>390</ele>
        <time>2026-08-26T11:26:20+00:00</time>
      </trkpt>
      <trkpt lat="49.90433" lon="6.1336">
        <ele>389</ele>
        <time>2026-08-26T11:26:23+00:00</time>
      </trkpt>
      <trkpt lat="49.90538" lon="6.13411">
        <ele>385</ele>
        <time>2026-08-26T11:26:26+00:00</time>
      </trkpt>
      <trkpt lat="49.90574" lon="6.13439">
        <ele>384</ele>
        <time>2026-08-26T11:26:29+00:00</time>
      </trkpt>
      <trkpt lat="49.90616" lon="6.13478">
        <ele>383</ele>
        <time>2026-08-26T11:26:32+00:00</time>
      </trkpt>
      <trkpt lat="49.90628" lon="6.13488">
        <ele>383</ele>
        <time>2026-08-26T11:26:35+00:00</time>
      </trkpt>
      <trkpt lat="49.90644" lon="6.13493">
        <ele>382</ele>
        <time>2026-08-26T11:26:38+00:00</time>
      </trkpt>
      <trkpt lat="49.90651" lon="6.13504">
        <ele>381</ele>
        <time>2026-08-26T11:26:41+00:00</time>
      </trkpt>
      <trkpt lat="49.90662" lon="6.13515">
        <ele>381</ele>
        <time>2026-08-26T11:26:44+00:00</time>
      </trkpt>
      <trkpt lat="49.90703" lon="6.13546">
        <ele>380</ele>
        <time>2026-08-26T11:26:47+00:00</time>
      </trkpt>
      <trkpt lat="49.90735" lon="6.13568">
        <ele>378</ele>
        <time>2026-08-26T11:26:50+00:00</time>
      </trkpt>
      <trkpt lat="49.90787" lon="6.1361">
        <ele>378</ele>
        <time>2026-08-26T11:26:53+00:00</time>
      </trkpt>
      <trkpt lat="49.90804" lon="6.13629">
        <ele>377</ele>
        <time>2026-08-26T11:26:56+00:00</time>
      </trkpt>
      <trkpt lat="49.90833" lon="6.13672">
        <ele>377</ele>
        <time>2026-08-26T11:26:59+00:00</time>
      </trkpt>
      <trkpt lat="49.90835" lon="6.13675">
        <ele>377</ele>
        <time>2026-08-26T11:27:02+00:00</time>
      </trkpt>
      <trkpt lat="49.90843" lon="6.13678">
        <ele>374</ele>
        <time>2026-08-26T11:27:05+00:00</time>
      </trkpt>
      <trkpt lat="49.90862" lon="6.13676">
        <ele>374</ele>
        <time>2026-08-26T11:27:08+00:00</time>
      </trkpt>
      <trkpt lat="49.90876" lon="6.13678">
        <ele>374</ele>
        <time>2026-08-26T11:27:11+00:00</time>
      </trkpt>
      <trkpt lat="49.90902" lon="6.13687">
        <ele>374</ele>
        <time>2026-08-26T11:27:14+00:00</time>
      </trkpt>
      <trkpt lat="49.90952" lon="6.13731">
        <ele>352</ele>
        <time>2026-08-26T11:27:17+00:00</time>
      </trkpt>
      <trkpt lat="49.90965" lon="6.1374">
        <ele>350</ele>
        <time>2026-08-26T11:27:20+00:00</time>
      </trkpt>
      <trkpt lat="49.91016" lon="6.13762">
        <ele>333</ele>
        <time>2026-08-26T11:27:23+00:00</time>
      </trkpt>
      <trkpt lat="49.91058" lon="6.13776">
        <ele>333</ele>
        <time>2026-08-26T11:27:26+00:00</time>
      </trkpt>
      <trkpt lat="49.91064" lon="6.13776">
        <ele>333</ele>
        <time>2026-08-26T11:27:29+00:00</time>
      </trkpt>
      <trkpt lat="49.91069" lon="6.13773">
        <ele>333</ele>
        <time>2026-08-26T11:27:32+00:00</time>
      </trkpt>
      <trkpt lat="49.91077" lon="6.13761">
        <ele>333</ele>
        <time>2026-08-26T11:27:35+00:00</time>
      </trkpt>
      <trkpt lat="49.91079" lon="6.13758">
        <ele>333</ele>
        <time>2026-08-26T11:27:38+00:00</time>
      </trkpt>
      <trkpt lat="49.9108" lon="6.13758">
        <ele>317</ele>
        <time>2026-08-26T11:27:41+00:00</time>
      </trkpt>
      <trkpt lat="49.91095" lon="6.13736">
        <ele>302</ele>
        <time>2026-08-26T11:27:44+00:00</time>
      </trkpt>
      <trkpt lat="49.91102" lon="6.13722">
        <ele>302</ele>
        <time>2026-08-26T11:27:47+00:00</time>
      </trkpt>
      <trkpt lat="49.91106" lon="6.13724">
        <ele>303</ele>
        <time>2026-08-26T11:27:50+00:00</time>
      </trkpt>
      <trkpt lat="49.91108" lon="6.1373">
        <ele>305</ele>
        <time>2026-08-26T11:27:53+00:00</time>
      </trkpt>
      <trkpt lat="49.91112" lon="6.13747">
        <ele>296</ele>
        <time>2026-08-26T11:27:56+00:00</time>
      </trkpt>
      <trkpt lat="49.91114" lon="6.13749">
        <ele>296</ele>
        <time>2026-08-26T11:27:59+00:00</time>
      </trkpt>
      <trkpt lat="49.91116" lon="6.13747">
        <ele>296</ele>
        <time>2026-08-26T11:28:02+00:00</time>
      </trkpt>
      <trkpt lat="49.91129" lon="6.13717">
        <ele>296</ele>
        <time>2026-08-26T11:28:05+00:00</time>
      </trkpt>
      <trkpt lat="49.91131" lon="6.13706">
        <ele>296</ele>
        <time>2026-08-26T11:28:08+00:00</time>
      </trkpt>
      <trkpt lat="49.91132" lon="6.13695">
        <ele>296</ele>
        <time>2026-08-26T11:28:11+00:00</time>
      </trkpt>
      <trkpt lat="49.91135" lon="6.13687">
        <ele>296</ele>
        <time>2026-08-26T11:28:14+00:00</time>
      </trkpt>
      <trkpt lat="49.91135" lon="6.13672">
        <ele>296</ele>
        <time>2026-08-26T11:28:17+00:00</time>
      </trkpt>
      <trkpt lat="49.91137" lon="6.13675">
        <ele>296</ele>
        <time>2026-08-26T11:28:20+00:00</time>
      </trkpt>
      <trkpt lat="49.91144" lon="6.13669">
        <ele>296</ele>
        <time>2026-08-26T11:28:23+00:00</time>
      </trkpt>
      <trkpt lat="49.91158" lon="6.13654">
        <ele>278</ele>
        <time>2026-08-26T11:28:26+00:00</time>
      </trkpt>
      <trkpt lat="49.91169" lon="6.13676">
        <ele>275</ele>
        <time>2026-08-26T11:28:29+00:00</time>
      </trkpt>
      <trkpt lat="49.91173" lon="6.13688">
        <ele>272</ele>
        <time>2026-08-26T11:28:32+00:00</time>
      </trkpt>
      <trkpt lat="49.91181" lon="6.13684">
        <ele>272</ele>
        <time>2026-08-26T11:28:35+00:00</time>
      </trkpt>
      <trkpt lat="49.91191" lon="6.13706">
        <ele>272</ele>
        <time>2026-08-26T11:28:38+00:00</time>
      </trkpt>
      <trkpt lat="49.91192" lon="6.13709">
        <ele>272</ele>
        <time>2026-08-26T11:28:41+00:00</time>
      </trkpt>
      <trkpt lat="49.9119" lon="6.13711">
        <ele>272</ele>
        <time>2026-08-26T11:28:44+00:00</time>
      </trkpt>
      <trkpt lat="49.91196" lon="6.13723">
        <ele>272</ele>
        <time>2026-08-26T11:28:47+00:00</time>
      </trkpt>
      <trkpt lat="49.91196" lon="6.13729">
        <ele>272</ele>
        <time>2026-08-26T11:28:50+00:00</time>
      </trkpt>
      <trkpt lat="49.91199" lon="6.13735">
        <ele>272</ele>
        <time>2026-08-26T11:28:53+00:00</time>
      </trkpt>
      <trkpt lat="49.912" lon="6.13735">
        <ele>272</ele>
        <time>2026-08-26T11:28:56+00:00</time>
      </trkpt>
      <trkpt lat="49.912" lon="6.13733">
        <ele>272</ele>
        <time>2026-08-26T11:28:59+00:00</time>
      </trkpt>
      <trkpt lat="49.91202" lon="6.13734">
        <ele>272</ele>
        <time>2026-08-26T11:29:02+00:00</time>
      </trkpt>
      <trkpt lat="49.91202" lon="6.13732">
        <ele>272</ele>
        <time>2026-08-26T11:29:05+00:00</time>
      </trkpt>
      <trkpt lat="49.91205" lon="6.13731">
        <ele>272</ele>
        <time>2026-08-26T11:29:08+00:00</time>
      </trkpt>
      <trkpt lat="49.91207" lon="6.1372">
        <ele>272</ele>
        <time>2026-08-26T11:29:11+00:00</time>
      </trkpt>
      <trkpt lat="49.91209" lon="6.13719">
        <ele>272</ele>
        <time>2026-08-26T11:29:14+00:00</time>
      </trkpt>
      <trkpt lat="49.91211" lon="6.13721">
        <ele>272</ele>
        <time>2026-08-26T11:29:17+00:00</time>
      </trkpt>
      <trkpt lat="49.91212" lon="6.13739">
        <ele>272</ele>
        <time>2026-08-26T11:29:20+00:00</time>
      </trkpt>
      <trkpt lat="49.91213" lon="6.13741">
        <ele>272</ele>
        <time>2026-08-26T11:29:23+00:00</time>
      </trkpt>
      <trkpt lat="49.91215" lon="6.1374">
        <ele>272</ele>
        <time>2026-08-26T11:29:26+00:00</time>
      </trkpt>
      <trkpt lat="49.91219" lon="6.13722">
        <ele>272</ele>
        <time>2026-08-26T11:29:29+00:00</time>
      </trkpt>
      <trkpt lat="49.91223" lon="6.13723">
        <ele>272</ele>
        <time>2026-08-26T11:29:32+00:00</time>
      </trkpt>
      <trkpt lat="49.91227" lon="6.13746">
        <ele>272</ele>
        <time>2026-08-26T11:29:35+00:00</time>
      </trkpt>
      <trkpt lat="49.91232" lon="6.13757">
        <ele>272</ele>
        <time>2026-08-26T11:29:38+00:00</time>
      </trkpt>
      <trkpt lat="49.91232" lon="6.13765">
        <ele>272</ele>
        <time>2026-08-26T11:29:41+00:00</time>
      </trkpt>
      <trkpt lat="49.91236" lon="6.13773">
        <ele>272</ele>
        <time>2026-08-26T11:29:44+00:00</time>
      </trkpt>
      <trkpt lat="49.91236" lon="6.13773">
        <ele>275</ele>
        <time>2026-08-26T11:29:47+00:00</time>
      </trkpt>
      <trkpt lat="49.91236" lon="6.13773">
        <ele>272</ele>
        <time>2026-08-26T11:29:50+00:00</time>
      </trkpt>
      <trkpt lat="49.91227" lon="6.13844">
        <ele>273</ele>
        <time>2026-08-26T11:29:53+00:00</time>
      </trkpt>
      <trkpt lat="49.91225" lon="6.13845">
        <ele>273</ele>
        <time>2026-08-26T11:29:56+00:00</time>
      </trkpt>
      <trkpt lat="49.91219" lon="6.1383">
        <ele>272</ele>
        <time>2026-08-26T11:29:59+00:00</time>
      </trkpt>
      <trkpt lat="49.91217" lon="6.1383">
        <ele>272</ele>
        <time>2026-08-26T11:30:02+00:00</time>
      </trkpt>
      <trkpt lat="49.9121" lon="6.13856">
        <ele>272</ele>
        <time>2026-08-26T11:30:05+00:00</time>
      </trkpt>
      <trkpt lat="49.912" lon="6.13865">
        <ele>272</ele>
        <time>2026-08-26T11:30:08+00:00</time>
      </trkpt>
      <trkpt lat="49.91198" lon="6.13874">
        <ele>272</ele>
        <time>2026-08-26T11:30:11+00:00</time>
      </trkpt>
      <trkpt lat="49.91196" lon="6.13868">
        <ele>272</ele>
        <time>2026-08-26T11:30:14+00:00</time>
      </trkpt>
      <trkpt lat="49.91191" lon="6.13873">
        <ele>272</ele>
        <time>2026-08-26T11:30:17+00:00</time>
      </trkpt>
      <trkpt lat="49.91186" lon="6.13884">
        <ele>273</ele>
        <time>2026-08-26T11:30:20+00:00</time>
      </trkpt>
      <trkpt lat="49.91184" lon="6.13885">
        <ele>273</ele>
        <time>2026-08-26T11:30:23+00:00</time>
      </trkpt>
      <trkpt lat="49.91175" lon="6.13904">
        <ele>273</ele>
        <time>2026-08-26T11:30:26+00:00</time>
      </trkpt>
      <trkpt lat="49.91172" lon="6.13906">
        <ele>273</ele>
        <time>2026-08-26T11:30:29+00:00</time>
      </trkpt>
      <trkpt lat="49.91168" lon="6.13911">
        <ele>272</ele>
        <time>2026-08-26T11:30:32+00:00</time>
      </trkpt>
      <trkpt lat="49.91171" lon="6.1391">
        <ele>272</ele>
        <time>2026-08-26T11:30:35+00:00</time>
      </trkpt>
      <trkpt lat="49.91166" lon="6.13918">
        <ele>268</ele>
        <time>2026-08-26T11:30:38+00:00</time>
      </trkpt>
      <trkpt lat="49.91164" lon="6.1392">
        <ele>268</ele>
        <time>2026-08-26T11:30:41+00:00</time>
      </trkpt>
      <trkpt lat="49.91153" lon="6.13928">
        <ele>268</ele>
        <time>2026-08-26T11:30:44+00:00</time>
      </trkpt>
      <trkpt lat="49.91153" lon="6.13931">
        <ele>268</ele>
        <time>2026-08-26T11:30:47+00:00</time>
      </trkpt>
      <trkpt lat="49.91157" lon="6.13929">
        <ele>268</ele>
        <time>2026-08-26T11:30:50+00:00</time>
      </trkpt>
      <trkpt lat="49.91163" lon="6.1393">
        <ele>268</ele>
        <time>2026-08-26T11:30:53+00:00</time>
      </trkpt>
      <trkpt lat="49.91163" lon="6.13933">
        <ele>268</ele>
        <time>2026-08-26T11:30:56+00:00</time>
      </trkpt>
      <trkpt lat="49.9116" lon="6.13934">
        <ele>268</ele>
        <time>2026-08-26T11:30:59+00:00</time>
      </trkpt>
      <trkpt lat="49.91161" lon="6.13937">
        <ele>268</ele>
        <time>2026-08-26T11:31:02+00:00</time>
      </trkpt>
      <trkpt lat="49.91163" lon="6.13936">
        <ele>268</ele>
        <time>2026-08-26T11:31:05+00:00</time>
      </trkpt>
      <trkpt lat="49.91162" lon="6.1394">
        <ele>268</ele>
        <time>2026-08-26T11:31:08+00:00</time>
      </trkpt>
      <trkpt lat="49.91163" lon="6.13945">
        <ele>268</ele>
        <time>2026-08-26T11:31:11+00:00</time>
      </trkpt>
      <trkpt lat="49.91164" lon="6.13951">
        <ele>268</ele>
        <time>2026-08-26T11:31:14+00:00</time>
      </trkpt>
      <trkpt lat="49.91196" lon="6.13929">
        <ele>282</ele>
        <time>2026-08-26T11:31:17+00:00</time>
      </trkpt>
      <trkpt lat="49.91215" lon="6.1392">
        <ele>283</ele>
        <time>2026-08-26T11:31:20+00:00</time>
      </trkpt>
      <trkpt lat="49.91284" lon="6.13889">
        <ele>302</ele>
        <time>2026-08-26T11:31:23+00:00</time>
      </trkpt>
      <trkpt lat="49.91336" lon="6.1385">
        <ele>305</ele>
        <time>2026-08-26T11:31:26+00:00</time>
      </trkpt>
      <trkpt lat="49.91389" lon="6.1382">
        <ele>315</ele>
        <time>2026-08-26T11:31:29+00:00</time>
      </trkpt>
      <trkpt lat="49.91395" lon="6.13832">
        <ele>315</ele>
        <time>2026-08-26T11:31:32+00:00</time>
      </trkpt>
      <trkpt lat="49.91395" lon="6.13831">
        <ele>315</ele>
        <time>2026-08-26T11:31:35+00:00</time>
      </trkpt>
      <trkpt lat="49.91395" lon="6.13832">
        <ele>315</ele>
        <time>2026-08-26T11:31:38+00:00</time>
      </trkpt>
      <trkpt lat="49.91408" lon="6.13853">
        <ele>300</ele>
        <time>2026-08-26T11:31:41+00:00</time>
      </trkpt>
      <trkpt lat="49.91413" lon="6.13859">
        <ele>301</ele>
        <time>2026-08-26T11:31:44+00:00</time>
      </trkpt>
      <trkpt lat="49.91419" lon="6.1386">
        <ele>302</ele>
        <time>2026-08-26T11:31:47+00:00</time>
      </trkpt>
      <trkpt lat="49.91466" lon="6.1385">
        <ele>305</ele>
        <time>2026-08-26T11:31:50+00:00</time>
      </trkpt>
      <trkpt lat="49.91517" lon="6.1383">
        <ele>307</ele>
        <time>2026-08-26T11:31:53+00:00</time>
      </trkpt>
      <trkpt lat="49.91548" lon="6.1382">
        <ele>309</ele>
        <time>2026-08-26T11:31:56+00:00</time>
      </trkpt>
      <trkpt lat="49.91559" lon="6.13819">
        <ele>309</ele>
        <time>2026-08-26T11:31:59+00:00</time>
      </trkpt>
      <trkpt lat="49.91665" lon="6.13829">
        <ele>314</ele>
        <time>2026-08-26T11:32:02+00:00</time>
      </trkpt>
      <trkpt lat="49.91673" lon="6.13832">
        <ele>314</ele>
        <time>2026-08-26T11:32:05+00:00</time>
      </trkpt>
      <trkpt lat="49.91694" lon="6.13849">
        <ele>316</ele>
        <time>2026-08-26T11:32:08+00:00</time>
      </trkpt>
      <trkpt lat="49.91701" lon="6.1385">
        <ele>316</ele>
        <time>2026-08-26T11:32:11+00:00</time>
      </trkpt>
      <trkpt lat="49.91765" lon="6.13842">
        <ele>316</ele>
        <time>2026-08-26T11:32:14+00:00</time>
      </trkpt>
      <trkpt lat="49.91796" lon="6.13851">
        <ele>317</ele>
        <time>2026-08-26T11:32:17+00:00</time>
      </trkpt>
      <trkpt lat="49.91816" lon="6.1385">
        <ele>317</ele>
        <time>2026-08-26T11:32:20+00:00</time>
      </trkpt>
      <trkpt lat="49.91818" lon="6.13853">
        <ele>319</ele>
        <time>2026-08-26T11:32:23+00:00</time>
      </trkpt>
      <trkpt lat="49.91816" lon="6.13858">
        <ele>317</ele>
        <time>2026-08-26T11:32:26+00:00</time>
      </trkpt>
      <trkpt lat="49.9181" lon="6.13861">
        <ele>316</ele>
        <time>2026-08-26T11:32:29+00:00</time>
      </trkpt>
      <trkpt lat="49.91759" lon="6.13866">
        <ele>316</ele>
        <time>2026-08-26T11:32:32+00:00</time>
      </trkpt>
      <trkpt lat="49.91721" lon="6.13887">
        <ele>315</ele>
        <time>2026-08-26T11:32:35+00:00</time>
      </trkpt>
      <trkpt lat="49.91713" lon="6.13895">
        <ele>316</ele>
        <time>2026-08-26T11:32:38+00:00</time>
      </trkpt>
      <trkpt lat="49.91704" lon="6.1391">
        <ele>314</ele>
        <time>2026-08-26T11:32:41+00:00</time>
      </trkpt>
      <trkpt lat="49.91698" lon="6.1392">
        <ele>326</ele>
        <time>2026-08-26T11:32:44+00:00</time>
      </trkpt>
      <trkpt lat="49.91687" lon="6.13927">
        <ele>324</ele>
        <time>2026-08-26T11:32:47+00:00</time>
      </trkpt>
      <trkpt lat="49.91674" lon="6.13924">
        <ele>322</ele>
        <time>2026-08-26T11:32:50+00:00</time>
      </trkpt>
      <trkpt lat="49.91652" lon="6.13908">
        <ele>321</ele>
        <time>2026-08-26T11:32:53+00:00</time>
      </trkpt>
      <trkpt lat="49.91634" lon="6.13905">
        <ele>322</ele>
        <time>2026-08-26T11:32:56+00:00</time>
      </trkpt>
      <trkpt lat="49.91624" lon="6.13907">
        <ele>323</ele>
        <time>2026-08-26T11:32:59+00:00</time>
      </trkpt>
      <trkpt lat="49.91609" lon="6.13919">
        <ele>324</ele>
        <time>2026-08-26T11:33:02+00:00</time>
      </trkpt>
      <trkpt lat="49.91578" lon="6.13937">
        <ele>323</ele>
        <time>2026-08-26T11:33:05+00:00</time>
      </trkpt>
      <trkpt lat="49.9155" lon="6.13961">
        <ele>324</ele>
        <time>2026-08-26T11:33:08+00:00</time>
      </trkpt>
      <trkpt lat="49.91532" lon="6.13968">
        <ele>326</ele>
        <time>2026-08-26T11:33:11+00:00</time>
      </trkpt>
      <trkpt lat="49.91516" lon="6.13981">
        <ele>328</ele>
        <time>2026-08-26T11:33:14+00:00</time>
      </trkpt>
      <trkpt lat="49.91508" lon="6.13987">
        <ele>330</ele>
        <time>2026-08-26T11:33:17+00:00</time>
      </trkpt>
      <trkpt lat="49.91459" lon="6.14041">
        <ele>334</ele>
        <time>2026-08-26T11:33:20+00:00</time>
      </trkpt>
      <trkpt lat="49.91427" lon="6.14082">
        <ele>336</ele>
        <time>2026-08-26T11:33:23+00:00</time>
      </trkpt>
      <trkpt lat="49.91408" lon="6.14098">
        <ele>345</ele>
        <time>2026-08-26T11:33:26+00:00</time>
      </trkpt>
      <trkpt lat="49.91408" lon="6.14108">
        <ele>345</ele>
        <time>2026-08-26T11:33:29+00:00</time>
      </trkpt>
      <trkpt lat="49.91413" lon="6.14114">
        <ele>345</ele>
        <time>2026-08-26T11:33:32+00:00</time>
      </trkpt>
      <trkpt lat="49.91416" lon="6.14115">
        <ele>345</ele>
        <time>2026-08-26T11:33:35+00:00</time>
      </trkpt>
      <trkpt lat="49.91452" lon="6.14084">
        <ele>349</ele>
        <time>2026-08-26T11:33:38+00:00</time>
      </trkpt>
      <trkpt lat="49.91497" lon="6.14057">
        <ele>356</ele>
        <time>2026-08-26T11:33:41+00:00</time>
      </trkpt>
      <trkpt lat="49.91529" lon="6.14041">
        <ele>361</ele>
        <time>2026-08-26T11:33:44+00:00</time>
      </trkpt>
      <trkpt lat="49.91535" lon="6.14039">
        <ele>361</ele>
        <time>2026-08-26T11:33:47+00:00</time>
      </trkpt>
      <trkpt lat="49.9159" lon="6.14035">
        <ele>373</ele>
        <time>2026-08-26T11:33:50+00:00</time>
      </trkpt>
      <trkpt lat="49.91605" lon="6.14037">
        <ele>375</ele>
        <time>2026-08-26T11:33:53+00:00</time>
      </trkpt>
      <trkpt lat="49.91619" lon="6.14047">
        <ele>377</ele>
        <time>2026-08-26T11:33:56+00:00</time>
      </trkpt>
      <trkpt lat="49.9163" lon="6.14059">
        <ele>377</ele>
        <time>2026-08-26T11:33:59+00:00</time>
      </trkpt>
      <trkpt lat="49.91656" lon="6.14095">
        <ele>378</ele>
        <time>2026-08-26T11:34:02+00:00</time>
      </trkpt>
      <trkpt lat="49.91675" lon="6.14115">
        <ele>380</ele>
        <time>2026-08-26T11:34:05+00:00</time>
      </trkpt>
      <trkpt lat="49.91685" lon="6.14123">
        <ele>379</ele>
        <time>2026-08-26T11:34:08+00:00</time>
      </trkpt>
      <trkpt lat="49.91709" lon="6.14129">
        <ele>378</ele>
        <time>2026-08-26T11:34:11+00:00</time>
      </trkpt>
      <trkpt lat="49.91721" lon="6.14125">
        <ele>378</ele>
        <time>2026-08-26T11:34:14+00:00</time>
      </trkpt>
      <trkpt lat="49.91737" lon="6.14115">
        <ele>379</ele>
        <time>2026-08-26T11:34:17+00:00</time>
      </trkpt>
      <trkpt lat="49.91738" lon="6.14113">
        <ele>379</ele>
        <time>2026-08-26T11:34:20+00:00</time>
      </trkpt>
      <trkpt lat="49.91768" lon="6.14067">
        <ele>378</ele>
        <time>2026-08-26T11:34:23+00:00</time>
      </trkpt>
      <trkpt lat="49.91777" lon="6.14061">
        <ele>379</ele>
        <time>2026-08-26T11:34:26+00:00</time>
      </trkpt>
      <trkpt lat="49.91841" lon="6.14047">
        <ele>380</ele>
        <time>2026-08-26T11:34:29+00:00</time>
      </trkpt>
      <trkpt lat="49.91853" lon="6.14046">
        <ele>380</ele>
        <time>2026-08-26T11:34:32+00:00</time>
      </trkpt>
      <trkpt lat="49.91861" lon="6.1405">
        <ele>380</ele>
        <time>2026-08-26T11:34:35+00:00</time>
      </trkpt>
      <trkpt lat="49.91873" lon="6.14061">
        <ele>384</ele>
        <time>2026-08-26T11:34:38+00:00</time>
      </trkpt>
      <trkpt lat="49.91875" lon="6.14065">
        <ele>388</ele>
        <time>2026-08-26T11:34:41+00:00</time>
      </trkpt>
      <trkpt lat="49.91873" lon="6.1407">
        <ele>389</ele>
        <time>2026-08-26T11:34:44+00:00</time>
      </trkpt>
      <trkpt lat="49.91857" lon="6.14064">
        <ele>390</ele>
        <time>2026-08-26T11:34:47+00:00</time>
      </trkpt>
      <trkpt lat="49.91851" lon="6.14064">
        <ele>391</ele>
        <time>2026-08-26T11:34:50+00:00</time>
      </trkpt>
      <trkpt lat="49.9184" lon="6.14074">
        <ele>392</ele>
        <time>2026-08-26T11:34:53+00:00</time>
      </trkpt>
      <trkpt lat="49.91835" lon="6.14084">
        <ele>392</ele>
        <time>2026-08-26T11:34:56+00:00</time>
      </trkpt>
      <trkpt lat="49.91833" lon="6.14093">
        <ele>391</ele>
        <time>2026-08-26T11:34:59+00:00</time>
      </trkpt>
      <trkpt lat="49.9183" lon="6.14123">
        <ele>390</ele>
        <time>2026-08-26T11:35:02+00:00</time>
      </trkpt>
      <trkpt lat="49.91833" lon="6.14129">
        <ele>392</ele>
        <time>2026-08-26T11:35:05+00:00</time>
      </trkpt>
      <trkpt lat="49.91837" lon="6.14128">
        <ele>409</ele>
        <time>2026-08-26T11:35:08+00:00</time>
      </trkpt>
      <trkpt lat="49.91851" lon="6.14108">
        <ele>409</ele>
        <time>2026-08-26T11:35:11+00:00</time>
      </trkpt>
      <trkpt lat="49.9186" lon="6.14109">
        <ele>409</ele>
        <time>2026-08-26T11:35:14+00:00</time>
      </trkpt>
      <trkpt lat="49.9187" lon="6.14126">
        <ele>409</ele>
        <time>2026-08-26T11:35:17+00:00</time>
      </trkpt>
      <trkpt lat="49.91876" lon="6.14204">
        <ele>410</ele>
        <time>2026-08-26T11:35:20+00:00</time>
      </trkpt>
      <trkpt lat="49.91877" lon="6.14209">
        <ele>410</ele>
        <time>2026-08-26T11:35:23+00:00</time>
      </trkpt>
      <trkpt lat="49.91883" lon="6.14244">
        <ele>410</ele>
        <time>2026-08-26T11:35:26+00:00</time>
      </trkpt>
      <trkpt lat="49.91898" lon="6.14291">
        <ele>409</ele>
        <time>2026-08-26T11:35:29+00:00</time>
      </trkpt>
      <trkpt lat="49.91909" lon="6.14346">
        <ele>420</ele>
        <time>2026-08-26T11:35:32+00:00</time>
      </trkpt>
      <trkpt lat="49.91919" lon="6.14374">
        <ele>429</ele>
        <time>2026-08-26T11:35:35+00:00</time>
      </trkpt>
      <trkpt lat="49.91927" lon="6.14405">
        <ele>429</ele>
        <time>2026-08-26T11:35:38+00:00</time>
      </trkpt>
      <trkpt lat="49.91948" lon="6.14517">
        <ele>429</ele>
        <time>2026-08-26T11:35:41+00:00</time>
      </trkpt>
      <trkpt lat="49.91951" lon="6.1456">
        <ele>432</ele>
        <time>2026-08-26T11:35:44+00:00</time>
      </trkpt>
      <trkpt lat="49.91952" lon="6.14588">
        <ele>435</ele>
        <time>2026-08-26T11:35:47+00:00</time>
      </trkpt>
      <trkpt lat="49.91954" lon="6.14621">
        <ele>434</ele>
        <time>2026-08-26T11:35:50+00:00</time>
      </trkpt>
      <trkpt lat="49.91967" lon="6.14707">
        <ele>434</ele>
        <time>2026-08-26T11:35:53+00:00</time>
      </trkpt>
      <trkpt lat="49.91969" lon="6.14734">
        <ele>434</ele>
        <time>2026-08-26T11:35:56+00:00</time>
      </trkpt>
      <trkpt lat="49.91971" lon="6.14888">
        <ele>434</ele>
        <time>2026-08-26T11:35:59+00:00</time>
      </trkpt>
      <trkpt lat="49.91969" lon="6.14913">
        <ele>434</ele>
        <time>2026-08-26T11:36:02+00:00</time>
      </trkpt>
      <trkpt lat="49.91962" lon="6.14923">
        <ele>435</ele>
        <time>2026-08-26T11:36:05+00:00</time>
      </trkpt>
      <trkpt lat="49.91909" lon="6.14933">
        <ele>422</ele>
        <time>2026-08-26T11:36:08+00:00</time>
      </trkpt>
      <trkpt lat="49.91875" lon="6.14951">
        <ele>421</ele>
        <time>2026-08-26T11:36:11+00:00</time>
      </trkpt>
      <trkpt lat="49.91798" lon="6.14974">
        <ele>418</ele>
        <time>2026-08-26T11:36:14+00:00</time>
      </trkpt>
      <trkpt lat="49.91781" lon="6.14974">
        <ele>416</ele>
        <time>2026-08-26T11:36:17+00:00</time>
      </trkpt>
      <trkpt lat="49.91767" lon="6.14969">
        <ele>415</ele>
        <time>2026-08-26T11:36:20+00:00</time>
      </trkpt>
      <trkpt lat="49.91763" lon="6.14965">
        <ele>413</ele>
        <time>2026-08-26T11:36:23+00:00</time>
      </trkpt>
      <trkpt lat="49.91753" lon="6.14985">
        <ele>413</ele>
        <time>2026-08-26T11:36:26+00:00</time>
      </trkpt>
      <trkpt lat="49.91752" lon="6.15">
        <ele>416</ele>
        <time>2026-08-26T11:36:29+00:00</time>
      </trkpt>
      <trkpt lat="49.91776" lon="6.15155">
        <ele>417</ele>
        <time>2026-08-26T11:36:32+00:00</time>
      </trkpt>
      <trkpt lat="49.91777" lon="6.15217">
        <ele>419</ele>
        <time>2026-08-26T11:36:35+00:00</time>
      </trkpt>
      <trkpt lat="49.91785" lon="6.15284">
        <ele>419</ele>
        <time>2026-08-26T11:36:38+00:00</time>
      </trkpt>
      <trkpt lat="49.91785" lon="6.15284">
        <ele>419</ele>
        <time>2026-08-26T11:36:41+00:00</time>
      </trkpt>
      <trkpt lat="49.91785" lon="6.15291">
        <ele>420</ele>
        <time>2026-08-26T11:36:44+00:00</time>
      </trkpt>
      <trkpt lat="49.91802" lon="6.15297">
        <ele>420</ele>
        <time>2026-08-26T11:36:47+00:00</time>
      </trkpt>
      <trkpt lat="49.91807" lon="6.15321">
        <ele>421</ele>
        <time>2026-08-26T11:36:50+00:00</time>
      </trkpt>
      <trkpt lat="49.91824" lon="6.15372">
        <ele>421</ele>
        <time>2026-08-26T11:36:53+00:00</time>
      </trkpt>
      <trkpt lat="49.91834" lon="6.15396">
        <ele>421</ele>
        <time>2026-08-26T11:36:56+00:00</time>
      </trkpt>
      <trkpt lat="49.91877" lon="6.15484">
        <ele>423</ele>
        <time>2026-08-26T11:36:59+00:00</time>
      </trkpt>
      <trkpt lat="49.91923" lon="6.15569">
        <ele>424</ele>
        <time>2026-08-26T11:37:02+00:00</time>
      </trkpt>
      <trkpt lat="49.91939" lon="6.15604">
        <ele>424</ele>
        <time>2026-08-26T11:37:05+00:00</time>
      </trkpt>
      <trkpt lat="49.91954" lon="6.15639">
        <ele>424</ele>
        <time>2026-08-26T11:37:08+00:00</time>
      </trkpt>
      <trkpt lat="49.91954" lon="6.15647">
        <ele>424</ele>
        <time>2026-08-26T11:37:11+00:00</time>
      </trkpt>
      <trkpt lat="49.91951" lon="6.15653">
        <ele>425</ele>
        <time>2026-08-26T11:37:14+00:00</time>
      </trkpt>
      <trkpt lat="49.91918" lon="6.15684">
        <ele>425</ele>
        <time>2026-08-26T11:37:17+00:00</time>
      </trkpt>
      <trkpt lat="49.91916" lon="6.15688">
        <ele>424</ele>
        <time>2026-08-26T11:37:20+00:00</time>
      </trkpt>
      <trkpt lat="49.91916" lon="6.15693">
        <ele>423</ele>
        <time>2026-08-26T11:37:23+00:00</time>
      </trkpt>
      <trkpt lat="49.91987" lon="6.15813">
        <ele>421</ele>
        <time>2026-08-26T11:37:26+00:00</time>
      </trkpt>
      <trkpt lat="49.92005" lon="6.15832">
        <ele>422</ele>
        <time>2026-08-26T11:37:29+00:00</time>
      </trkpt>
      <trkpt lat="49.92042" lon="6.15862">
        <ele>421</ele>
        <time>2026-08-26T11:37:32+00:00</time>
      </trkpt>
      <trkpt lat="49.92083" lon="6.15887">
        <ele>422</ele>
        <time>2026-08-26T11:37:35+00:00</time>
      </trkpt>
      <trkpt lat="49.92119" lon="6.15906">
        <ele>426</ele>
        <time>2026-08-26T11:37:38+00:00</time>
      </trkpt>
      <trkpt lat="49.92078" lon="6.15951">
        <ele>413</ele>
        <time>2026-08-26T11:37:41+00:00</time>
      </trkpt>
      <trkpt lat="49.9205" lon="6.15993">
        <ele>410</ele>
        <time>2026-08-26T11:37:44+00:00</time>
      </trkpt>
      <trkpt lat="49.92011" lon="6.16045">
        <ele>403</ele>
        <time>2026-08-26T11:37:47+00:00</time>
      </trkpt>
      <trkpt lat="49.92" lon="6.16057">
        <ele>399</ele>
        <time>2026-08-26T11:37:50+00:00</time>
      </trkpt>
      <trkpt lat="49.91949" lon="6.16097">
        <ele>391</ele>
        <time>2026-08-26T11:37:53+00:00</time>
      </trkpt>
      <trkpt lat="49.91935" lon="6.16111">
        <ele>388</ele>
        <time>2026-08-26T11:37:56+00:00</time>
      </trkpt>
      <trkpt lat="49.91908" lon="6.16203">
        <ele>383</ele>
        <time>2026-08-26T11:37:59+00:00</time>
      </trkpt>
      <trkpt lat="49.91882" lon="6.1627">
        <ele>365</ele>
        <time>2026-08-26T11:38:02+00:00</time>
      </trkpt>
      <trkpt lat="49.91859" lon="6.16331">
        <ele>365</ele>
        <time>2026-08-26T11:38:05+00:00</time>
      </trkpt>
      <trkpt lat="49.91956" lon="6.16439">
        <ele>367</ele>
        <time>2026-08-26T11:38:08+00:00</time>
      </trkpt>
      <trkpt lat="49.91959" lon="6.16439">
        <ele>368</ele>
        <time>2026-08-26T11:38:11+00:00</time>
      </trkpt>
      <trkpt lat="49.91961" lon="6.16433">
        <ele>368</ele>
        <time>2026-08-26T11:38:14+00:00</time>
      </trkpt>
      <trkpt lat="49.91962" lon="6.16419">
        <ele>368</ele>
        <time>2026-08-26T11:38:17+00:00</time>
      </trkpt>
      <trkpt lat="49.91956" lon="6.16396">
        <ele>369</ele>
        <time>2026-08-26T11:38:20+00:00</time>
      </trkpt>
      <trkpt lat="49.91954" lon="6.16378">
        <ele>369</ele>
        <time>2026-08-26T11:38:23+00:00</time>
      </trkpt>
      <trkpt lat="49.91956" lon="6.16356">
        <ele>370</ele>
        <time>2026-08-26T11:38:26+00:00</time>
      </trkpt>
      <trkpt lat="49.91965" lon="6.16332">
        <ele>370</ele>
        <time>2026-08-26T11:38:29+00:00</time>
      </trkpt>
      <trkpt lat="49.91976" lon="6.16313">
        <ele>370</ele>
        <time>2026-08-26T11:38:32+00:00</time>
      </trkpt>
      <trkpt lat="49.91985" lon="6.16299">
        <ele>370</ele>
        <time>2026-08-26T11:38:35+00:00</time>
      </trkpt>
      <trkpt lat="49.91993" lon="6.16286">
        <ele>370</ele>
        <time>2026-08-26T11:38:38+00:00</time>
      </trkpt>
      <trkpt lat="49.92002" lon="6.1628">
        <ele>370</ele>
        <time>2026-08-26T11:38:41+00:00</time>
      </trkpt>
      <trkpt lat="49.92014" lon="6.16276">
        <ele>369</ele>
        <time>2026-08-26T11:38:44+00:00</time>
      </trkpt>
      <trkpt lat="49.92018" lon="6.16278">
        <ele>373</ele>
        <time>2026-08-26T11:38:47+00:00</time>
      </trkpt>
      <trkpt lat="49.92017" lon="6.16283">
        <ele>367</ele>
        <time>2026-08-26T11:38:50+00:00</time>
      </trkpt>
      <trkpt lat="49.92005" lon="6.16297">
        <ele>367</ele>
        <time>2026-08-26T11:38:53+00:00</time>
      </trkpt>
      <trkpt lat="49.91997" lon="6.16313">
        <ele>368</ele>
        <time>2026-08-26T11:38:56+00:00</time>
      </trkpt>
      <trkpt lat="49.91991" lon="6.16333">
        <ele>368</ele>
        <time>2026-08-26T11:38:59+00:00</time>
      </trkpt>
      <trkpt lat="49.91989" lon="6.1635">
        <ele>367</ele>
        <time>2026-08-26T11:39:02+00:00</time>
      </trkpt>
      <trkpt lat="49.91991" lon="6.16365">
        <ele>366</ele>
        <time>2026-08-26T11:39:05+00:00</time>
      </trkpt>
      <trkpt lat="49.92004" lon="6.16387">
        <ele>365</ele>
        <time>2026-08-26T11:39:08+00:00</time>
      </trkpt>
      <trkpt lat="49.92014" lon="6.16409">
        <ele>364</ele>
        <time>2026-08-26T11:39:11+00:00</time>
      </trkpt>
      <trkpt lat="49.92023" lon="6.16434">
        <ele>363</ele>
        <time>2026-08-26T11:39:14+00:00</time>
      </trkpt>
      <trkpt lat="49.92025" lon="6.16449">
        <ele>363</ele>
        <time>2026-08-26T11:39:17+00:00</time>
      </trkpt>
      <trkpt lat="49.92013" lon="6.16568">
        <ele>355</ele>
        <time>2026-08-26T11:39:20+00:00</time>
      </trkpt>
      <trkpt lat="49.92007" lon="6.16593">
        <ele>352</ele>
        <time>2026-08-26T11:39:23+00:00</time>
      </trkpt>
      <trkpt lat="49.92008" lon="6.16603">
        <ele>346</ele>
        <time>2026-08-26T11:39:26+00:00</time>
      </trkpt>
      <trkpt lat="49.92012" lon="6.16597">
        <ele>349</ele>
        <time>2026-08-26T11:39:29+00:00</time>
      </trkpt>
      <trkpt lat="49.92025" lon="6.16553">
        <ele>349</ele>
        <time>2026-08-26T11:39:32+00:00</time>
      </trkpt>
      <trkpt lat="49.92068" lon="6.16441">
        <ele>349</ele>
        <time>2026-08-26T11:39:35+00:00</time>
      </trkpt>
      <trkpt lat="49.92071" lon="6.16423">
        <ele>350</ele>
        <time>2026-08-26T11:39:38+00:00</time>
      </trkpt>
      <trkpt lat="49.92074" lon="6.16418">
        <ele>351</ele>
        <time>2026-08-26T11:39:41+00:00</time>
      </trkpt>
      <trkpt lat="49.92077" lon="6.16418">
        <ele>353</ele>
        <time>2026-08-26T11:39:44+00:00</time>
      </trkpt>
      <trkpt lat="49.92073" lon="6.16448">
        <ele>349</ele>
        <time>2026-08-26T11:39:47+00:00</time>
      </trkpt>
      <trkpt lat="49.92041" lon="6.16565">
        <ele>341</ele>
        <time>2026-08-26T11:39:50+00:00</time>
      </trkpt>
      <trkpt lat="49.9203" lon="6.16639">
        <ele>335</ele>
        <time>2026-08-26T11:39:53+00:00</time>
      </trkpt>
      <trkpt lat="49.92025" lon="6.16656">
        <ele>334</ele>
        <time>2026-08-26T11:39:56+00:00</time>
      </trkpt>
      <trkpt lat="49.92022" lon="6.16667">
        <ele>333</ele>
        <time>2026-08-26T11:39:59+00:00</time>
      </trkpt>
      <trkpt lat="49.92018" lon="6.16753">
        <ele>332</ele>
        <time>2026-08-26T11:40:02+00:00</time>
      </trkpt>
      <trkpt lat="49.92013" lon="6.16787">
        <ele>333</ele>
        <time>2026-08-26T11:40:05+00:00</time>
      </trkpt>
      <trkpt lat="49.92004" lon="6.16824">
        <ele>334</ele>
        <time>2026-08-26T11:40:08+00:00</time>
      </trkpt>
      <trkpt lat="49.91995" lon="6.16845">
        <ele>335</ele>
        <time>2026-08-26T11:40:11+00:00</time>
      </trkpt>
      <trkpt lat="49.91968" lon="6.16964">
        <ele>336</ele>
        <time>2026-08-26T11:40:14+00:00</time>
      </trkpt>
      <trkpt lat="49.91955" lon="6.16994">
        <ele>336</ele>
        <time>2026-08-26T11:40:17+00:00</time>
      </trkpt>
      <trkpt lat="49.91929" lon="6.17042">
        <ele>336</ele>
        <time>2026-08-26T11:40:20+00:00</time>
      </trkpt>
      <trkpt lat="49.91915" lon="6.17075">
        <ele>334</ele>
        <time>2026-08-26T11:40:23+00:00</time>
      </trkpt>
      <trkpt lat="49.91887" lon="6.17195">
        <ele>330</ele>
        <time>2026-08-26T11:40:26+00:00</time>
      </trkpt>
      <trkpt lat="49.91881" lon="6.17239">
        <ele>329</ele>
        <time>2026-08-26T11:40:29+00:00</time>
      </trkpt>
      <trkpt lat="49.91874" lon="6.1727">
        <ele>318</ele>
        <time>2026-08-26T11:40:32+00:00</time>
      </trkpt>
      <trkpt lat="49.91877" lon="6.17272">
        <ele>318</ele>
        <time>2026-08-26T11:40:35+00:00</time>
      </trkpt>
      <trkpt lat="49.91879" lon="6.17274">
        <ele>318</ele>
        <time>2026-08-26T11:40:38+00:00</time>
      </trkpt>
      <trkpt lat="49.91889" lon="6.17284">
        <ele>312</ele>
        <time>2026-08-26T11:40:41+00:00</time>
      </trkpt>
      <trkpt lat="49.91896" lon="6.17298">
        <ele>312</ele>
        <time>2026-08-26T11:40:44+00:00</time>
      </trkpt>
      <trkpt lat="49.91907" lon="6.17313">
        <ele>313</ele>
        <time>2026-08-26T11:40:47+00:00</time>
      </trkpt>
      <trkpt lat="49.9193" lon="6.17326">
        <ele>312</ele>
        <time>2026-08-26T11:40:50+00:00</time>
      </trkpt>
      <trkpt lat="49.91942" lon="6.17338">
        <ele>299</ele>
        <time>2026-08-26T11:40:53+00:00</time>
      </trkpt>
      <trkpt lat="49.91937" lon="6.1734">
        <ele>299</ele>
        <time>2026-08-26T11:40:56+00:00</time>
      </trkpt>
      <trkpt lat="49.91929" lon="6.17344">
        <ele>299</ele>
        <time>2026-08-26T11:40:59+00:00</time>
      </trkpt>
      <trkpt lat="49.91916" lon="6.1735">
        <ele>307</ele>
        <time>2026-08-26T11:41:02+00:00</time>
      </trkpt>
      <trkpt lat="49.91906" lon="6.17357">
        <ele>303</ele>
        <time>2026-08-26T11:41:05+00:00</time>
      </trkpt>
      <trkpt lat="49.91898" lon="6.17371">
        <ele>302</ele>
        <time>2026-08-26T11:41:08+00:00</time>
      </trkpt>
      <trkpt lat="49.9189" lon="6.17393">
        <ele>300</ele>
        <time>2026-08-26T11:41:11+00:00</time>
      </trkpt>
      <trkpt lat="49.91877" lon="6.17447">
        <ele>298</ele>
        <time>2026-08-26T11:41:14+00:00</time>
      </trkpt>
      <trkpt lat="49.91872" lon="6.17477">
        <ele>298</ele>
        <time>2026-08-26T11:41:17+00:00</time>
      </trkpt>
      <trkpt lat="49.91867" lon="6.17513">
        <ele>298</ele>
        <time>2026-08-26T11:41:20+00:00</time>
      </trkpt>
      <trkpt lat="49.91864" lon="6.1757">
        <ele>294</ele>
        <time>2026-08-26T11:41:23+00:00</time>
      </trkpt>
      <trkpt lat="49.9186" lon="6.17592">
        <ele>292</ele>
        <time>2026-08-26T11:41:26+00:00</time>
      </trkpt>
      <trkpt lat="49.91852" lon="6.17619">
        <ele>291</ele>
        <time>2026-08-26T11:41:29+00:00</time>
      </trkpt>
      <trkpt lat="49.91813" lon="6.17708">
        <ele>286</ele>
        <time>2026-08-26T11:41:32+00:00</time>
      </trkpt>
      <trkpt lat="49.91804" lon="6.17722">
        <ele>286</ele>
        <time>2026-08-26T11:41:35+00:00</time>
      </trkpt>
      <trkpt lat="49.9178" lon="6.17753">
        <ele>285</ele>
        <time>2026-08-26T11:41:38+00:00</time>
      </trkpt>
      <trkpt lat="49.91758" lon="6.17784">
        <ele>284</ele>
        <time>2026-08-26T11:41:41+00:00</time>
      </trkpt>
      <trkpt lat="49.91737" lon="6.17831">
        <ele>283</ele>
        <time>2026-08-26T11:41:44+00:00</time>
      </trkpt>
      <trkpt lat="49.91748" lon="6.17822">
        <ele>283</ele>
        <time>2026-08-26T11:41:47+00:00</time>
      </trkpt>
      <trkpt lat="49.9175" lon="6.17821">
        <ele>283</ele>
        <time>2026-08-26T11:41:50+00:00</time>
      </trkpt>
      <trkpt lat="49.91755" lon="6.1782">
        <ele>283</ele>
        <time>2026-08-26T11:41:53+00:00</time>
      </trkpt>
      <trkpt lat="49.91765" lon="6.17825">
        <ele>283</ele>
        <time>2026-08-26T11:41:56+00:00</time>
      </trkpt>
      <trkpt lat="49.91779" lon="6.1784">
        <ele>286</ele>
        <time>2026-08-26T11:41:59+00:00</time>
      </trkpt>
      <trkpt lat="49.91801" lon="6.17871">
        <ele>289</ele>
        <time>2026-08-26T11:42:02+00:00</time>
      </trkpt>
      <trkpt lat="49.9189" lon="6.1802">
        <ele>306</ele>
        <time>2026-08-26T11:42:05+00:00</time>
      </trkpt>
      <trkpt lat="49.91941" lon="6.18116">
        <ele>308</ele>
        <time>2026-08-26T11:42:08+00:00</time>
      </trkpt>
      <trkpt lat="49.91967" lon="6.18154">
        <ele>310</ele>
        <time>2026-08-26T11:42:11+00:00</time>
      </trkpt>
      <trkpt lat="49.91975" lon="6.18175">
        <ele>318</ele>
        <time>2026-08-26T11:42:14+00:00</time>
      </trkpt>
      <trkpt lat="49.91983" lon="6.18187">
        <ele>316</ele>
        <time>2026-08-26T11:42:17+00:00</time>
      </trkpt>
      <trkpt lat="49.92005" lon="6.18228">
        <ele>315</ele>
        <time>2026-08-26T11:42:20+00:00</time>
      </trkpt>
      <trkpt lat="49.92017" lon="6.18255">
        <ele>315</ele>
        <time>2026-08-26T11:42:23+00:00</time>
      </trkpt>
      <trkpt lat="49.92021" lon="6.18268">
        <ele>315</ele>
        <time>2026-08-26T11:42:26+00:00</time>
      </trkpt>
      <trkpt lat="49.92036" lon="6.18341">
        <ele>315</ele>
        <time>2026-08-26T11:42:29+00:00</time>
      </trkpt>
      <trkpt lat="49.92039" lon="6.18351">
        <ele>315</ele>
        <time>2026-08-26T11:42:32+00:00</time>
      </trkpt>
      <trkpt lat="49.92051" lon="6.18372">
        <ele>314</ele>
        <time>2026-08-26T11:42:35+00:00</time>
      </trkpt>
      <trkpt lat="49.92055" lon="6.18402">
        <ele>316</ele>
        <time>2026-08-26T11:42:38+00:00</time>
      </trkpt>
      <trkpt lat="49.92057" lon="6.1842">
        <ele>323</ele>
        <time>2026-08-26T11:42:41+00:00</time>
      </trkpt>
      <trkpt lat="49.92062" lon="6.18444">
        <ele>323</ele>
        <time>2026-08-26T11:42:44+00:00</time>
      </trkpt>
      <trkpt lat="49.9207" lon="6.18456">
        <ele>323</ele>
        <time>2026-08-26T11:42:47+00:00</time>
      </trkpt>
      <trkpt lat="49.92073" lon="6.18469">
        <ele>323</ele>
        <time>2026-08-26T11:42:50+00:00</time>
      </trkpt>
      <trkpt lat="49.92071" lon="6.18479">
        <ele>323</ele>
        <time>2026-08-26T11:42:53+00:00</time>
      </trkpt>
      <trkpt lat="49.92068" lon="6.18484">
        <ele>323</ele>
        <time>2026-08-26T11:42:56+00:00</time>
      </trkpt>
      <trkpt lat="49.92058" lon="6.18484">
        <ele>323</ele>
        <time>2026-08-26T11:42:59+00:00</time>
      </trkpt>
      <trkpt lat="49.92034" lon="6.18463">
        <ele>323</ele>
        <time>2026-08-26T11:43:02+00:00</time>
      </trkpt>
      <trkpt lat="49.92025" lon="6.18459">
        <ele>323</ele>
        <time>2026-08-26T11:43:05+00:00</time>
      </trkpt>
      <trkpt lat="49.92016" lon="6.18457">
        <ele>323</ele>
        <time>2026-08-26T11:43:08+00:00</time>
      </trkpt>
      <trkpt lat="49.92009" lon="6.1845">
        <ele>323</ele>
        <time>2026-08-26T11:43:11+00:00</time>
      </trkpt>
      <trkpt lat="49.91992" lon="6.18398">
        <ele>325</ele>
        <time>2026-08-26T11:43:14+00:00</time>
      </trkpt>
      <trkpt lat="49.91984" lon="6.18382">
        <ele>325</ele>
        <time>2026-08-26T11:43:17+00:00</time>
      </trkpt>
      <trkpt lat="49.91969" lon="6.18361">
        <ele>326</ele>
        <time>2026-08-26T11:43:20+00:00</time>
      </trkpt>
      <trkpt lat="49.91958" lon="6.18348">
        <ele>330</ele>
        <time>2026-08-26T11:43:23+00:00</time>
      </trkpt>
      <trkpt lat="49.91832" lon="6.18245">
        <ele>344</ele>
        <time>2026-08-26T11:43:26+00:00</time>
      </trkpt>
      <trkpt lat="49.91815" lon="6.18235">
        <ele>344</ele>
        <time>2026-08-26T11:43:29+00:00</time>
      </trkpt>
      <trkpt lat="49.91808" lon="6.18235">
        <ele>344</ele>
        <time>2026-08-26T11:43:32+00:00</time>
      </trkpt>
      <trkpt lat="49.91801" lon="6.18239">
        <ele>343</ele>
        <time>2026-08-26T11:43:35+00:00</time>
      </trkpt>
      <trkpt lat="49.91813" lon="6.18271">
        <ele>352</ele>
        <time>2026-08-26T11:43:38+00:00</time>
      </trkpt>
      <trkpt lat="49.91821" lon="6.18294">
        <ele>353</ele>
        <time>2026-08-26T11:43:41+00:00</time>
      </trkpt>
      <trkpt lat="49.9184" lon="6.18419">
        <ele>356</ele>
        <time>2026-08-26T11:43:44+00:00</time>
      </trkpt>
      <trkpt lat="49.91858" lon="6.18501">
        <ele>361</ele>
        <time>2026-08-26T11:43:47+00:00</time>
      </trkpt>
      <trkpt lat="49.91858" lon="6.18518">
        <ele>361</ele>
        <time>2026-08-26T11:43:50+00:00</time>
      </trkpt>
      <trkpt lat="49.9185" lon="6.18641">
        <ele>361</ele>
        <time>2026-08-26T11:43:53+00:00</time>
      </trkpt>
      <trkpt lat="49.91849" lon="6.18659">
        <ele>359</ele>
        <time>2026-08-26T11:43:56+00:00</time>
      </trkpt>
      <trkpt lat="49.91853" lon="6.18716">
        <ele>359</ele>
        <time>2026-08-26T11:43:59+00:00</time>
      </trkpt>
      <trkpt lat="49.91871" lon="6.18839">
        <ele>357</ele>
        <time>2026-08-26T11:44:02+00:00</time>
      </trkpt>
      <trkpt lat="49.91875" lon="6.18861">
        <ele>356</ele>
        <time>2026-08-26T11:44:05+00:00</time>
      </trkpt>
      <trkpt lat="49.91899" lon="6.18938">
        <ele>351</ele>
        <time>2026-08-26T11:44:08+00:00</time>
      </trkpt>
      <trkpt lat="49.91935" lon="6.19054">
        <ele>353</ele>
        <time>2026-08-26T11:44:11+00:00</time>
      </trkpt>
      <trkpt lat="49.9196" lon="6.19043">
        <ele>354</ele>
        <time>2026-08-26T11:44:14+00:00</time>
      </trkpt>
      <trkpt lat="49.91971" lon="6.1904">
        <ele>354</ele>
        <time>2026-08-26T11:44:17+00:00</time>
      </trkpt>
      <trkpt lat="49.92037" lon="6.19038">
        <ele>355</ele>
        <time>2026-08-26T11:44:20+00:00</time>
      </trkpt>
      <trkpt lat="49.92117" lon="6.19025">
        <ele>361</ele>
        <time>2026-08-26T11:44:23+00:00</time>
      </trkpt>
      <trkpt lat="49.92325" lon="6.1902">
        <ele>370</ele>
        <time>2026-08-26T11:44:26+00:00</time>
      </trkpt>
      <trkpt lat="49.92321" lon="6.19014">
        <ele>367</ele>
        <time>2026-08-26T11:44:29+00:00</time>
      </trkpt>
      <trkpt lat="49.92325" lon="6.1902">
        <ele>370</ele>
        <time>2026-08-26T11:44:32+00:00</time>
      </trkpt>
      <trkpt lat="49.92347" lon="6.19015">
        <ele>371</ele>
        <time>2026-08-26T11:44:35+00:00</time>
      </trkpt>
      <trkpt lat="49.92373" lon="6.19001">
        <ele>371</ele>
        <time>2026-08-26T11:44:38+00:00</time>
      </trkpt>
      <trkpt lat="49.924" lon="6.1899">
        <ele>368</ele>
        <time>2026-08-26T11:44:41+00:00</time>
      </trkpt>
      <trkpt lat="49.92423" lon="6.18985">
        <ele>373</ele>
        <time>2026-08-26T11:44:44+00:00</time>
      </trkpt>
      <trkpt lat="49.92442" lon="6.18984">
        <ele>374</ele>
        <time>2026-08-26T11:44:47+00:00</time>
      </trkpt>
      <trkpt lat="49.92548" lon="6.19002">
        <ele>376</ele>
        <time>2026-08-26T11:44:50+00:00</time>
      </trkpt>
      <trkpt lat="49.92563" lon="6.19002">
        <ele>381</ele>
        <time>2026-08-26T11:44:53+00:00</time>
      </trkpt>
      <trkpt lat="49.92603" lon="6.18999">
        <ele>384</ele>
        <time>2026-08-26T11:44:56+00:00</time>
      </trkpt>
      <trkpt lat="49.92665" lon="6.19002">
        <ele>386</ele>
        <time>2026-08-26T11:44:59+00:00</time>
      </trkpt>
      <trkpt lat="49.9272" lon="6.18997">
        <ele>389</ele>
        <time>2026-08-26T11:45:02+00:00</time>
      </trkpt>
      <trkpt lat="49.92794" lon="6.19001">
        <ele>392</ele>
        <time>2026-08-26T11:45:05+00:00</time>
      </trkpt>
      <trkpt lat="49.92803" lon="6.19001">
        <ele>395</ele>
        <time>2026-08-26T11:45:08+00:00</time>
      </trkpt>
      <trkpt lat="49.92784" lon="6.18911">
        <ele>401</ele>
        <time>2026-08-26T11:45:11+00:00</time>
      </trkpt>
      <trkpt lat="49.92781" lon="6.18889">
        <ele>402</ele>
        <time>2026-08-26T11:45:14+00:00</time>
      </trkpt>
      <trkpt lat="49.92777" lon="6.18808">
        <ele>402</ele>
        <time>2026-08-26T11:45:17+00:00</time>
      </trkpt>
      <trkpt lat="49.92776" lon="6.18771">
        <ele>403</ele>
        <time>2026-08-26T11:45:20+00:00</time>
      </trkpt>
      <trkpt lat="49.92778" lon="6.18732">
        <ele>404</ele>
        <time>2026-08-26T11:45:23+00:00</time>
      </trkpt>
      <trkpt lat="49.92787" lon="6.18707">
        <ele>404</ele>
        <time>2026-08-26T11:45:26+00:00</time>
      </trkpt>
      <trkpt lat="49.92789" lon="6.18695">
        <ele>404</ele>
        <time>2026-08-26T11:45:29+00:00</time>
      </trkpt>
      <trkpt lat="49.92796" lon="6.18691">
        <ele>407</ele>
        <time>2026-08-26T11:45:32+00:00</time>
      </trkpt>
      <trkpt lat="49.92809" lon="6.18673">
        <ele>408</ele>
        <time>2026-08-26T11:45:35+00:00</time>
      </trkpt>
      <trkpt lat="49.92836" lon="6.1864">
        <ele>408</ele>
        <time>2026-08-26T11:45:38+00:00</time>
      </trkpt>
      <trkpt lat="49.92887" lon="6.18583">
        <ele>412</ele>
        <time>2026-08-26T11:45:41+00:00</time>
      </trkpt>
      <trkpt lat="49.9291" lon="6.18554">
        <ele>415</ele>
        <time>2026-08-26T11:45:44+00:00</time>
      </trkpt>
      <trkpt lat="49.92946" lon="6.185">
        <ele>417</ele>
        <time>2026-08-26T11:45:47+00:00</time>
      </trkpt>
      <trkpt lat="49.92967" lon="6.18478">
        <ele>417</ele>
        <time>2026-08-26T11:45:50+00:00</time>
      </trkpt>
      <trkpt lat="49.92982" lon="6.18467">
        <ele>417</ele>
        <time>2026-08-26T11:45:53+00:00</time>
      </trkpt>
      <trkpt lat="49.93007" lon="6.18443">
        <ele>423</ele>
        <time>2026-08-26T11:45:56+00:00</time>
      </trkpt>
      <trkpt lat="49.93016" lon="6.18484">
        <ele>422</ele>
        <time>2026-08-26T11:45:59+00:00</time>
      </trkpt>
      <trkpt lat="49.93052" lon="6.1875">
        <ele>421</ele>
        <time>2026-08-26T11:46:02+00:00</time>
      </trkpt>
      <trkpt lat="49.93053" lon="6.18775">
        <ele>420</ele>
        <time>2026-08-26T11:46:05+00:00</time>
      </trkpt>
      <trkpt lat="49.93052" lon="6.18792">
        <ele>420</ele>
        <time>2026-08-26T11:46:08+00:00</time>
      </trkpt>
      <trkpt lat="49.93047" lon="6.18805">
        <ele>420</ele>
        <time>2026-08-26T11:46:11+00:00</time>
      </trkpt>
      <trkpt lat="49.93036" lon="6.18821">
        <ele>420</ele>
        <time>2026-08-26T11:46:14+00:00</time>
      </trkpt>
      <trkpt lat="49.93021" lon="6.18836">
        <ele>420</ele>
        <time>2026-08-26T11:46:17+00:00</time>
      </trkpt>
      <trkpt lat="49.93018" lon="6.18843">
        <ele>420</ele>
        <time>2026-08-26T11:46:20+00:00</time>
      </trkpt>
      <trkpt lat="49.93018" lon="6.18843">
        <ele>420</ele>
        <time>2026-08-26T11:46:23+00:00</time>
      </trkpt>
      <trkpt lat="49.93018" lon="6.18843">
        <ele>420</ele>
        <time>2026-08-26T11:46:26+00:00</time>
      </trkpt>
      <trkpt lat="49.93015" lon="6.18864">
        <ele>420</ele>
        <time>2026-08-26T11:46:29+00:00</time>
      </trkpt>
      <trkpt lat="49.93016" lon="6.18876">
        <ele>419</ele>
        <time>2026-08-26T11:46:32+00:00</time>
      </trkpt>
      <trkpt lat="49.93031" lon="6.18969">
        <ele>417</ele>
        <time>2026-08-26T11:46:35+00:00</time>
      </trkpt>
      <trkpt lat="49.93045" lon="6.19069">
        <ele>412</ele>
        <time>2026-08-26T11:46:38+00:00</time>
      </trkpt>
      <trkpt lat="49.93055" lon="6.19128">
        <ele>410</ele>
        <time>2026-08-26T11:46:41+00:00</time>
      </trkpt>
      <trkpt lat="49.93062" lon="6.19156">
        <ele>408</ele>
        <time>2026-08-26T11:46:44+00:00</time>
      </trkpt>
      <trkpt lat="49.93082" lon="6.19222">
        <ele>406</ele>
        <time>2026-08-26T11:46:47+00:00</time>
      </trkpt>
      <trkpt lat="49.93101" lon="6.19293">
        <ele>402</ele>
        <time>2026-08-26T11:46:50+00:00</time>
      </trkpt>
      <trkpt lat="49.93131" lon="6.19394">
        <ele>398</ele>
        <time>2026-08-26T11:46:53+00:00</time>
      </trkpt>
      <trkpt lat="49.9314" lon="6.19427">
        <ele>397</ele>
        <time>2026-08-26T11:46:56+00:00</time>
      </trkpt>
      <trkpt lat="49.9315" lon="6.19475">
        <ele>393</ele>
        <time>2026-08-26T11:46:59+00:00</time>
      </trkpt>
      <trkpt lat="49.93154" lon="6.19495">
        <ele>393</ele>
        <time>2026-08-26T11:47:02+00:00</time>
      </trkpt>
      <trkpt lat="49.93166" lon="6.19563">
        <ele>387</ele>
        <time>2026-08-26T11:47:05+00:00</time>
      </trkpt>
      <trkpt lat="49.93178" lon="6.1962">
        <ele>397</ele>
        <time>2026-08-26T11:47:08+00:00</time>
      </trkpt>
      <trkpt lat="49.93202" lon="6.19684">
        <ele>390</ele>
        <time>2026-08-26T11:47:11+00:00</time>
      </trkpt>
      <trkpt lat="49.9323" lon="6.19771">
        <ele>380</ele>
        <time>2026-08-26T11:47:14+00:00</time>
      </trkpt>
      <trkpt lat="49.93233" lon="6.19782">
        <ele>379</ele>
        <time>2026-08-26T11:47:17+00:00</time>
      </trkpt>
      <trkpt lat="49.93222" lon="6.19846">
        <ele>379</ele>
        <time>2026-08-26T11:47:20+00:00</time>
      </trkpt>
      <trkpt lat="49.93223" lon="6.19859">
        <ele>378</ele>
        <time>2026-08-26T11:47:23+00:00</time>
      </trkpt>
      <trkpt lat="49.93228" lon="6.19868">
        <ele>378</ele>
        <time>2026-08-26T11:47:26+00:00</time>
      </trkpt>
      <trkpt lat="49.93243" lon="6.19876">
        <ele>377</ele>
        <time>2026-08-26T11:47:29+00:00</time>
      </trkpt>
      <trkpt lat="49.93257" lon="6.19877">
        <ele>378</ele>
        <time>2026-08-26T11:47:32+00:00</time>
      </trkpt>
      <trkpt lat="49.93272" lon="6.19867">
        <ele>379</ele>
        <time>2026-08-26T11:47:35+00:00</time>
      </trkpt>
      <trkpt lat="49.93277" lon="6.19867">
        <ele>379</ele>
        <time>2026-08-26T11:47:38+00:00</time>
      </trkpt>
      <trkpt lat="49.93279" lon="6.1987">
        <ele>385</ele>
        <time>2026-08-26T11:47:41+00:00</time>
      </trkpt>
      <trkpt lat="49.93279" lon="6.19876">
        <ele>369</ele>
        <time>2026-08-26T11:47:44+00:00</time>
      </trkpt>
      <trkpt lat="49.93245" lon="6.19928">
        <ele>369</ele>
        <time>2026-08-26T11:47:47+00:00</time>
      </trkpt>
      <trkpt lat="49.9323" lon="6.19944">
        <ele>368</ele>
        <time>2026-08-26T11:47:50+00:00</time>
      </trkpt>
      <trkpt lat="49.9322" lon="6.19951">
        <ele>368</ele>
        <time>2026-08-26T11:47:53+00:00</time>
      </trkpt>
      <trkpt lat="49.93214" lon="6.19953">
        <ele>368</ele>
        <time>2026-08-26T11:47:56+00:00</time>
      </trkpt>
      <trkpt lat="49.93197" lon="6.19948">
        <ele>368</ele>
        <time>2026-08-26T11:47:59+00:00</time>
      </trkpt>
      <trkpt lat="49.93193" lon="6.19951">
        <ele>367</ele>
        <time>2026-08-26T11:48:02+00:00</time>
      </trkpt>
      <trkpt lat="49.93193" lon="6.19956">
        <ele>367</ele>
        <time>2026-08-26T11:48:05+00:00</time>
      </trkpt>
      <trkpt lat="49.93195" lon="6.19961">
        <ele>367</ele>
        <time>2026-08-26T11:48:08+00:00</time>
      </trkpt>
      <trkpt lat="49.93217" lon="6.19991">
        <ele>366</ele>
        <time>2026-08-26T11:48:11+00:00</time>
      </trkpt>
      <trkpt lat="49.93222" lon="6.19995">
        <ele>366</ele>
        <time>2026-08-26T11:48:14+00:00</time>
      </trkpt>
      <trkpt lat="49.93227" lon="6.19996">
        <ele>366</ele>
        <time>2026-08-26T11:48:17+00:00</time>
      </trkpt>
      <trkpt lat="49.93251" lon="6.19986">
        <ele>367</ele>
        <time>2026-08-26T11:48:20+00:00</time>
      </trkpt>
      <trkpt lat="49.93263" lon="6.19975">
        <ele>367</ele>
        <time>2026-08-26T11:48:23+00:00</time>
      </trkpt>
      <trkpt lat="49.93283" lon="6.19954">
        <ele>368</ele>
        <time>2026-08-26T11:48:26+00:00</time>
      </trkpt>
      <trkpt lat="49.93294" lon="6.19945">
        <ele>368</ele>
        <time>2026-08-26T11:48:29+00:00</time>
      </trkpt>
      <trkpt lat="49.93364" lon="6.1991">
        <ele>375</ele>
        <time>2026-08-26T11:48:32+00:00</time>
      </trkpt>
      <trkpt lat="49.93399" lon="6.19901">
        <ele>372</ele>
        <time>2026-08-26T11:48:35+00:00</time>
      </trkpt>
      <trkpt lat="49.9341" lon="6.19895">
        <ele>372</ele>
        <time>2026-08-26T11:48:38+00:00</time>
      </trkpt>
      <trkpt lat="49.93422" lon="6.19887">
        <ele>349</ele>
        <time>2026-08-26T11:48:41+00:00</time>
      </trkpt>
      <trkpt lat="49.93426" lon="6.19878">
        <ele>347</ele>
        <time>2026-08-26T11:48:44+00:00</time>
      </trkpt>
      <trkpt lat="49.93425" lon="6.19866">
        <ele>345</ele>
        <time>2026-08-26T11:48:47+00:00</time>
      </trkpt>
      <trkpt lat="49.93423" lon="6.19861">
        <ele>346</ele>
        <time>2026-08-26T11:48:50+00:00</time>
      </trkpt>
      <trkpt lat="49.93425" lon="6.19866">
        <ele>345</ele>
        <time>2026-08-26T11:48:53+00:00</time>
      </trkpt>
      <trkpt lat="49.93426" lon="6.19878">
        <ele>347</ele>
        <time>2026-08-26T11:48:56+00:00</time>
      </trkpt>
      <trkpt lat="49.93422" lon="6.19887">
        <ele>349</ele>
        <time>2026-08-26T11:48:59+00:00</time>
      </trkpt>
      <trkpt lat="49.9341" lon="6.19895">
        <ele>372</ele>
        <time>2026-08-26T11:49:02+00:00</time>
      </trkpt>
      <trkpt lat="49.9343" lon="6.19893">
        <ele>345</ele>
        <time>2026-08-26T11:49:05+00:00</time>
      </trkpt>
      <trkpt lat="49.93419" lon="6.19918">
        <ele>343</ele>
        <time>2026-08-26T11:49:08+00:00</time>
      </trkpt>
      <trkpt lat="49.93433" lon="6.1992">
        <ele>342</ele>
        <time>2026-08-26T11:49:11+00:00</time>
      </trkpt>
      <trkpt lat="49.93428" lon="6.19938">
        <ele>331</ele>
        <time>2026-08-26T11:49:14+00:00</time>
      </trkpt>
      <trkpt lat="49.93444" lon="6.1993">
        <ele>331</ele>
        <time>2026-08-26T11:49:17+00:00</time>
      </trkpt>
      <trkpt lat="49.93446" lon="6.19921">
        <ele>331</ele>
        <time>2026-08-26T11:49:20+00:00</time>
      </trkpt>
      <trkpt lat="49.93449" lon="6.19917">
        <ele>331</ele>
        <time>2026-08-26T11:49:23+00:00</time>
      </trkpt>
      <trkpt lat="49.93451" lon="6.19921">
        <ele>331</ele>
        <time>2026-08-26T11:49:26+00:00</time>
      </trkpt>
      <trkpt lat="49.93455" lon="6.19942">
        <ele>331</ele>
        <time>2026-08-26T11:49:29+00:00</time>
      </trkpt>
      <trkpt lat="49.93467" lon="6.19932">
        <ele>330</ele>
        <time>2026-08-26T11:49:32+00:00</time>
      </trkpt>
      <trkpt lat="49.93478" lon="6.19911">
        <ele>330</ele>
        <time>2026-08-26T11:49:35+00:00</time>
      </trkpt>
      <trkpt lat="49.93483" lon="6.19905">
        <ele>330</ele>
        <time>2026-08-26T11:49:38+00:00</time>
      </trkpt>
      <trkpt lat="49.93489" lon="6.19888">
        <ele>330</ele>
        <time>2026-08-26T11:49:41+00:00</time>
      </trkpt>
      <trkpt lat="49.93489" lon="6.19879">
        <ele>330</ele>
        <time>2026-08-26T11:49:44+00:00</time>
      </trkpt>
      <trkpt lat="49.93485" lon="6.19876">
        <ele>330</ele>
        <time>2026-08-26T11:49:47+00:00</time>
      </trkpt>
      <trkpt lat="49.93481" lon="6.19875">
        <ele>330</ele>
        <time>2026-08-26T11:49:50+00:00</time>
      </trkpt>
      <trkpt lat="49.93483" lon="6.19869">
        <ele>330</ele>
        <time>2026-08-26T11:49:53+00:00</time>
      </trkpt>
      <trkpt lat="49.93485" lon="6.19857">
        <ele>330</ele>
        <time>2026-08-26T11:49:56+00:00</time>
      </trkpt>
      <trkpt lat="49.93482" lon="6.19848">
        <ele>330</ele>
        <time>2026-08-26T11:49:59+00:00</time>
      </trkpt>
      <trkpt lat="49.93475" lon="6.19844">
        <ele>330</ele>
        <time>2026-08-26T11:50:02+00:00</time>
      </trkpt>
      <trkpt lat="49.93469" lon="6.19831">
        <ele>327</ele>
        <time>2026-08-26T11:50:05+00:00</time>
      </trkpt>
      <trkpt lat="49.93448" lon="6.19813">
        <ele>327</ele>
        <time>2026-08-26T11:50:08+00:00</time>
      </trkpt>
      <trkpt lat="49.93444" lon="6.19806">
        <ele>328</ele>
        <time>2026-08-26T11:50:11+00:00</time>
      </trkpt>
      <trkpt lat="49.9343" lon="6.19776">
        <ele>328</ele>
        <time>2026-08-26T11:50:14+00:00</time>
      </trkpt>
      <trkpt lat="49.93423" lon="6.1975">
        <ele>332</ele>
        <time>2026-08-26T11:50:17+00:00</time>
      </trkpt>
      <trkpt lat="49.93422" lon="6.19749">
        <ele>332</ele>
        <time>2026-08-26T11:50:20+00:00</time>
      </trkpt>
      <trkpt lat="49.93417" lon="6.19712">
        <ele>342</ele>
        <time>2026-08-26T11:50:23+00:00</time>
      </trkpt>
      <trkpt lat="49.93414" lon="6.19704">
        <ele>342</ele>
        <time>2026-08-26T11:50:26+00:00</time>
      </trkpt>
      <trkpt lat="49.93396" lon="6.19649">
        <ele>343</ele>
        <time>2026-08-26T11:50:29+00:00</time>
      </trkpt>
      <trkpt lat="49.93391" lon="6.19625">
        <ele>343</ele>
        <time>2026-08-26T11:50:32+00:00</time>
      </trkpt>
      <trkpt lat="49.93381" lon="6.1955">
        <ele>344</ele>
        <time>2026-08-26T11:50:35+00:00</time>
      </trkpt>
      <trkpt lat="49.93375" lon="6.19479">
        <ele>347</ele>
        <time>2026-08-26T11:50:38+00:00</time>
      </trkpt>
      <trkpt lat="49.93369" lon="6.19345">
        <ele>357</ele>
        <time>2026-08-26T11:50:41+00:00</time>
      </trkpt>
      <trkpt lat="49.9337" lon="6.19235">
        <ele>377</ele>
        <time>2026-08-26T11:50:44+00:00</time>
      </trkpt>
      <trkpt lat="49.93372" lon="6.19202">
        <ele>379</ele>
        <time>2026-08-26T11:50:47+00:00</time>
      </trkpt>
      <trkpt lat="49.9337" lon="6.19187">
        <ele>380</ele>
        <time>2026-08-26T11:50:50+00:00</time>
      </trkpt>
      <trkpt lat="49.93358" lon="6.19153">
        <ele>380</ele>
        <time>2026-08-26T11:50:53+00:00</time>
      </trkpt>
      <trkpt lat="49.93349" lon="6.19101">
        <ele>381</ele>
        <time>2026-08-26T11:50:56+00:00</time>
      </trkpt>
      <trkpt lat="49.93339" lon="6.19015">
        <ele>384</ele>
        <time>2026-08-26T11:50:59+00:00</time>
      </trkpt>
      <trkpt lat="49.93328" lon="6.18949">
        <ele>384</ele>
        <time>2026-08-26T11:51:02+00:00</time>
      </trkpt>
      <trkpt lat="49.93325" lon="6.18923">
        <ele>385</ele>
        <time>2026-08-26T11:51:05+00:00</time>
      </trkpt>
      <trkpt lat="49.93327" lon="6.18893">
        <ele>388</ele>
        <time>2026-08-26T11:51:08+00:00</time>
      </trkpt>
      <trkpt lat="49.93337" lon="6.18862">
        <ele>404</ele>
        <time>2026-08-26T11:51:11+00:00</time>
      </trkpt>
      <trkpt lat="49.93334" lon="6.18899">
        <ele>403</ele>
        <time>2026-08-26T11:51:14+00:00</time>
      </trkpt>
      <trkpt lat="49.93334" lon="6.18925">
        <ele>402</ele>
        <time>2026-08-26T11:51:17+00:00</time>
      </trkpt>
      <trkpt lat="49.93338" lon="6.18947">
        <ele>400</ele>
        <time>2026-08-26T11:51:20+00:00</time>
      </trkpt>
      <trkpt lat="49.93378" lon="6.1908">
        <ele>395</ele>
        <time>2026-08-26T11:51:23+00:00</time>
      </trkpt>
      <trkpt lat="49.93391" lon="6.19105">
        <ele>394</ele>
        <time>2026-08-26T11:51:26+00:00</time>
      </trkpt>
      <trkpt lat="49.93407" lon="6.19136">
        <ele>393</ele>
        <time>2026-08-26T11:51:29+00:00</time>
      </trkpt>
      <trkpt lat="49.93415" lon="6.19156">
        <ele>392</ele>
        <time>2026-08-26T11:51:32+00:00</time>
      </trkpt>
      <trkpt lat="49.93434" lon="6.19287">
        <ele>392</ele>
        <time>2026-08-26T11:51:35+00:00</time>
      </trkpt>
      <trkpt lat="49.93443" lon="6.19319">
        <ele>392</ele>
        <time>2026-08-26T11:51:38+00:00</time>
      </trkpt>
      <trkpt lat="49.93453" lon="6.19341">
        <ele>392</ele>
        <time>2026-08-26T11:51:41+00:00</time>
      </trkpt>
      <trkpt lat="49.93493" lon="6.1941">
        <ele>399</ele>
        <time>2026-08-26T11:51:44+00:00</time>
      </trkpt>
      <trkpt lat="49.93506" lon="6.19425">
        <ele>403</ele>
        <time>2026-08-26T11:51:47+00:00</time>
      </trkpt>
      <trkpt lat="49.93521" lon="6.19433">
        <ele>406</ele>
        <time>2026-08-26T11:51:50+00:00</time>
      </trkpt>
      <trkpt lat="49.93532" lon="6.19432">
        <ele>410</ele>
        <time>2026-08-26T11:51:53+00:00</time>
      </trkpt>
      <trkpt lat="49.93602" lon="6.19378">
        <ele>415</ele>
        <time>2026-08-26T11:51:56+00:00</time>
      </trkpt>
      <trkpt lat="49.93615" lon="6.1937">
        <ele>414</ele>
        <time>2026-08-26T11:51:59+00:00</time>
      </trkpt>
      <trkpt lat="49.93629" lon="6.19365">
        <ele>414</ele>
        <time>2026-08-26T11:52:02+00:00</time>
      </trkpt>
      <trkpt lat="49.93641" lon="6.19366">
        <ele>414</ele>
        <time>2026-08-26T11:52:05+00:00</time>
      </trkpt>
      <trkpt lat="49.93651" lon="6.19374">
        <ele>414</ele>
        <time>2026-08-26T11:52:08+00:00</time>
      </trkpt>
      <trkpt lat="49.93657" lon="6.19389">
        <ele>414</ele>
        <time>2026-08-26T11:52:11+00:00</time>
      </trkpt>
      <trkpt lat="49.93691" lon="6.1951">
        <ele>411</ele>
        <time>2026-08-26T11:52:14+00:00</time>
      </trkpt>
      <trkpt lat="49.93701" lon="6.19537">
        <ele>411</ele>
        <time>2026-08-26T11:52:17+00:00</time>
      </trkpt>
      <trkpt lat="49.93751" lon="6.19655">
        <ele>411</ele>
        <time>2026-08-26T11:52:20+00:00</time>
      </trkpt>
      <trkpt lat="49.93786" lon="6.19727">
        <ele>407</ele>
        <time>2026-08-26T11:52:23+00:00</time>
      </trkpt>
      <trkpt lat="49.9382" lon="6.19846">
        <ele>395</ele>
        <time>2026-08-26T11:52:26+00:00</time>
      </trkpt>
      <trkpt lat="49.93823" lon="6.19856">
        <ele>395</ele>
        <time>2026-08-26T11:52:29+00:00</time>
      </trkpt>
      <trkpt lat="49.93827" lon="6.19861">
        <ele>395</ele>
        <time>2026-08-26T11:52:32+00:00</time>
      </trkpt>
      <trkpt lat="49.93825" lon="6.19874">
        <ele>391</ele>
        <time>2026-08-26T11:52:35+00:00</time>
      </trkpt>
      <trkpt lat="49.93825" lon="6.19874">
        <ele>391</ele>
        <time>2026-08-26T11:52:38+00:00</time>
      </trkpt>
      <trkpt lat="49.93825" lon="6.19898">
        <ele>391</ele>
        <time>2026-08-26T11:52:41+00:00</time>
      </trkpt>
      <trkpt lat="49.9382" lon="6.19923">
        <ele>391</ele>
        <time>2026-08-26T11:52:44+00:00</time>
      </trkpt>
      <trkpt lat="49.93811" lon="6.19944">
        <ele>391</ele>
        <time>2026-08-26T11:52:47+00:00</time>
      </trkpt>
      <trkpt lat="49.9379" lon="6.19975">
        <ele>391</ele>
        <time>2026-08-26T11:52:50+00:00</time>
      </trkpt>
      <trkpt lat="49.93782" lon="6.19983">
        <ele>390</ele>
        <time>2026-08-26T11:52:53+00:00</time>
      </trkpt>
      <trkpt lat="49.93781" lon="6.19986">
        <ele>390</ele>
        <time>2026-08-26T11:52:56+00:00</time>
      </trkpt>
      <trkpt lat="49.93785" lon="6.19996">
        <ele>385</ele>
        <time>2026-08-26T11:52:59+00:00</time>
      </trkpt>
      <trkpt lat="49.93792" lon="6.19999">
        <ele>385</ele>
        <time>2026-08-26T11:53:02+00:00</time>
      </trkpt>
      <trkpt lat="49.93819" lon="6.19996">
        <ele>385</ele>
        <time>2026-08-26T11:53:05+00:00</time>
      </trkpt>
      <trkpt lat="49.93812" lon="6.20009">
        <ele>384</ele>
        <time>2026-08-26T11:53:08+00:00</time>
      </trkpt>
      <trkpt lat="49.93817" lon="6.2001">
        <ele>384</ele>
        <time>2026-08-26T11:53:11+00:00</time>
      </trkpt>
      <trkpt lat="49.93819" lon="6.20011">
        <ele>384</ele>
        <time>2026-08-26T11:53:14+00:00</time>
      </trkpt>
      <trkpt lat="49.93812" lon="6.2002">
        <ele>384</ele>
        <time>2026-08-26T11:53:17+00:00</time>
      </trkpt>
      <trkpt lat="49.93825" lon="6.20024">
        <ele>384</ele>
        <time>2026-08-26T11:53:20+00:00</time>
      </trkpt>
      <trkpt lat="49.93812" lon="6.2004">
        <ele>385</ele>
        <time>2026-08-26T11:53:23+00:00</time>
      </trkpt>
      <trkpt lat="49.93823" lon="6.20044">
        <ele>385</ele>
        <time>2026-08-26T11:53:26+00:00</time>
      </trkpt>
      <trkpt lat="49.93791" lon="6.20066">
        <ele>384</ele>
        <time>2026-08-26T11:53:29+00:00</time>
      </trkpt>
      <trkpt lat="49.93788" lon="6.20068">
        <ele>384</ele>
        <time>2026-08-26T11:53:32+00:00</time>
      </trkpt>
      <trkpt lat="49.93783" lon="6.20065">
        <ele>384</ele>
        <time>2026-08-26T11:53:35+00:00</time>
      </trkpt>
      <trkpt lat="49.93774" lon="6.20055">
        <ele>384</ele>
        <time>2026-08-26T11:53:38+00:00</time>
      </trkpt>
      <trkpt lat="49.93771" lon="6.20044">
        <ele>384</ele>
        <time>2026-08-26T11:53:41+00:00</time>
      </trkpt>
      <trkpt lat="49.93768" lon="6.20051">
        <ele>384</ele>
        <time>2026-08-26T11:53:44+00:00</time>
      </trkpt>
      <trkpt lat="49.93762" lon="6.20056">
        <ele>384</ele>
        <time>2026-08-26T11:53:47+00:00</time>
      </trkpt>
      <trkpt lat="49.93749" lon="6.20058">
        <ele>334</ele>
        <time>2026-08-26T11:53:50+00:00</time>
      </trkpt>
      <trkpt lat="49.93742" lon="6.20062">
        <ele>334</ele>
        <time>2026-08-26T11:53:53+00:00</time>
      </trkpt>
      <trkpt lat="49.93733" lon="6.20068">
        <ele>334</ele>
        <time>2026-08-26T11:53:56+00:00</time>
      </trkpt>
      <trkpt lat="49.93733" lon="6.20068">
        <ele>334</ele>
        <time>2026-08-26T11:53:59+00:00</time>
      </trkpt>
      <trkpt lat="49.93723" lon="6.20068">
        <ele>334</ele>
        <time>2026-08-26T11:54:02+00:00</time>
      </trkpt>
      <trkpt lat="49.9372" lon="6.2007">
        <ele>334</ele>
        <time>2026-08-26T11:54:05+00:00</time>
      </trkpt>
      <trkpt lat="49.9372" lon="6.20078">
        <ele>333</ele>
        <time>2026-08-26T11:54:08+00:00</time>
      </trkpt>
      <trkpt lat="49.93723" lon="6.20087">
        <ele>331</ele>
        <time>2026-08-26T11:54:11+00:00</time>
      </trkpt>
      <trkpt lat="49.93724" lon="6.2009">
        <ele>331</ele>
        <time>2026-08-26T11:54:14+00:00</time>
      </trkpt>
      <trkpt lat="49.93721" lon="6.20091">
        <ele>331</ele>
        <time>2026-08-26T11:54:17+00:00</time>
      </trkpt>
      <trkpt lat="49.93719" lon="6.20093">
        <ele>331</ele>
        <time>2026-08-26T11:54:20+00:00</time>
      </trkpt>
      <trkpt lat="49.93714" lon="6.20098">
        <ele>331</ele>
        <time>2026-08-26T11:54:23+00:00</time>
      </trkpt>
      <trkpt lat="49.93714" lon="6.20097">
        <ele>332</ele>
        <time>2026-08-26T11:54:26+00:00</time>
      </trkpt>
      <trkpt lat="49.93708" lon="6.20079">
        <ele>334</ele>
        <time>2026-08-26T11:54:29+00:00</time>
      </trkpt>
      <trkpt lat="49.93705" lon="6.20078">
        <ele>334</ele>
        <time>2026-08-26T11:54:32+00:00</time>
      </trkpt>
      <trkpt lat="49.93704" lon="6.20081">
        <ele>334</ele>
        <time>2026-08-26T11:54:35+00:00</time>
      </trkpt>
      <trkpt lat="49.93703" lon="6.20106">
        <ele>302</ele>
        <time>2026-08-26T11:54:38+00:00</time>
      </trkpt>
      <trkpt lat="49.93688" lon="6.20089">
        <ele>301</ele>
        <time>2026-08-26T11:54:41+00:00</time>
      </trkpt>
      <trkpt lat="49.93683" lon="6.20087">
        <ele>301</ele>
        <time>2026-08-26T11:54:44+00:00</time>
      </trkpt>
      <trkpt lat="49.93684" lon="6.20102">
        <ele>300</ele>
        <time>2026-08-26T11:54:47+00:00</time>
      </trkpt>
      <trkpt lat="49.93687" lon="6.2011">
        <ele>299</ele>
        <time>2026-08-26T11:54:50+00:00</time>
      </trkpt>
      <trkpt lat="49.93685" lon="6.20112">
        <ele>297</ele>
        <time>2026-08-26T11:54:53+00:00</time>
      </trkpt>
      <trkpt lat="49.93679" lon="6.20109">
        <ele>297</ele>
        <time>2026-08-26T11:54:56+00:00</time>
      </trkpt>
      <trkpt lat="49.93665" lon="6.20089">
        <ele>295</ele>
        <time>2026-08-26T11:54:59+00:00</time>
      </trkpt>
      <trkpt lat="49.93665" lon="6.20096">
        <ele>296</ele>
        <time>2026-08-26T11:55:02+00:00</time>
      </trkpt>
      <trkpt lat="49.93671" lon="6.20118">
        <ele>295</ele>
        <time>2026-08-26T11:55:05+00:00</time>
      </trkpt>
      <trkpt lat="49.93671" lon="6.20122">
        <ele>294</ele>
        <time>2026-08-26T11:55:08+00:00</time>
      </trkpt>
      <trkpt lat="49.93649" lon="6.201">
        <ele>294</ele>
        <time>2026-08-26T11:55:11+00:00</time>
      </trkpt>
      <trkpt lat="49.93651" lon="6.20129">
        <ele>295</ele>
        <time>2026-08-26T11:55:14+00:00</time>
      </trkpt>
      <trkpt lat="49.93653" lon="6.20137">
        <ele>295</ele>
        <time>2026-08-26T11:55:17+00:00</time>
      </trkpt>
      <trkpt lat="49.93642" lon="6.20128">
        <ele>296</ele>
        <time>2026-08-26T11:55:20+00:00</time>
      </trkpt>
      <trkpt lat="49.93636" lon="6.20119">
        <ele>296</ele>
        <time>2026-08-26T11:55:23+00:00</time>
      </trkpt>
      <trkpt lat="49.93635" lon="6.20125">
        <ele>297</ele>
        <time>2026-08-26T11:55:26+00:00</time>
      </trkpt>
      <trkpt lat="49.93638" lon="6.20135">
        <ele>297</ele>
        <time>2026-08-26T11:55:29+00:00</time>
      </trkpt>
      <trkpt lat="49.9364" lon="6.20139">
        <ele>298</ele>
        <time>2026-08-26T11:55:32+00:00</time>
      </trkpt>
      <trkpt lat="49.93654" lon="6.20163">
        <ele>298</ele>
        <time>2026-08-26T11:55:35+00:00</time>
      </trkpt>
      <trkpt lat="49.93678" lon="6.2019">
        <ele>298</ele>
        <time>2026-08-26T11:55:38+00:00</time>
      </trkpt>
      <trkpt lat="49.93686" lon="6.20197">
        <ele>298</ele>
        <time>2026-08-26T11:55:41+00:00</time>
      </trkpt>
      <trkpt lat="49.93687" lon="6.20202">
        <ele>298</ele>
        <time>2026-08-26T11:55:44+00:00</time>
      </trkpt>
      <trkpt lat="49.93662" lon="6.20193">
        <ele>297</ele>
        <time>2026-08-26T11:55:47+00:00</time>
      </trkpt>
      <trkpt lat="49.93664" lon="6.20198">
        <ele>298</ele>
        <time>2026-08-26T11:55:50+00:00</time>
      </trkpt>
      <trkpt lat="49.93688" lon="6.20219">
        <ele>298</ele>
        <time>2026-08-26T11:55:53+00:00</time>
      </trkpt>
      <trkpt lat="49.93688" lon="6.20223">
        <ele>309</ele>
        <time>2026-08-26T11:55:56+00:00</time>
      </trkpt>
      <trkpt lat="49.93652" lon="6.20207">
        <ele>290</ele>
        <time>2026-08-26T11:55:59+00:00</time>
      </trkpt>
      <trkpt lat="49.93629" lon="6.20194">
        <ele>281</ele>
        <time>2026-08-26T11:56:02+00:00</time>
      </trkpt>
      <trkpt lat="49.93605" lon="6.20177">
        <ele>276</ele>
        <time>2026-08-26T11:56:05+00:00</time>
      </trkpt>
      <trkpt lat="49.93578" lon="6.20166">
        <ele>263</ele>
        <time>2026-08-26T11:56:08+00:00</time>
      </trkpt>
      <trkpt lat="49.93574" lon="6.20157">
        <ele>263</ele>
        <time>2026-08-26T11:56:11+00:00</time>
      </trkpt>
      <trkpt lat="49.93573" lon="6.20159">
        <ele>263</ele>
        <time>2026-08-26T11:56:14+00:00</time>
      </trkpt>
      <trkpt lat="49.93567" lon="6.20171">
        <ele>263</ele>
        <time>2026-08-26T11:56:17+00:00</time>
      </trkpt>
      <trkpt lat="49.93559" lon="6.2018">
        <ele>263</ele>
        <time>2026-08-26T11:56:20+00:00</time>
      </trkpt>
      <trkpt lat="49.93558" lon="6.20181">
        <ele>264</ele>
        <time>2026-08-26T11:56:23+00:00</time>
      </trkpt>
      <trkpt lat="49.93567" lon="6.2022">
        <ele>264</ele>
        <time>2026-08-26T11:56:26+00:00</time>
      </trkpt>
      <trkpt lat="49.93572" lon="6.2024">
        <ele>275</ele>
        <time>2026-08-26T11:56:29+00:00</time>
      </trkpt>
      <trkpt lat="49.93571" lon="6.20249">
        <ele>274</ele>
        <time>2026-08-26T11:56:32+00:00</time>
      </trkpt>
      <trkpt lat="49.93568" lon="6.20268">
        <ele>275</ele>
        <time>2026-08-26T11:56:35+00:00</time>
      </trkpt>
      <trkpt lat="49.93555" lon="6.20298">
        <ele>276</ele>
        <time>2026-08-26T11:56:38+00:00</time>
      </trkpt>
      <trkpt lat="49.9355" lon="6.20304">
        <ele>277</ele>
        <time>2026-08-26T11:56:41+00:00</time>
      </trkpt>
      <trkpt lat="49.93538" lon="6.20313">
        <ele>279</ele>
        <time>2026-08-26T11:56:44+00:00</time>
      </trkpt>
      <trkpt lat="49.93514" lon="6.2035">
        <ele>280</ele>
        <time>2026-08-26T11:56:47+00:00</time>
      </trkpt>
      <trkpt lat="49.93508" lon="6.20355">
        <ele>280</ele>
        <time>2026-08-26T11:56:50+00:00</time>
      </trkpt>
      <trkpt lat="49.93493" lon="6.20368">
        <ele>280</ele>
        <time>2026-08-26T11:56:53+00:00</time>
      </trkpt>
      <trkpt lat="49.93485" lon="6.2038">
        <ele>278</ele>
        <time>2026-08-26T11:56:56+00:00</time>
      </trkpt>
      <trkpt lat="49.93479" lon="6.20394">
        <ele>263</ele>
        <time>2026-08-26T11:56:59+00:00</time>
      </trkpt>
      <trkpt lat="49.93451" lon="6.20435">
        <ele>264</ele>
        <time>2026-08-26T11:57:02+00:00</time>
      </trkpt>
      <trkpt lat="49.93441" lon="6.20455">
        <ele>264</ele>
        <time>2026-08-26T11:57:05+00:00</time>
      </trkpt>
      <trkpt lat="49.93406" lon="6.20496">
        <ele>262</ele>
        <time>2026-08-26T11:57:08+00:00</time>
      </trkpt>
      <trkpt lat="49.93389" lon="6.20522">
        <ele>234</ele>
        <time>2026-08-26T11:57:11+00:00</time>
      </trkpt>
      <trkpt lat="49.93388" lon="6.20522">
        <ele>235</ele>
        <time>2026-08-26T11:57:14+00:00</time>
      </trkpt>
      <trkpt lat="49.93389" lon="6.20522">
        <ele>234</ele>
        <time>2026-08-26T11:57:17+00:00</time>
      </trkpt>
      <trkpt lat="49.93388" lon="6.20428">
        <ele>247</ele>
        <time>2026-08-26T11:57:20+00:00</time>
      </trkpt>
      <trkpt lat="49.93386" lon="6.2041">
        <ele>247</ele>
        <time>2026-08-26T11:57:23+00:00</time>
      </trkpt>
      <trkpt lat="49.93376" lon="6.20355">
        <ele>248</ele>
        <time>2026-08-26T11:57:26+00:00</time>
      </trkpt>
      <trkpt lat="49.93381" lon="6.20351">
        <ele>262</ele>
        <time>2026-08-26T11:57:29+00:00</time>
      </trkpt>
      <trkpt lat="49.93384" lon="6.20342">
        <ele>264</ele>
        <time>2026-08-26T11:57:32+00:00</time>
      </trkpt>
      <trkpt lat="49.93387" lon="6.2034">
        <ele>265</ele>
        <time>2026-08-26T11:57:35+00:00</time>
      </trkpt>
      <trkpt lat="49.93391" lon="6.2035">
        <ele>267</ele>
        <time>2026-08-26T11:57:38+00:00</time>
      </trkpt>
      <trkpt lat="49.93397" lon="6.20349">
        <ele>270</ele>
        <time>2026-08-26T11:57:41+00:00</time>
      </trkpt>
      <trkpt lat="49.93406" lon="6.20352">
        <ele>274</ele>
        <time>2026-08-26T11:57:44+00:00</time>
      </trkpt>
      <trkpt lat="49.9341" lon="6.20354">
        <ele>276</ele>
        <time>2026-08-26T11:57:47+00:00</time>
      </trkpt>
      <trkpt lat="49.93418" lon="6.20339">
        <ele>279</ele>
        <time>2026-08-26T11:57:50+00:00</time>
      </trkpt>
      <trkpt lat="49.93436" lon="6.20283">
        <ele>287</ele>
        <time>2026-08-26T11:57:53+00:00</time>
      </trkpt>
      <trkpt lat="49.93432" lon="6.20308">
        <ele>287</ele>
        <time>2026-08-26T11:57:56+00:00</time>
      </trkpt>
      <trkpt lat="49.93443" lon="6.2029">
        <ele>292</ele>
        <time>2026-08-26T11:57:59+00:00</time>
      </trkpt>
      <trkpt lat="49.93463" lon="6.20259">
        <ele>293</ele>
        <time>2026-08-26T11:58:02+00:00</time>
      </trkpt>
      <trkpt lat="49.93489" lon="6.20232">
        <ele>288</ele>
        <time>2026-08-26T11:58:05+00:00</time>
      </trkpt>
      <trkpt lat="49.93526" lon="6.202">
        <ele>264</ele>
        <time>2026-08-26T11:58:08+00:00</time>
      </trkpt>
      <trkpt lat="49.93529" lon="6.20197">
        <ele>264</ele>
        <time>2026-08-26T11:58:11+00:00</time>
      </trkpt>
      <trkpt lat="49.93558" lon="6.20181">
        <ele>264</ele>
        <time>2026-08-26T11:58:14+00:00</time>
      </trkpt>
      <trkpt lat="49.93567" lon="6.20171">
        <ele>263</ele>
        <time>2026-08-26T11:58:17+00:00</time>
      </trkpt>
      <trkpt lat="49.93573" lon="6.20159">
        <ele>263</ele>
        <time>2026-08-26T11:58:20+00:00</time>
      </trkpt>
      <trkpt lat="49.93574" lon="6.20157">
        <ele>263</ele>
        <time>2026-08-26T11:58:23+00:00</time>
      </trkpt>
      <trkpt lat="49.93573" lon="6.2015">
        <ele>269</ele>
        <time>2026-08-26T11:58:26+00:00</time>
      </trkpt>
      <trkpt lat="49.93572" lon="6.20147">
        <ele>276</ele>
        <time>2026-08-26T11:58:29+00:00</time>
      </trkpt>
      <trkpt lat="49.93573" lon="6.20071">
        <ele>277</ele>
        <time>2026-08-26T11:58:32+00:00</time>
      </trkpt>
      <trkpt lat="49.93569" lon="6.20049">
        <ele>280</ele>
        <time>2026-08-26T11:58:35+00:00</time>
      </trkpt>
      <trkpt lat="49.93562" lon="6.20032">
        <ele>289</ele>
        <time>2026-08-26T11:58:38+00:00</time>
      </trkpt>
      <trkpt lat="49.93554" lon="6.2004">
        <ele>289</ele>
        <time>2026-08-26T11:58:41+00:00</time>
      </trkpt>
      <trkpt lat="49.93543" lon="6.2005">
        <ele>289</ele>
        <time>2026-08-26T11:58:44+00:00</time>
      </trkpt>
      <trkpt lat="49.93538" lon="6.20061">
        <ele>289</ele>
        <time>2026-08-26T11:58:47+00:00</time>
      </trkpt>
      <trkpt lat="49.93535" lon="6.2006">
        <ele>289</ele>
        <time>2026-08-26T11:58:50+00:00</time>
      </trkpt>
      <trkpt lat="49.9351" lon="6.2008">
        <ele>280</ele>
        <time>2026-08-26T11:58:53+00:00</time>
      </trkpt>
      <trkpt lat="49.93487" lon="6.2009">
        <ele>272</ele>
        <time>2026-08-26T11:58:56+00:00</time>
      </trkpt>
      <trkpt lat="49.93486" lon="6.20093">
        <ele>272</ele>
        <time>2026-08-26T11:58:59+00:00</time>
      </trkpt>
      <trkpt lat="49.93485" lon="6.20096">
        <ele>272</ele>
        <time>2026-08-26T11:59:02+00:00</time>
      </trkpt>
      <trkpt lat="49.93484" lon="6.20099">
        <ele>272</ele>
        <time>2026-08-26T11:59:05+00:00</time>
      </trkpt>
      <trkpt lat="49.93482" lon="6.20104">
        <ele>272</ele>
        <time>2026-08-26T11:59:08+00:00</time>
      </trkpt>
      <trkpt lat="49.93482" lon="6.20104">
        <ele>272</ele>
        <time>2026-08-26T11:59:11+00:00</time>
      </trkpt>
      <trkpt lat="49.93479" lon="6.20102">
        <ele>272</ele>
        <time>2026-08-26T11:59:14+00:00</time>
      </trkpt>
      <trkpt lat="49.93476" lon="6.201">
        <ele>272</ele>
        <time>2026-08-26T11:59:17+00:00</time>
      </trkpt>
      <trkpt lat="49.93471" lon="6.20097">
        <ele>272</ele>
        <time>2026-08-26T11:59:20+00:00</time>
      </trkpt>
      <trkpt lat="49.93469" lon="6.20097">
        <ele>279</ele>
        <time>2026-08-26T11:59:23+00:00</time>
      </trkpt>
      <trkpt lat="49.93458" lon="6.20095">
        <ele>287</ele>
        <time>2026-08-26T11:59:26+00:00</time>
      </trkpt>
      <trkpt lat="49.93448" lon="6.20097">
        <ele>289</ele>
        <time>2026-08-26T11:59:29+00:00</time>
      </trkpt>
      <trkpt lat="49.93406" lon="6.20111">
        <ele>291</ele>
        <time>2026-08-26T11:59:32+00:00</time>
      </trkpt>
      <trkpt lat="49.93406" lon="6.20113">
        <ele>290</ele>
        <time>2026-08-26T11:59:35+00:00</time>
      </trkpt>
      <trkpt lat="49.93397" lon="6.20121">
        <ele>289</ele>
        <time>2026-08-26T11:59:38+00:00</time>
      </trkpt>
      <trkpt lat="49.93396" lon="6.20118">
        <ele>299</ele>
        <time>2026-08-26T11:59:41+00:00</time>
      </trkpt>
      <trkpt lat="49.93393" lon="6.20117">
        <ele>299</ele>
        <time>2026-08-26T11:59:44+00:00</time>
      </trkpt>
      <trkpt lat="49.93392" lon="6.2012">
        <ele>299</ele>
        <time>2026-08-26T11:59:47+00:00</time>
      </trkpt>
      <trkpt lat="49.93384" lon="6.20129">
        <ele>299</ele>
        <time>2026-08-26T11:59:50+00:00</time>
      </trkpt>
      <trkpt lat="49.93375" lon="6.20136">
        <ele>299</ele>
        <time>2026-08-26T11:59:53+00:00</time>
      </trkpt>
      <trkpt lat="49.93371" lon="6.20143">
        <ele>299</ele>
        <time>2026-08-26T11:59:56+00:00</time>
      </trkpt>
      <trkpt lat="49.93369" lon="6.20144">
        <ele>299</ele>
        <time>2026-08-26T11:59:59+00:00</time>
      </trkpt>
      <trkpt lat="49.93366" lon="6.20152">
        <ele>283</ele>
        <time>2026-08-26T12:00:02+00:00</time>
      </trkpt>
      <trkpt lat="49.93351" lon="6.20175">
        <ele>282</ele>
        <time>2026-08-26T12:00:05+00:00</time>
      </trkpt>
      <trkpt lat="49.93332" lon="6.20211">
        <ele>283</ele>
        <time>2026-08-26T12:00:08+00:00</time>
      </trkpt>
      <trkpt lat="49.93328" lon="6.20214">
        <ele>281</ele>
        <time>2026-08-26T12:00:11+00:00</time>
      </trkpt>
      <trkpt lat="49.93327" lon="6.20221">
        <ele>280</ele>
        <time>2026-08-26T12:00:14+00:00</time>
      </trkpt>
      <trkpt lat="49.93324" lon="6.20227">
        <ele>279</ele>
        <time>2026-08-26T12:00:17+00:00</time>
      </trkpt>
      <trkpt lat="49.9332" lon="6.20235">
        <ele>279</ele>
        <time>2026-08-26T12:00:20+00:00</time>
      </trkpt>
      <trkpt lat="49.93319" lon="6.20243">
        <ele>278</ele>
        <time>2026-08-26T12:00:23+00:00</time>
      </trkpt>
      <trkpt lat="49.93316" lon="6.2025">
        <ele>277</ele>
        <time>2026-08-26T12:00:26+00:00</time>
      </trkpt>
      <trkpt lat="49.93313" lon="6.20253">
        <ele>278</ele>
        <time>2026-08-26T12:00:29+00:00</time>
      </trkpt>
      <trkpt lat="49.93312" lon="6.2026">
        <ele>278</ele>
        <time>2026-08-26T12:00:32+00:00</time>
      </trkpt>
      <trkpt lat="49.93302" lon="6.20287">
        <ele>279</ele>
        <time>2026-08-26T12:00:35+00:00</time>
      </trkpt>
      <trkpt lat="49.93298" lon="6.20291">
        <ele>279</ele>
        <time>2026-08-26T12:00:38+00:00</time>
      </trkpt>
      <trkpt lat="49.93298" lon="6.20299">
        <ele>280</ele>
        <time>2026-08-26T12:00:41+00:00</time>
      </trkpt>
      <trkpt lat="49.93293" lon="6.20313">
        <ele>280</ele>
        <time>2026-08-26T12:00:44+00:00</time>
      </trkpt>
      <trkpt lat="49.9328" lon="6.20304">
        <ele>272</ele>
        <time>2026-08-26T12:00:47+00:00</time>
      </trkpt>
      <trkpt lat="49.93283" lon="6.20308">
        <ele>272</ele>
        <time>2026-08-26T12:00:50+00:00</time>
      </trkpt>
      <trkpt lat="49.93287" lon="6.20318">
        <ele>272</ele>
        <time>2026-08-26T12:00:53+00:00</time>
      </trkpt>
      <trkpt lat="49.93301" lon="6.20332">
        <ele>272</ele>
        <time>2026-08-26T12:00:56+00:00</time>
      </trkpt>
      <trkpt lat="49.93311" lon="6.20338">
        <ele>264</ele>
        <time>2026-08-26T12:00:59+00:00</time>
      </trkpt>
      <trkpt lat="49.93317" lon="6.20342">
        <ele>257</ele>
        <time>2026-08-26T12:01:02+00:00</time>
      </trkpt>
      <trkpt lat="49.9332" lon="6.20339">
        <ele>257</ele>
        <time>2026-08-26T12:01:05+00:00</time>
      </trkpt>
      <trkpt lat="49.93327" lon="6.2034">
        <ele>257</ele>
        <time>2026-08-26T12:01:08+00:00</time>
      </trkpt>
      <trkpt lat="49.93326" lon="6.20371">
        <ele>257</ele>
        <time>2026-08-26T12:01:11+00:00</time>
      </trkpt>
      <trkpt lat="49.93327" lon="6.20379">
        <ele>257</ele>
        <time>2026-08-26T12:01:14+00:00</time>
      </trkpt>
      <trkpt lat="49.93329" lon="6.20392">
        <ele>257</ele>
        <time>2026-08-26T12:01:17+00:00</time>
      </trkpt>
      <trkpt lat="49.93337" lon="6.20434">
        <ele>240</ele>
        <time>2026-08-26T12:01:20+00:00</time>
      </trkpt>
      <trkpt lat="49.9334" lon="6.20435">
        <ele>240</ele>
        <time>2026-08-26T12:01:23+00:00</time>
      </trkpt>
      <trkpt lat="49.9334" lon="6.20446">
        <ele>240</ele>
        <time>2026-08-26T12:01:26+00:00</time>
      </trkpt>
      <trkpt lat="49.93337" lon="6.2051">
        <ele>234</ele>
        <time>2026-08-26T12:01:29+00:00</time>
      </trkpt>
      <trkpt lat="49.93336" lon="6.20549">
        <ele>237</ele>
        <time>2026-08-26T12:01:32+00:00</time>
      </trkpt>
      <trkpt lat="49.93336" lon="6.20563">
        <ele>240</ele>
        <time>2026-08-26T12:01:35+00:00</time>
      </trkpt>
      <trkpt lat="49.93335" lon="6.20582">
        <ele>248</ele>
        <time>2026-08-26T12:01:38+00:00</time>
      </trkpt>
      <trkpt lat="49.93317" lon="6.2058">
        <ele>227</ele>
        <time>2026-08-26T12:01:41+00:00</time>
      </trkpt>
      <trkpt lat="49.93307" lon="6.2059">
        <ele>226</ele>
        <time>2026-08-26T12:01:44+00:00</time>
      </trkpt>
      <trkpt lat="49.93308" lon="6.2061">
        <ele>224</ele>
        <time>2026-08-26T12:01:47+00:00</time>
      </trkpt>
      <trkpt lat="49.93318" lon="6.20612">
        <ele>225</ele>
        <time>2026-08-26T12:01:50+00:00</time>
      </trkpt>
    </trkseg>
  </trk>
</gpx>
